<?xml version="1.0" encoding="UTF-8" standalone="no" ?>
<gpx xmlns="http://www.topografix.com/GPX/1/1" xmlns:xsi="http://www.w3.org/2001/XMLSchema-instance" xsi:schemaLocation="http://www.topografix.com/GPX/1/1 http://www.topografix.com/GPX/1/1/gpx.xsd" version="1.1" creator="VisuGPX - https://www.visugpx.com">
  <metadata>
    <name>rando tonique de Bois-le-Roi à Fontainebleau-Avon</name>
    <desc><![CDATA[Belle diagonale de gare à gare menée à 4.5 km de moyenne .
A retrouver aussi sur [url]http://trekkingzone.wordpress.com[/url]]]></desc>
  </metadata>
  <trk>
    <name><![CDATA[10 mars 2019 à 09:24:20]]></name>
    <cmt><![CDATA[10 mars 2019 à 09:24:20]]></cmt>
    <trkseg>
      <trkpt lat="48.47567" lon="2.69227">
        <ele>78</ele>
        <time>2019-03-10T08:24:21Z</time>
      </trkpt>
      <trkpt lat="48.47564" lon="2.69218">
        <ele>72</ele>
        <time>2019-03-10T08:25:33Z</time>
      </trkpt>
      <trkpt lat="48.47555" lon="2.69215">
        <ele>73</ele>
        <time>2019-03-10T08:26:08Z</time>
      </trkpt>
      <trkpt lat="48.47512" lon="2.69194">
        <ele>77</ele>
        <time>2019-03-10T08:26:39Z</time>
      </trkpt>
      <trkpt lat="48.47496" lon="2.69183">
        <ele>77</ele>
        <time>2019-03-10T08:26:53Z</time>
      </trkpt>
      <trkpt lat="48.47489" lon="2.69175">
        <ele>77</ele>
        <time>2019-03-10T08:26:59Z</time>
      </trkpt>
      <trkpt lat="48.47482" lon="2.69164">
        <ele>77</ele>
        <time>2019-03-10T08:27:08Z</time>
      </trkpt>
      <trkpt lat="48.47484" lon="2.69149">
        <ele>78</ele>
        <time>2019-03-10T08:27:17Z</time>
      </trkpt>
      <trkpt lat="48.4748" lon="2.69135">
        <ele>78</ele>
        <time>2019-03-10T08:27:27Z</time>
      </trkpt>
      <trkpt lat="48.47473" lon="2.69127">
        <ele>78</ele>
        <time>2019-03-10T08:27:32Z</time>
      </trkpt>
      <trkpt lat="48.47453" lon="2.69116">
        <ele>78</ele>
        <time>2019-03-10T08:27:43Z</time>
      </trkpt>
      <trkpt lat="48.47446" lon="2.69107">
        <ele>78</ele>
        <time>2019-03-10T08:27:48Z</time>
      </trkpt>
      <trkpt lat="48.4744" lon="2.69096">
        <ele>78</ele>
        <time>2019-03-10T08:27:55Z</time>
      </trkpt>
      <trkpt lat="48.47427" lon="2.69078">
        <ele>78</ele>
        <time>2019-03-10T08:28:15Z</time>
      </trkpt>
      <trkpt lat="48.47421" lon="2.69069">
        <ele>80</ele>
        <time>2019-03-10T08:28:21Z</time>
      </trkpt>
      <trkpt lat="48.47411" lon="2.69074">
        <ele>81</ele>
        <time>2019-03-10T08:28:28Z</time>
      </trkpt>
      <trkpt lat="48.47406" lon="2.69086">
        <ele>81</ele>
        <time>2019-03-10T08:28:34Z</time>
      </trkpt>
      <trkpt lat="48.474" lon="2.69113">
        <ele>79</ele>
        <time>2019-03-10T08:28:47Z</time>
      </trkpt>
      <trkpt lat="48.47396" lon="2.69127">
        <ele>80</ele>
        <time>2019-03-10T08:28:55Z</time>
      </trkpt>
      <trkpt lat="48.47392" lon="2.69139">
        <ele>80</ele>
        <time>2019-03-10T08:29:01Z</time>
      </trkpt>
      <trkpt lat="48.47389" lon="2.69154">
        <ele>79</ele>
        <time>2019-03-10T08:29:05Z</time>
      </trkpt>
      <trkpt lat="48.47372" lon="2.69189">
        <ele>80</ele>
        <time>2019-03-10T08:29:25Z</time>
      </trkpt>
      <trkpt lat="48.47368" lon="2.69202">
        <ele>79</ele>
        <time>2019-03-10T08:29:33Z</time>
      </trkpt>
      <trkpt lat="48.47363" lon="2.69217">
        <ele>80</ele>
        <time>2019-03-10T08:29:44Z</time>
      </trkpt>
      <trkpt lat="48.47354" lon="2.69244">
        <ele>79</ele>
        <time>2019-03-10T08:30:00Z</time>
      </trkpt>
      <trkpt lat="48.47347" lon="2.69253">
        <ele>78</ele>
        <time>2019-03-10T08:30:08Z</time>
      </trkpt>
      <trkpt lat="48.47339" lon="2.69258">
        <ele>78</ele>
        <time>2019-03-10T08:30:15Z</time>
      </trkpt>
      <trkpt lat="48.47329" lon="2.69257">
        <ele>77</ele>
        <time>2019-03-10T08:30:22Z</time>
      </trkpt>
      <trkpt lat="48.4732" lon="2.69257">
        <ele>78</ele>
        <time>2019-03-10T08:30:29Z</time>
      </trkpt>
      <trkpt lat="48.47295" lon="2.69211">
        <ele>79</ele>
        <time>2019-03-10T08:31:00Z</time>
      </trkpt>
      <trkpt lat="48.4729" lon="2.69198">
        <ele>80</ele>
        <time>2019-03-10T08:31:09Z</time>
      </trkpt>
      <trkpt lat="48.47286" lon="2.69187">
        <ele>80</ele>
        <time>2019-03-10T08:31:15Z</time>
      </trkpt>
      <trkpt lat="48.47281" lon="2.69174">
        <ele>80</ele>
        <time>2019-03-10T08:31:22Z</time>
      </trkpt>
      <trkpt lat="48.47276" lon="2.69161">
        <ele>82</ele>
        <time>2019-03-10T08:31:29Z</time>
      </trkpt>
      <trkpt lat="48.47272" lon="2.69151">
        <ele>81</ele>
        <time>2019-03-10T08:31:34Z</time>
      </trkpt>
      <trkpt lat="48.47271" lon="2.69144">
        <ele>80</ele>
        <time>2019-03-10T08:31:38Z</time>
      </trkpt>
      <trkpt lat="48.4727" lon="2.69136">
        <ele>81</ele>
        <time>2019-03-10T08:31:42Z</time>
      </trkpt>
      <trkpt lat="48.47269" lon="2.69129">
        <ele>81</ele>
        <time>2019-03-10T08:31:46Z</time>
      </trkpt>
      <trkpt lat="48.47267" lon="2.69122">
        <ele>81</ele>
        <time>2019-03-10T08:31:50Z</time>
      </trkpt>
      <trkpt lat="48.47265" lon="2.69115">
        <ele>81</ele>
        <time>2019-03-10T08:31:54Z</time>
      </trkpt>
      <trkpt lat="48.47263" lon="2.69108">
        <ele>81</ele>
        <time>2019-03-10T08:31:58Z</time>
      </trkpt>
      <trkpt lat="48.47261" lon="2.691">
        <ele>81</ele>
        <time>2019-03-10T08:32:02Z</time>
      </trkpt>
      <trkpt lat="48.4726" lon="2.69094">
        <ele>82</ele>
        <time>2019-03-10T08:32:06Z</time>
      </trkpt>
      <trkpt lat="48.47259" lon="2.69087">
        <ele>81</ele>
        <time>2019-03-10T08:32:10Z</time>
      </trkpt>
      <trkpt lat="48.47254" lon="2.69073">
        <ele>81</ele>
        <time>2019-03-10T08:32:19Z</time>
      </trkpt>
      <trkpt lat="48.47239" lon="2.69022">
        <ele>82</ele>
        <time>2019-03-10T08:32:46Z</time>
      </trkpt>
      <trkpt lat="48.47231" lon="2.69003">
        <ele>82</ele>
        <time>2019-03-10T08:32:57Z</time>
      </trkpt>
      <trkpt lat="48.47226" lon="2.68987">
        <ele>83</ele>
        <time>2019-03-10T08:33:05Z</time>
      </trkpt>
      <trkpt lat="48.47224" lon="2.6898">
        <ele>82</ele>
        <time>2019-03-10T08:33:09Z</time>
      </trkpt>
      <trkpt lat="48.47222" lon="2.68972">
        <ele>82</ele>
        <time>2019-03-10T08:33:13Z</time>
      </trkpt>
      <trkpt lat="48.47219" lon="2.68966">
        <ele>83</ele>
        <time>2019-03-10T08:33:16Z</time>
      </trkpt>
      <trkpt lat="48.47216" lon="2.6896">
        <ele>83</ele>
        <time>2019-03-10T08:33:20Z</time>
      </trkpt>
      <trkpt lat="48.47212" lon="2.68954">
        <ele>83</ele>
        <time>2019-03-10T08:33:24Z</time>
      </trkpt>
      <trkpt lat="48.4721" lon="2.68946">
        <ele>84</ele>
        <time>2019-03-10T08:33:28Z</time>
      </trkpt>
      <trkpt lat="48.47202" lon="2.68919">
        <ele>83</ele>
        <time>2019-03-10T08:33:44Z</time>
      </trkpt>
      <trkpt lat="48.47198" lon="2.68906">
        <ele>84</ele>
        <time>2019-03-10T08:33:51Z</time>
      </trkpt>
      <trkpt lat="48.47194" lon="2.68891">
        <ele>84</ele>
        <time>2019-03-10T08:33:59Z</time>
      </trkpt>
      <trkpt lat="48.47188" lon="2.6887">
        <ele>85</ele>
        <time>2019-03-10T08:34:10Z</time>
      </trkpt>
      <trkpt lat="48.47183" lon="2.68857">
        <ele>84</ele>
        <time>2019-03-10T08:34:18Z</time>
      </trkpt>
      <trkpt lat="48.47177" lon="2.68829">
        <ele>87</ele>
        <time>2019-03-10T08:34:32Z</time>
      </trkpt>
      <trkpt lat="48.47173" lon="2.68817">
        <ele>86</ele>
        <time>2019-03-10T08:34:40Z</time>
      </trkpt>
      <trkpt lat="48.47167" lon="2.68806">
        <ele>87</ele>
        <time>2019-03-10T08:34:48Z</time>
      </trkpt>
      <trkpt lat="48.47166" lon="2.68794">
        <ele>86</ele>
        <time>2019-03-10T08:34:55Z</time>
      </trkpt>
      <trkpt lat="48.47163" lon="2.6878">
        <ele>87</ele>
        <time>2019-03-10T08:35:03Z</time>
      </trkpt>
      <trkpt lat="48.47161" lon="2.68773">
        <ele>87</ele>
        <time>2019-03-10T08:35:07Z</time>
      </trkpt>
      <trkpt lat="48.47157" lon="2.68767">
        <ele>88</ele>
        <time>2019-03-10T08:35:11Z</time>
      </trkpt>
      <trkpt lat="48.47154" lon="2.6876">
        <ele>87</ele>
        <time>2019-03-10T08:35:15Z</time>
      </trkpt>
      <trkpt lat="48.47151" lon="2.68745">
        <ele>87</ele>
        <time>2019-03-10T08:35:22Z</time>
      </trkpt>
      <trkpt lat="48.4715" lon="2.68738">
        <ele>87</ele>
        <time>2019-03-10T08:35:26Z</time>
      </trkpt>
      <trkpt lat="48.47145" lon="2.68722">
        <ele>88</ele>
        <time>2019-03-10T08:35:35Z</time>
      </trkpt>
      <trkpt lat="48.47142" lon="2.68707">
        <ele>88</ele>
        <time>2019-03-10T08:35:43Z</time>
      </trkpt>
      <trkpt lat="48.47139" lon="2.687">
        <ele>88</ele>
        <time>2019-03-10T08:35:46Z</time>
      </trkpt>
      <trkpt lat="48.47136" lon="2.68694">
        <ele>87</ele>
        <time>2019-03-10T08:35:52Z</time>
      </trkpt>
      <trkpt lat="48.47132" lon="2.68678">
        <ele>88</ele>
        <time>2019-03-10T08:35:58Z</time>
      </trkpt>
      <trkpt lat="48.47125" lon="2.68663">
        <ele>87</ele>
        <time>2019-03-10T08:36:04Z</time>
      </trkpt>
      <trkpt lat="48.47123" lon="2.68655">
        <ele>87</ele>
        <time>2019-03-10T08:36:07Z</time>
      </trkpt>
      <trkpt lat="48.47118" lon="2.68631">
        <ele>88</ele>
        <time>2019-03-10T08:36:16Z</time>
      </trkpt>
      <trkpt lat="48.47107" lon="2.68605">
        <ele>88</ele>
        <time>2019-03-10T08:36:29Z</time>
      </trkpt>
      <trkpt lat="48.47104" lon="2.68598">
        <ele>87</ele>
        <time>2019-03-10T08:36:33Z</time>
      </trkpt>
      <trkpt lat="48.47102" lon="2.68591">
        <ele>87</ele>
        <time>2019-03-10T08:36:37Z</time>
      </trkpt>
      <trkpt lat="48.47102" lon="2.68583">
        <ele>89</ele>
        <time>2019-03-10T08:36:42Z</time>
      </trkpt>
      <trkpt lat="48.47102" lon="2.68571">
        <ele>88</ele>
        <time>2019-03-10T08:36:51Z</time>
      </trkpt>
      <trkpt lat="48.47095" lon="2.68553">
        <ele>89</ele>
        <time>2019-03-10T08:37:01Z</time>
      </trkpt>
      <trkpt lat="48.47093" lon="2.68546">
        <ele>89</ele>
        <time>2019-03-10T08:37:05Z</time>
      </trkpt>
      <trkpt lat="48.47089" lon="2.68541">
        <ele>88</ele>
        <time>2019-03-10T08:37:09Z</time>
      </trkpt>
      <trkpt lat="48.47082" lon="2.68523">
        <ele>88</ele>
        <time>2019-03-10T08:37:21Z</time>
      </trkpt>
      <trkpt lat="48.47079" lon="2.68516">
        <ele>88</ele>
        <time>2019-03-10T08:37:24Z</time>
      </trkpt>
      <trkpt lat="48.47076" lon="2.68509">
        <ele>88</ele>
        <time>2019-03-10T08:37:27Z</time>
      </trkpt>
      <trkpt lat="48.47072" lon="2.68502">
        <ele>88</ele>
        <time>2019-03-10T08:37:30Z</time>
      </trkpt>
      <trkpt lat="48.47068" lon="2.68488">
        <ele>90</ele>
        <time>2019-03-10T08:37:36Z</time>
      </trkpt>
      <trkpt lat="48.47066" lon="2.68478">
        <ele>89</ele>
        <time>2019-03-10T08:37:41Z</time>
      </trkpt>
      <trkpt lat="48.47066" lon="2.68471">
        <ele>89</ele>
        <time>2019-03-10T08:37:45Z</time>
      </trkpt>
      <trkpt lat="48.47064" lon="2.68464">
        <ele>89</ele>
        <time>2019-03-10T08:37:49Z</time>
      </trkpt>
      <trkpt lat="48.47062" lon="2.68457">
        <ele>89</ele>
        <time>2019-03-10T08:37:59Z</time>
      </trkpt>
      <trkpt lat="48.47059" lon="2.68443">
        <ele>89</ele>
        <time>2019-03-10T08:38:24Z</time>
      </trkpt>
      <trkpt lat="48.47056" lon="2.68436">
        <ele>88</ele>
        <time>2019-03-10T08:38:29Z</time>
      </trkpt>
      <trkpt lat="48.47044" lon="2.68403">
        <ele>88</ele>
        <time>2019-03-10T08:38:50Z</time>
      </trkpt>
      <trkpt lat="48.47042" lon="2.6839">
        <ele>88</ele>
        <time>2019-03-10T08:38:56Z</time>
      </trkpt>
      <trkpt lat="48.47022" lon="2.68337">
        <ele>88</ele>
        <time>2019-03-10T08:39:27Z</time>
      </trkpt>
      <trkpt lat="48.47017" lon="2.68325">
        <ele>87</ele>
        <time>2019-03-10T08:39:34Z</time>
      </trkpt>
      <trkpt lat="48.4701" lon="2.68295">
        <ele>89</ele>
        <time>2019-03-10T08:39:49Z</time>
      </trkpt>
      <trkpt lat="48.47003" lon="2.68268">
        <ele>86</ele>
        <time>2019-03-10T08:40:02Z</time>
      </trkpt>
      <trkpt lat="48.46993" lon="2.6824">
        <ele>88</ele>
        <time>2019-03-10T08:40:17Z</time>
      </trkpt>
      <trkpt lat="48.46989" lon="2.68226">
        <ele>87</ele>
        <time>2019-03-10T08:40:24Z</time>
      </trkpt>
      <trkpt lat="48.46984" lon="2.68213">
        <ele>88</ele>
        <time>2019-03-10T08:40:30Z</time>
      </trkpt>
      <trkpt lat="48.46972" lon="2.68175">
        <ele>86</ele>
        <time>2019-03-10T08:40:49Z</time>
      </trkpt>
      <trkpt lat="48.46969" lon="2.68162">
        <ele>86</ele>
        <time>2019-03-10T08:40:55Z</time>
      </trkpt>
      <trkpt lat="48.46959" lon="2.6816">
        <ele>85</ele>
        <time>2019-03-10T08:41:15Z</time>
      </trkpt>
      <trkpt lat="48.46953" lon="2.68163">
        <ele>87</ele>
        <time>2019-03-10T08:42:39Z</time>
      </trkpt>
      <trkpt lat="48.46948" lon="2.68171">
        <ele>87</ele>
        <time>2019-03-10T08:47:13Z</time>
      </trkpt>
      <trkpt lat="48.46939" lon="2.68174">
        <ele>87</ele>
        <time>2019-03-10T08:47:20Z</time>
      </trkpt>
      <trkpt lat="48.4693" lon="2.68182">
        <ele>87</ele>
        <time>2019-03-10T08:47:29Z</time>
      </trkpt>
      <trkpt lat="48.46926" lon="2.68188">
        <ele>87</ele>
        <time>2019-03-10T08:47:34Z</time>
      </trkpt>
      <trkpt lat="48.46889" lon="2.68214">
        <ele>86</ele>
        <time>2019-03-10T08:48:04Z</time>
      </trkpt>
      <trkpt lat="48.46885" lon="2.68217">
        <ele>85</ele>
        <time>2019-03-10T08:48:08Z</time>
      </trkpt>
      <trkpt lat="48.46877" lon="2.68226">
        <ele>85</ele>
        <time>2019-03-10T08:48:15Z</time>
      </trkpt>
      <trkpt lat="48.46868" lon="2.68234">
        <ele>85</ele>
        <time>2019-03-10T08:48:23Z</time>
      </trkpt>
      <trkpt lat="48.46864" lon="2.68239">
        <ele>85</ele>
        <time>2019-03-10T08:48:27Z</time>
      </trkpt>
      <trkpt lat="48.46858" lon="2.68242">
        <ele>85</ele>
        <time>2019-03-10T08:48:34Z</time>
      </trkpt>
      <trkpt lat="48.46853" lon="2.68245">
        <ele>85</ele>
        <time>2019-03-10T08:48:37Z</time>
      </trkpt>
      <trkpt lat="48.46817" lon="2.68273">
        <ele>85</ele>
        <time>2019-03-10T08:49:04Z</time>
      </trkpt>
      <trkpt lat="48.46809" lon="2.6828">
        <ele>85</ele>
        <time>2019-03-10T08:49:11Z</time>
      </trkpt>
      <trkpt lat="48.46804" lon="2.68284">
        <ele>85</ele>
        <time>2019-03-10T08:49:14Z</time>
      </trkpt>
      <trkpt lat="48.46789" lon="2.68295">
        <ele>85</ele>
        <time>2019-03-10T08:49:24Z</time>
      </trkpt>
      <trkpt lat="48.46784" lon="2.68299">
        <ele>84</ele>
        <time>2019-03-10T08:49:28Z</time>
      </trkpt>
      <trkpt lat="48.46773" lon="2.68305">
        <ele>85</ele>
        <time>2019-03-10T08:49:38Z</time>
      </trkpt>
      <trkpt lat="48.46768" lon="2.68307">
        <ele>85</ele>
        <time>2019-03-10T08:49:41Z</time>
      </trkpt>
      <trkpt lat="48.46764" lon="2.6831">
        <ele>84</ele>
        <time>2019-03-10T08:49:44Z</time>
      </trkpt>
      <trkpt lat="48.46759" lon="2.68313">
        <ele>85</ele>
        <time>2019-03-10T08:49:48Z</time>
      </trkpt>
      <trkpt lat="48.46755" lon="2.68318">
        <ele>85</ele>
        <time>2019-03-10T08:49:52Z</time>
      </trkpt>
      <trkpt lat="48.46745" lon="2.68321">
        <ele>85</ele>
        <time>2019-03-10T08:49:59Z</time>
      </trkpt>
      <trkpt lat="48.46727" lon="2.68337">
        <ele>85</ele>
        <time>2019-03-10T08:50:12Z</time>
      </trkpt>
      <trkpt lat="48.46723" lon="2.6834">
        <ele>84</ele>
        <time>2019-03-10T08:50:15Z</time>
      </trkpt>
      <trkpt lat="48.46713" lon="2.68349">
        <ele>84</ele>
        <time>2019-03-10T08:50:24Z</time>
      </trkpt>
      <trkpt lat="48.46709" lon="2.68352">
        <ele>84</ele>
        <time>2019-03-10T08:50:28Z</time>
      </trkpt>
      <trkpt lat="48.46705" lon="2.68357">
        <ele>84</ele>
        <time>2019-03-10T08:50:32Z</time>
      </trkpt>
      <trkpt lat="48.46695" lon="2.68366">
        <ele>84</ele>
        <time>2019-03-10T08:50:40Z</time>
      </trkpt>
      <trkpt lat="48.46685" lon="2.68375">
        <ele>84</ele>
        <time>2019-03-10T08:50:49Z</time>
      </trkpt>
      <trkpt lat="48.46676" lon="2.6838">
        <ele>84</ele>
        <time>2019-03-10T08:50:58Z</time>
      </trkpt>
      <trkpt lat="48.46662" lon="2.6839">
        <ele>84</ele>
        <time>2019-03-10T08:51:10Z</time>
      </trkpt>
      <trkpt lat="48.46646" lon="2.6841">
        <ele>83</ele>
        <time>2019-03-10T08:51:26Z</time>
      </trkpt>
      <trkpt lat="48.46641" lon="2.68416">
        <ele>83</ele>
        <time>2019-03-10T08:51:30Z</time>
      </trkpt>
      <trkpt lat="48.46632" lon="2.68422">
        <ele>84</ele>
        <time>2019-03-10T08:51:36Z</time>
      </trkpt>
      <trkpt lat="48.46627" lon="2.68426">
        <ele>84</ele>
        <time>2019-03-10T08:51:39Z</time>
      </trkpt>
      <trkpt lat="48.46618" lon="2.68433">
        <ele>85</ele>
        <time>2019-03-10T08:51:46Z</time>
      </trkpt>
      <trkpt lat="48.46614" lon="2.68436">
        <ele>85</ele>
        <time>2019-03-10T08:51:49Z</time>
      </trkpt>
      <trkpt lat="48.46604" lon="2.68441">
        <ele>84</ele>
        <time>2019-03-10T08:51:56Z</time>
      </trkpt>
      <trkpt lat="48.466" lon="2.68443">
        <ele>85</ele>
        <time>2019-03-10T08:51:59Z</time>
      </trkpt>
      <trkpt lat="48.46595" lon="2.68447">
        <ele>86</ele>
        <time>2019-03-10T08:52:03Z</time>
      </trkpt>
      <trkpt lat="48.4659" lon="2.6845">
        <ele>86</ele>
        <time>2019-03-10T08:52:08Z</time>
      </trkpt>
      <trkpt lat="48.4658" lon="2.68459">
        <ele>85</ele>
        <time>2019-03-10T08:52:17Z</time>
      </trkpt>
      <trkpt lat="48.4657" lon="2.68467">
        <ele>85</ele>
        <time>2019-03-10T08:52:25Z</time>
      </trkpt>
      <trkpt lat="48.46547" lon="2.68485">
        <ele>84</ele>
        <time>2019-03-10T08:52:43Z</time>
      </trkpt>
      <trkpt lat="48.46538" lon="2.68491">
        <ele>85</ele>
        <time>2019-03-10T08:52:50Z</time>
      </trkpt>
      <trkpt lat="48.46533" lon="2.68497">
        <ele>85</ele>
        <time>2019-03-10T08:52:57Z</time>
      </trkpt>
      <trkpt lat="48.46527" lon="2.68502">
        <ele>84</ele>
        <time>2019-03-10T08:53:04Z</time>
      </trkpt>
      <trkpt lat="48.46522" lon="2.68505">
        <ele>84</ele>
        <time>2019-03-10T08:53:08Z</time>
      </trkpt>
      <trkpt lat="48.46518" lon="2.68508">
        <ele>85</ele>
        <time>2019-03-10T08:53:11Z</time>
      </trkpt>
      <trkpt lat="48.46514" lon="2.68512">
        <ele>86</ele>
        <time>2019-03-10T08:53:14Z</time>
      </trkpt>
      <trkpt lat="48.46505" lon="2.6852">
        <ele>86</ele>
        <time>2019-03-10T08:53:22Z</time>
      </trkpt>
      <trkpt lat="48.46496" lon="2.68526">
        <ele>86</ele>
        <time>2019-03-10T08:53:29Z</time>
      </trkpt>
      <trkpt lat="48.4649" lon="2.68528">
        <ele>86</ele>
        <time>2019-03-10T08:53:33Z</time>
      </trkpt>
      <trkpt lat="48.46477" lon="2.68538">
        <ele>86</ele>
        <time>2019-03-10T08:53:43Z</time>
      </trkpt>
      <trkpt lat="48.46474" lon="2.68542">
        <ele>87</ele>
        <time>2019-03-10T08:53:46Z</time>
      </trkpt>
      <trkpt lat="48.46465" lon="2.68551">
        <ele>86</ele>
        <time>2019-03-10T08:53:54Z</time>
      </trkpt>
      <trkpt lat="48.46459" lon="2.68555">
        <ele>87</ele>
        <time>2019-03-10T08:53:58Z</time>
      </trkpt>
      <trkpt lat="48.46421" lon="2.68582">
        <ele>85</ele>
        <time>2019-03-10T08:54:29Z</time>
      </trkpt>
      <trkpt lat="48.46407" lon="2.68594">
        <ele>86</ele>
        <time>2019-03-10T08:54:42Z</time>
      </trkpt>
      <trkpt lat="48.46399" lon="2.686">
        <ele>86</ele>
        <time>2019-03-10T08:54:48Z</time>
      </trkpt>
      <trkpt lat="48.4639" lon="2.68609">
        <ele>86</ele>
        <time>2019-03-10T08:54:57Z</time>
      </trkpt>
      <trkpt lat="48.46385" lon="2.68612">
        <ele>86</ele>
        <time>2019-03-10T08:55:04Z</time>
      </trkpt>
      <trkpt lat="48.46375" lon="2.68622">
        <ele>86</ele>
        <time>2019-03-10T08:55:15Z</time>
      </trkpt>
      <trkpt lat="48.46348" lon="2.68642">
        <ele>87</ele>
        <time>2019-03-10T08:55:35Z</time>
      </trkpt>
      <trkpt lat="48.46339" lon="2.68652">
        <ele>86</ele>
        <time>2019-03-10T08:55:43Z</time>
      </trkpt>
      <trkpt lat="48.46329" lon="2.68659">
        <ele>87</ele>
        <time>2019-03-10T08:55:51Z</time>
      </trkpt>
      <trkpt lat="48.46323" lon="2.68663">
        <ele>87</ele>
        <time>2019-03-10T08:55:55Z</time>
      </trkpt>
      <trkpt lat="48.4631" lon="2.68674">
        <ele>87</ele>
        <time>2019-03-10T08:56:06Z</time>
      </trkpt>
      <trkpt lat="48.46306" lon="2.68677">
        <ele>87</ele>
        <time>2019-03-10T08:56:10Z</time>
      </trkpt>
      <trkpt lat="48.46302" lon="2.6868">
        <ele>87</ele>
        <time>2019-03-10T08:56:14Z</time>
      </trkpt>
      <trkpt lat="48.46297" lon="2.68683">
        <ele>88</ele>
        <time>2019-03-10T08:56:17Z</time>
      </trkpt>
      <trkpt lat="48.46292" lon="2.68687">
        <ele>87</ele>
        <time>2019-03-10T08:56:21Z</time>
      </trkpt>
      <trkpt lat="48.46287" lon="2.68689">
        <ele>87</ele>
        <time>2019-03-10T08:56:25Z</time>
      </trkpt>
      <trkpt lat="48.4627" lon="2.68703">
        <ele>87</ele>
        <time>2019-03-10T08:56:40Z</time>
      </trkpt>
      <trkpt lat="48.46266" lon="2.68708">
        <ele>87</ele>
        <time>2019-03-10T08:56:43Z</time>
      </trkpt>
      <trkpt lat="48.46261" lon="2.68713">
        <ele>87</ele>
        <time>2019-03-10T08:56:47Z</time>
      </trkpt>
      <trkpt lat="48.46247" lon="2.68724">
        <ele>88</ele>
        <time>2019-03-10T08:56:58Z</time>
      </trkpt>
      <trkpt lat="48.46238" lon="2.68733">
        <ele>88</ele>
        <time>2019-03-10T08:57:06Z</time>
      </trkpt>
      <trkpt lat="48.46234" lon="2.68735">
        <ele>88</ele>
        <time>2019-03-10T08:57:10Z</time>
      </trkpt>
      <trkpt lat="48.46229" lon="2.68739">
        <ele>87</ele>
        <time>2019-03-10T08:57:15Z</time>
      </trkpt>
      <trkpt lat="48.46224" lon="2.68741">
        <ele>87</ele>
        <time>2019-03-10T08:57:19Z</time>
      </trkpt>
      <trkpt lat="48.46214" lon="2.68751">
        <ele>88</ele>
        <time>2019-03-10T08:57:27Z</time>
      </trkpt>
      <trkpt lat="48.46204" lon="2.68758">
        <ele>89</ele>
        <time>2019-03-10T08:57:36Z</time>
      </trkpt>
      <trkpt lat="48.46195" lon="2.68764">
        <ele>89</ele>
        <time>2019-03-10T08:57:44Z</time>
      </trkpt>
      <trkpt lat="48.4619" lon="2.68768">
        <ele>89</ele>
        <time>2019-03-10T08:57:48Z</time>
      </trkpt>
      <trkpt lat="48.46182" lon="2.68777">
        <ele>89</ele>
        <time>2019-03-10T08:57:55Z</time>
      </trkpt>
      <trkpt lat="48.46173" lon="2.68783">
        <ele>89</ele>
        <time>2019-03-10T08:58:02Z</time>
      </trkpt>
      <trkpt lat="48.46169" lon="2.68787">
        <ele>89</ele>
        <time>2019-03-10T08:58:06Z</time>
      </trkpt>
      <trkpt lat="48.46141" lon="2.68807">
        <ele>90</ele>
        <time>2019-03-10T08:58:27Z</time>
      </trkpt>
      <trkpt lat="48.46136" lon="2.6881">
        <ele>89</ele>
        <time>2019-03-10T08:58:31Z</time>
      </trkpt>
      <trkpt lat="48.46127" lon="2.68818">
        <ele>89</ele>
        <time>2019-03-10T08:58:39Z</time>
      </trkpt>
      <trkpt lat="48.46119" lon="2.68827">
        <ele>89</ele>
        <time>2019-03-10T08:58:46Z</time>
      </trkpt>
      <trkpt lat="48.46115" lon="2.6883">
        <ele>89</ele>
        <time>2019-03-10T08:58:50Z</time>
      </trkpt>
      <trkpt lat="48.46105" lon="2.68836">
        <ele>89</ele>
        <time>2019-03-10T08:58:57Z</time>
      </trkpt>
      <trkpt lat="48.46068" lon="2.68864">
        <ele>90</ele>
        <time>2019-03-10T08:59:28Z</time>
      </trkpt>
      <trkpt lat="48.46063" lon="2.68867">
        <ele>90</ele>
        <time>2019-03-10T08:59:32Z</time>
      </trkpt>
      <trkpt lat="48.46058" lon="2.6887">
        <ele>90</ele>
        <time>2019-03-10T08:59:36Z</time>
      </trkpt>
      <trkpt lat="48.46054" lon="2.68874">
        <ele>90</ele>
        <time>2019-03-10T08:59:41Z</time>
      </trkpt>
      <trkpt lat="48.46046" lon="2.68885">
        <ele>89</ele>
        <time>2019-03-10T08:59:49Z</time>
      </trkpt>
      <trkpt lat="48.46027" lon="2.68897">
        <ele>90</ele>
        <time>2019-03-10T09:00:04Z</time>
      </trkpt>
      <trkpt lat="48.46017" lon="2.68902">
        <ele>89</ele>
        <time>2019-03-10T09:00:12Z</time>
      </trkpt>
      <trkpt lat="48.45987" lon="2.68925">
        <ele>91</ele>
        <time>2019-03-10T09:00:36Z</time>
      </trkpt>
      <trkpt lat="48.45986" lon="2.68918">
        <ele>91</ele>
        <time>2019-03-10T09:00:56Z</time>
      </trkpt>
      <trkpt lat="48.45987" lon="2.68911">
        <ele>91</ele>
        <time>2019-03-10T09:01:08Z</time>
      </trkpt>
      <trkpt lat="48.4598" lon="2.68908">
        <ele>90</ele>
        <time>2019-03-10T09:02:54Z</time>
      </trkpt>
      <trkpt lat="48.45985" lon="2.68893">
        <ele>90</ele>
        <time>2019-03-10T09:03:04Z</time>
      </trkpt>
      <trkpt lat="48.45988" lon="2.68886">
        <ele>90</ele>
        <time>2019-03-10T09:03:08Z</time>
      </trkpt>
      <trkpt lat="48.45992" lon="2.68874">
        <ele>89</ele>
        <time>2019-03-10T09:03:15Z</time>
      </trkpt>
      <trkpt lat="48.45994" lon="2.68866">
        <ele>89</ele>
        <time>2019-03-10T09:03:19Z</time>
      </trkpt>
      <trkpt lat="48.45995" lon="2.68859">
        <ele>89</ele>
        <time>2019-03-10T09:03:23Z</time>
      </trkpt>
      <trkpt lat="48.46001" lon="2.68845">
        <ele>89</ele>
        <time>2019-03-10T09:03:32Z</time>
      </trkpt>
      <trkpt lat="48.46001" lon="2.68832">
        <ele>89</ele>
        <time>2019-03-10T09:03:38Z</time>
      </trkpt>
      <trkpt lat="48.46003" lon="2.68817">
        <ele>89</ele>
        <time>2019-03-10T09:03:44Z</time>
      </trkpt>
      <trkpt lat="48.46005" lon="2.68789">
        <ele>89</ele>
        <time>2019-03-10T09:03:56Z</time>
      </trkpt>
      <trkpt lat="48.46006" lon="2.68774">
        <ele>88</ele>
        <time>2019-03-10T09:04:03Z</time>
      </trkpt>
      <trkpt lat="48.46006" lon="2.68761">
        <ele>89</ele>
        <time>2019-03-10T09:04:08Z</time>
      </trkpt>
      <trkpt lat="48.4601" lon="2.68746">
        <ele>89</ele>
        <time>2019-03-10T09:04:16Z</time>
      </trkpt>
      <trkpt lat="48.46013" lon="2.68713">
        <ele>89</ele>
        <time>2019-03-10T09:04:29Z</time>
      </trkpt>
      <trkpt lat="48.46016" lon="2.68706">
        <ele>89</ele>
        <time>2019-03-10T09:04:32Z</time>
      </trkpt>
      <trkpt lat="48.46021" lon="2.68693">
        <ele>88</ele>
        <time>2019-03-10T09:04:41Z</time>
      </trkpt>
      <trkpt lat="48.46022" lon="2.68685">
        <ele>88</ele>
        <time>2019-03-10T09:04:46Z</time>
      </trkpt>
      <trkpt lat="48.46021" lon="2.68674">
        <ele>89</ele>
        <time>2019-03-10T09:04:51Z</time>
      </trkpt>
      <trkpt lat="48.46021" lon="2.68651">
        <ele>89</ele>
        <time>2019-03-10T09:05:02Z</time>
      </trkpt>
      <trkpt lat="48.46025" lon="2.68628">
        <ele>88</ele>
        <time>2019-03-10T09:05:13Z</time>
      </trkpt>
      <trkpt lat="48.46026" lon="2.686">
        <ele>88</ele>
        <time>2019-03-10T09:05:24Z</time>
      </trkpt>
      <trkpt lat="48.46028" lon="2.68589">
        <ele>89</ele>
        <time>2019-03-10T09:05:29Z</time>
      </trkpt>
      <trkpt lat="48.4603" lon="2.68582">
        <ele>88</ele>
        <time>2019-03-10T09:05:32Z</time>
      </trkpt>
      <trkpt lat="48.46033" lon="2.68576">
        <ele>88</ele>
        <time>2019-03-10T09:05:36Z</time>
      </trkpt>
      <trkpt lat="48.46037" lon="2.68572">
        <ele>89</ele>
        <time>2019-03-10T09:05:39Z</time>
      </trkpt>
      <trkpt lat="48.4604" lon="2.68556">
        <ele>88</ele>
        <time>2019-03-10T09:05:47Z</time>
      </trkpt>
      <trkpt lat="48.4604" lon="2.68549">
        <ele>88</ele>
        <time>2019-03-10T09:05:50Z</time>
      </trkpt>
      <trkpt lat="48.46039" lon="2.68541">
        <ele>88</ele>
        <time>2019-03-10T09:05:53Z</time>
      </trkpt>
      <trkpt lat="48.46043" lon="2.68531">
        <ele>88</ele>
        <time>2019-03-10T09:05:58Z</time>
      </trkpt>
      <trkpt lat="48.46043" lon="2.68505">
        <ele>89</ele>
        <time>2019-03-10T09:06:08Z</time>
      </trkpt>
      <trkpt lat="48.46044" lon="2.68498">
        <ele>89</ele>
        <time>2019-03-10T09:06:12Z</time>
      </trkpt>
      <trkpt lat="48.46048" lon="2.68493">
        <ele>89</ele>
        <time>2019-03-10T09:06:17Z</time>
      </trkpt>
      <trkpt lat="48.46047" lon="2.68484">
        <ele>90</ele>
        <time>2019-03-10T09:06:21Z</time>
      </trkpt>
      <trkpt lat="48.46047" lon="2.68475">
        <ele>90</ele>
        <time>2019-03-10T09:06:24Z</time>
      </trkpt>
      <trkpt lat="48.46046" lon="2.68468">
        <ele>89</ele>
        <time>2019-03-10T09:06:27Z</time>
      </trkpt>
      <trkpt lat="48.46053" lon="2.6841">
        <ele>88</ele>
        <time>2019-03-10T09:06:54Z</time>
      </trkpt>
      <trkpt lat="48.46056" lon="2.68403">
        <ele>88</ele>
        <time>2019-03-10T09:06:58Z</time>
      </trkpt>
      <trkpt lat="48.46059" lon="2.68399">
        <ele>88</ele>
        <time>2019-03-10T09:07:03Z</time>
      </trkpt>
      <trkpt lat="48.4606" lon="2.68391">
        <ele>89</ele>
        <time>2019-03-10T09:07:07Z</time>
      </trkpt>
      <trkpt lat="48.4606" lon="2.68362">
        <ele>88</ele>
        <time>2019-03-10T09:07:19Z</time>
      </trkpt>
      <trkpt lat="48.46063" lon="2.68349">
        <ele>89</ele>
        <time>2019-03-10T09:07:26Z</time>
      </trkpt>
      <trkpt lat="48.46064" lon="2.68334">
        <ele>89</ele>
        <time>2019-03-10T09:07:33Z</time>
      </trkpt>
      <trkpt lat="48.46069" lon="2.68316">
        <ele>86</ele>
        <time>2019-03-10T09:07:43Z</time>
      </trkpt>
      <trkpt lat="48.46068" lon="2.68309">
        <ele>86</ele>
        <time>2019-03-10T09:07:47Z</time>
      </trkpt>
      <trkpt lat="48.46063" lon="2.68291">
        <ele>90</ele>
        <time>2019-03-10T09:08:08Z</time>
      </trkpt>
      <trkpt lat="48.4606" lon="2.68284">
        <ele>90</ele>
        <time>2019-03-10T09:08:12Z</time>
      </trkpt>
      <trkpt lat="48.46056" lon="2.6828">
        <ele>89</ele>
        <time>2019-03-10T09:08:16Z</time>
      </trkpt>
      <trkpt lat="48.46051" lon="2.68277">
        <ele>88</ele>
        <time>2019-03-10T09:08:21Z</time>
      </trkpt>
      <trkpt lat="48.46043" lon="2.68267">
        <ele>89</ele>
        <time>2019-03-10T09:08:34Z</time>
      </trkpt>
      <trkpt lat="48.46028" lon="2.68257">
        <ele>90</ele>
        <time>2019-03-10T09:08:52Z</time>
      </trkpt>
      <trkpt lat="48.46024" lon="2.68254">
        <ele>89</ele>
        <time>2019-03-10T09:08:57Z</time>
      </trkpt>
      <trkpt lat="48.46019" lon="2.68245">
        <ele>89</ele>
        <time>2019-03-10T09:09:06Z</time>
      </trkpt>
      <trkpt lat="48.46008" lon="2.6824">
        <ele>89</ele>
        <time>2019-03-10T09:09:13Z</time>
      </trkpt>
      <trkpt lat="48.46004" lon="2.68237">
        <ele>90</ele>
        <time>2019-03-10T09:09:17Z</time>
      </trkpt>
      <trkpt lat="48.45976" lon="2.68213">
        <ele>91</ele>
        <time>2019-03-10T09:09:42Z</time>
      </trkpt>
      <trkpt lat="48.45953" lon="2.68199">
        <ele>95</ele>
        <time>2019-03-10T09:10:08Z</time>
      </trkpt>
      <trkpt lat="48.45949" lon="2.68195">
        <ele>97</ele>
        <time>2019-03-10T09:10:13Z</time>
      </trkpt>
      <trkpt lat="48.45945" lon="2.68189">
        <ele>98</ele>
        <time>2019-03-10T09:10:18Z</time>
      </trkpt>
      <trkpt lat="48.45941" lon="2.68186">
        <ele>98</ele>
        <time>2019-03-10T09:10:22Z</time>
      </trkpt>
      <trkpt lat="48.45939" lon="2.68175">
        <ele>99</ele>
        <time>2019-03-10T09:10:29Z</time>
      </trkpt>
      <trkpt lat="48.4594" lon="2.68167">
        <ele>99</ele>
        <time>2019-03-10T09:10:34Z</time>
      </trkpt>
      <trkpt lat="48.45937" lon="2.68162">
        <ele>100</ele>
        <time>2019-03-10T09:10:38Z</time>
      </trkpt>
      <trkpt lat="48.45936" lon="2.68154">
        <ele>100</ele>
        <time>2019-03-10T09:10:44Z</time>
      </trkpt>
      <trkpt lat="48.45936" lon="2.68147">
        <ele>99</ele>
        <time>2019-03-10T09:10:52Z</time>
      </trkpt>
      <trkpt lat="48.45935" lon="2.68136">
        <ele>100</ele>
        <time>2019-03-10T09:10:58Z</time>
      </trkpt>
      <trkpt lat="48.45932" lon="2.68122">
        <ele>99</ele>
        <time>2019-03-10T09:11:06Z</time>
      </trkpt>
      <trkpt lat="48.45928" lon="2.68108">
        <ele>98</ele>
        <time>2019-03-10T09:11:13Z</time>
      </trkpt>
      <trkpt lat="48.4593" lon="2.68093">
        <ele>99</ele>
        <time>2019-03-10T09:11:20Z</time>
      </trkpt>
      <trkpt lat="48.4593" lon="2.68064">
        <ele>99</ele>
        <time>2019-03-10T09:11:36Z</time>
      </trkpt>
      <trkpt lat="48.45931" lon="2.68049">
        <ele>99</ele>
        <time>2019-03-10T09:11:45Z</time>
      </trkpt>
      <trkpt lat="48.45933" lon="2.68025">
        <ele>100</ele>
        <time>2019-03-10T09:12:06Z</time>
      </trkpt>
      <trkpt lat="48.45934" lon="2.68013">
        <ele>101</ele>
        <time>2019-03-10T09:12:16Z</time>
      </trkpt>
      <trkpt lat="48.45937" lon="2.68003">
        <ele>100</ele>
        <time>2019-03-10T09:12:25Z</time>
      </trkpt>
      <trkpt lat="48.45935" lon="2.67996">
        <ele>99</ele>
        <time>2019-03-10T09:12:29Z</time>
      </trkpt>
      <trkpt lat="48.45934" lon="2.67989">
        <ele>99</ele>
        <time>2019-03-10T09:12:32Z</time>
      </trkpt>
      <trkpt lat="48.45936" lon="2.67982">
        <ele>99</ele>
        <time>2019-03-10T09:12:36Z</time>
      </trkpt>
      <trkpt lat="48.45934" lon="2.67975">
        <ele>98</ele>
        <time>2019-03-10T09:12:40Z</time>
      </trkpt>
      <trkpt lat="48.45924" lon="2.6796">
        <ele>95</ele>
        <time>2019-03-10T09:12:52Z</time>
      </trkpt>
      <trkpt lat="48.45919" lon="2.67957">
        <ele>95</ele>
        <time>2019-03-10T09:12:56Z</time>
      </trkpt>
      <trkpt lat="48.45913" lon="2.67947">
        <ele>97</ele>
        <time>2019-03-10T09:13:04Z</time>
      </trkpt>
      <trkpt lat="48.45904" lon="2.67919">
        <ele>93</ele>
        <time>2019-03-10T09:13:18Z</time>
      </trkpt>
      <trkpt lat="48.45902" lon="2.67903">
        <ele>94</ele>
        <time>2019-03-10T09:13:26Z</time>
      </trkpt>
      <trkpt lat="48.45899" lon="2.67887">
        <ele>94</ele>
        <time>2019-03-10T09:13:32Z</time>
      </trkpt>
      <trkpt lat="48.45892" lon="2.67864">
        <ele>92</ele>
        <time>2019-03-10T09:13:42Z</time>
      </trkpt>
      <trkpt lat="48.45877" lon="2.67814">
        <ele>94</ele>
        <time>2019-03-10T09:14:07Z</time>
      </trkpt>
      <trkpt lat="48.45876" lon="2.67808">
        <ele>94</ele>
        <time>2019-03-10T09:14:10Z</time>
      </trkpt>
      <trkpt lat="48.45876" lon="2.678">
        <ele>94</ele>
        <time>2019-03-10T09:14:15Z</time>
      </trkpt>
      <trkpt lat="48.45877" lon="2.67793">
        <ele>94</ele>
        <time>2019-03-10T09:14:20Z</time>
      </trkpt>
      <trkpt lat="48.45875" lon="2.67784">
        <ele>94</ele>
        <time>2019-03-10T09:14:28Z</time>
      </trkpt>
      <trkpt lat="48.45868" lon="2.67775">
        <ele>96</ele>
        <time>2019-03-10T09:14:39Z</time>
      </trkpt>
      <trkpt lat="48.45864" lon="2.67767">
        <ele>97</ele>
        <time>2019-03-10T09:14:45Z</time>
      </trkpt>
      <trkpt lat="48.4586" lon="2.67762">
        <ele>100</ele>
        <time>2019-03-10T09:14:53Z</time>
      </trkpt>
      <trkpt lat="48.45857" lon="2.67751">
        <ele>99</ele>
        <time>2019-03-10T09:15:05Z</time>
      </trkpt>
      <trkpt lat="48.45864" lon="2.6774">
        <ele>99</ele>
        <time>2019-03-10T09:15:14Z</time>
      </trkpt>
      <trkpt lat="48.45873" lon="2.67733">
        <ele>99</ele>
        <time>2019-03-10T09:15:20Z</time>
      </trkpt>
      <trkpt lat="48.4588" lon="2.67728">
        <ele>98</ele>
        <time>2019-03-10T09:15:26Z</time>
      </trkpt>
      <trkpt lat="48.45884" lon="2.67722">
        <ele>98</ele>
        <time>2019-03-10T09:15:30Z</time>
      </trkpt>
      <trkpt lat="48.45889" lon="2.67718">
        <ele>97</ele>
        <time>2019-03-10T09:15:33Z</time>
      </trkpt>
      <trkpt lat="48.45893" lon="2.67712">
        <ele>98</ele>
        <time>2019-03-10T09:15:37Z</time>
      </trkpt>
      <trkpt lat="48.45891" lon="2.67706">
        <ele>99</ele>
        <time>2019-03-10T09:15:42Z</time>
      </trkpt>
      <trkpt lat="48.45886" lon="2.67704">
        <ele>98</ele>
        <time>2019-03-10T09:15:47Z</time>
      </trkpt>
      <trkpt lat="48.45882" lon="2.67699">
        <ele>97</ele>
        <time>2019-03-10T09:15:50Z</time>
      </trkpt>
      <trkpt lat="48.45877" lon="2.67696">
        <ele>97</ele>
        <time>2019-03-10T09:15:54Z</time>
      </trkpt>
      <trkpt lat="48.4587" lon="2.67687">
        <ele>97</ele>
        <time>2019-03-10T09:16:01Z</time>
      </trkpt>
      <trkpt lat="48.45865" lon="2.67673">
        <ele>97</ele>
        <time>2019-03-10T09:16:08Z</time>
      </trkpt>
      <trkpt lat="48.4586" lon="2.67659">
        <ele>99</ele>
        <time>2019-03-10T09:16:17Z</time>
      </trkpt>
      <trkpt lat="48.45858" lon="2.67645">
        <ele>98</ele>
        <time>2019-03-10T09:16:24Z</time>
      </trkpt>
      <trkpt lat="48.45857" lon="2.67629">
        <ele>95</ele>
        <time>2019-03-10T09:16:31Z</time>
      </trkpt>
      <trkpt lat="48.45863" lon="2.67617">
        <ele>95</ele>
        <time>2019-03-10T09:16:37Z</time>
      </trkpt>
      <trkpt lat="48.45866" lon="2.67604">
        <ele>94</ele>
        <time>2019-03-10T09:16:43Z</time>
      </trkpt>
      <trkpt lat="48.45868" lon="2.6759">
        <ele>93</ele>
        <time>2019-03-10T09:16:50Z</time>
      </trkpt>
      <trkpt lat="48.45866" lon="2.67574">
        <ele>93</ele>
        <time>2019-03-10T09:16:59Z</time>
      </trkpt>
      <trkpt lat="48.45863" lon="2.67561">
        <ele>94</ele>
        <time>2019-03-10T09:17:03Z</time>
      </trkpt>
      <trkpt lat="48.4587" lon="2.67547">
        <ele>95</ele>
        <time>2019-03-10T09:17:09Z</time>
      </trkpt>
      <trkpt lat="48.45879" lon="2.6754">
        <ele>94</ele>
        <time>2019-03-10T09:17:15Z</time>
      </trkpt>
      <trkpt lat="48.45886" lon="2.67529">
        <ele>93</ele>
        <time>2019-03-10T09:17:21Z</time>
      </trkpt>
      <trkpt lat="48.45898" lon="2.67507">
        <ele>93</ele>
        <time>2019-03-10T09:17:35Z</time>
      </trkpt>
      <trkpt lat="48.45901" lon="2.67493">
        <ele>93</ele>
        <time>2019-03-10T09:17:43Z</time>
      </trkpt>
      <trkpt lat="48.45907" lon="2.67481">
        <ele>95</ele>
        <time>2019-03-10T09:17:51Z</time>
      </trkpt>
      <trkpt lat="48.45917" lon="2.67477">
        <ele>95</ele>
        <time>2019-03-10T09:17:57Z</time>
      </trkpt>
      <trkpt lat="48.4593" lon="2.67445">
        <ele>91</ele>
        <time>2019-03-10T09:18:23Z</time>
      </trkpt>
      <trkpt lat="48.45935" lon="2.67432">
        <ele>94</ele>
        <time>2019-03-10T09:18:31Z</time>
      </trkpt>
      <trkpt lat="48.45939" lon="2.67421">
        <ele>94</ele>
        <time>2019-03-10T09:18:39Z</time>
      </trkpt>
      <trkpt lat="48.45947" lon="2.67404">
        <ele>93</ele>
        <time>2019-03-10T09:18:53Z</time>
      </trkpt>
      <trkpt lat="48.45954" lon="2.67394">
        <ele>94</ele>
        <time>2019-03-10T09:18:59Z</time>
      </trkpt>
      <trkpt lat="48.4596" lon="2.67391">
        <ele>94</ele>
        <time>2019-03-10T09:19:11Z</time>
      </trkpt>
      <trkpt lat="48.45961" lon="2.6738">
        <ele>95</ele>
        <time>2019-03-10T09:19:21Z</time>
      </trkpt>
      <trkpt lat="48.45964" lon="2.67375">
        <ele>94</ele>
        <time>2019-03-10T09:19:29Z</time>
      </trkpt>
      <trkpt lat="48.4597" lon="2.67361">
        <ele>94</ele>
        <time>2019-03-10T09:19:36Z</time>
      </trkpt>
      <trkpt lat="48.45972" lon="2.67358">
        <ele>94</ele>
        <time>2019-03-10T09:19:38Z</time>
      </trkpt>
      <trkpt lat="48.45974" lon="2.67351">
        <ele>94</ele>
        <time>2019-03-10T09:19:42Z</time>
      </trkpt>
      <trkpt lat="48.45976" lon="2.67341">
        <ele>94</ele>
        <time>2019-03-10T09:19:51Z</time>
      </trkpt>
      <trkpt lat="48.45972" lon="2.67309">
        <ele>98</ele>
        <time>2019-03-10T09:20:23Z</time>
      </trkpt>
      <trkpt lat="48.45975" lon="2.67302">
        <ele>99</ele>
        <time>2019-03-10T09:20:29Z</time>
      </trkpt>
      <trkpt lat="48.4598" lon="2.67301">
        <ele>99</ele>
        <time>2019-03-10T09:20:39Z</time>
      </trkpt>
      <trkpt lat="48.45988" lon="2.67304">
        <ele>97</ele>
        <time>2019-03-10T09:20:50Z</time>
      </trkpt>
      <trkpt lat="48.45994" lon="2.67305">
        <ele>96</ele>
        <time>2019-03-10T09:20:58Z</time>
      </trkpt>
      <trkpt lat="48.45999" lon="2.67304">
        <ele>95</ele>
        <time>2019-03-10T09:21:05Z</time>
      </trkpt>
      <trkpt lat="48.46005" lon="2.67302">
        <ele>95</ele>
        <time>2019-03-10T09:21:09Z</time>
      </trkpt>
      <trkpt lat="48.4601" lon="2.67302">
        <ele>96</ele>
        <time>2019-03-10T09:21:13Z</time>
      </trkpt>
      <trkpt lat="48.46028" lon="2.67326">
        <ele>93</ele>
        <time>2019-03-10T09:21:33Z</time>
      </trkpt>
      <trkpt lat="48.46039" lon="2.67336">
        <ele>93</ele>
        <time>2019-03-10T09:21:44Z</time>
      </trkpt>
      <trkpt lat="48.46045" lon="2.67339">
        <ele>93</ele>
        <time>2019-03-10T09:21:48Z</time>
      </trkpt>
      <trkpt lat="48.46053" lon="2.67342">
        <ele>92</ele>
        <time>2019-03-10T09:21:55Z</time>
      </trkpt>
      <trkpt lat="48.46073" lon="2.67337">
        <ele>91</ele>
        <time>2019-03-10T09:22:11Z</time>
      </trkpt>
      <trkpt lat="48.46074" lon="2.67328">
        <ele>92</ele>
        <time>2019-03-10T09:22:19Z</time>
      </trkpt>
      <trkpt lat="48.46074" lon="2.6732">
        <ele>92</ele>
        <time>2019-03-10T09:22:25Z</time>
      </trkpt>
      <trkpt lat="48.46073" lon="2.67306">
        <ele>94</ele>
        <time>2019-03-10T09:22:33Z</time>
      </trkpt>
      <trkpt lat="48.46055" lon="2.67278">
        <ele>96</ele>
        <time>2019-03-10T09:23:04Z</time>
      </trkpt>
      <trkpt lat="48.46049" lon="2.67267">
        <ele>96</ele>
        <time>2019-03-10T09:23:10Z</time>
      </trkpt>
      <trkpt lat="48.46039" lon="2.67264">
        <ele>97</ele>
        <time>2019-03-10T09:23:18Z</time>
      </trkpt>
      <trkpt lat="48.4603" lon="2.67268">
        <ele>97</ele>
        <time>2019-03-10T09:23:27Z</time>
      </trkpt>
      <trkpt lat="48.46015" lon="2.67264">
        <ele>98</ele>
        <time>2019-03-10T09:23:42Z</time>
      </trkpt>
      <trkpt lat="48.46006" lon="2.67263">
        <ele>98</ele>
        <time>2019-03-10T09:23:50Z</time>
      </trkpt>
      <trkpt lat="48.45997" lon="2.6726">
        <ele>100</ele>
        <time>2019-03-10T09:23:59Z</time>
      </trkpt>
      <trkpt lat="48.45994" lon="2.67257">
        <ele>100</ele>
        <time>2019-03-10T09:24:04Z</time>
      </trkpt>
      <trkpt lat="48.45989" lon="2.67255">
        <ele>100</ele>
        <time>2019-03-10T09:24:09Z</time>
      </trkpt>
      <trkpt lat="48.45984" lon="2.67251">
        <ele>99</ele>
        <time>2019-03-10T09:24:13Z</time>
      </trkpt>
      <trkpt lat="48.45978" lon="2.67246">
        <ele>100</ele>
        <time>2019-03-10T09:24:22Z</time>
      </trkpt>
      <trkpt lat="48.45978" lon="2.67237">
        <ele>99</ele>
        <time>2019-03-10T09:24:44Z</time>
      </trkpt>
      <trkpt lat="48.4597" lon="2.67229">
        <ele>98</ele>
        <time>2019-03-10T09:24:54Z</time>
      </trkpt>
      <trkpt lat="48.45967" lon="2.67222">
        <ele>98</ele>
        <time>2019-03-10T09:25:02Z</time>
      </trkpt>
      <trkpt lat="48.45968" lon="2.67214">
        <ele>97</ele>
        <time>2019-03-10T09:25:08Z</time>
      </trkpt>
      <trkpt lat="48.4597" lon="2.67208">
        <ele>96</ele>
        <time>2019-03-10T09:25:16Z</time>
      </trkpt>
      <trkpt lat="48.45969" lon="2.67201">
        <ele>96</ele>
        <time>2019-03-10T09:25:26Z</time>
      </trkpt>
      <trkpt lat="48.45963" lon="2.67193">
        <ele>96</ele>
        <time>2019-03-10T09:25:45Z</time>
      </trkpt>
      <trkpt lat="48.4596" lon="2.67188">
        <ele>96</ele>
        <time>2019-03-10T09:25:50Z</time>
      </trkpt>
      <trkpt lat="48.45955" lon="2.67187">
        <ele>96</ele>
        <time>2019-03-10T09:25:53Z</time>
      </trkpt>
      <trkpt lat="48.45951" lon="2.67184">
        <ele>96</ele>
        <time>2019-03-10T09:25:57Z</time>
      </trkpt>
      <trkpt lat="48.45941" lon="2.67176">
        <ele>96</ele>
        <time>2019-03-10T09:26:05Z</time>
      </trkpt>
      <trkpt lat="48.45926" lon="2.6717">
        <ele>98</ele>
        <time>2019-03-10T09:26:17Z</time>
      </trkpt>
      <trkpt lat="48.45921" lon="2.67165">
        <ele>98</ele>
        <time>2019-03-10T09:26:22Z</time>
      </trkpt>
      <trkpt lat="48.45918" lon="2.6716">
        <ele>97</ele>
        <time>2019-03-10T09:26:26Z</time>
      </trkpt>
      <trkpt lat="48.45912" lon="2.67158">
        <ele>97</ele>
        <time>2019-03-10T09:26:30Z</time>
      </trkpt>
      <trkpt lat="48.45907" lon="2.67153">
        <ele>97</ele>
        <time>2019-03-10T09:26:33Z</time>
      </trkpt>
      <trkpt lat="48.459" lon="2.6715">
        <ele>99</ele>
        <time>2019-03-10T09:26:40Z</time>
      </trkpt>
      <trkpt lat="48.45894" lon="2.67148">
        <ele>99</ele>
        <time>2019-03-10T09:26:44Z</time>
      </trkpt>
      <trkpt lat="48.45885" lon="2.67143">
        <ele>98</ele>
        <time>2019-03-10T09:26:53Z</time>
      </trkpt>
      <trkpt lat="48.4588" lon="2.67141">
        <ele>98</ele>
        <time>2019-03-10T09:26:57Z</time>
      </trkpt>
      <trkpt lat="48.45875" lon="2.67138">
        <ele>99</ele>
        <time>2019-03-10T09:27:01Z</time>
      </trkpt>
      <trkpt lat="48.45866" lon="2.67131">
        <ele>99</ele>
        <time>2019-03-10T09:27:08Z</time>
      </trkpt>
      <trkpt lat="48.45862" lon="2.67129">
        <ele>99</ele>
        <time>2019-03-10T09:27:11Z</time>
      </trkpt>
      <trkpt lat="48.45849" lon="2.67115">
        <ele>99</ele>
        <time>2019-03-10T09:27:24Z</time>
      </trkpt>
      <trkpt lat="48.4584" lon="2.67108">
        <ele>99</ele>
        <time>2019-03-10T09:27:31Z</time>
      </trkpt>
      <trkpt lat="48.45835" lon="2.67107">
        <ele>99</ele>
        <time>2019-03-10T09:27:34Z</time>
      </trkpt>
      <trkpt lat="48.4583" lon="2.67104">
        <ele>100</ele>
        <time>2019-03-10T09:27:38Z</time>
      </trkpt>
      <trkpt lat="48.45829" lon="2.67096">
        <ele>101</ele>
        <time>2019-03-10T09:27:43Z</time>
      </trkpt>
      <trkpt lat="48.45823" lon="2.67094">
        <ele>101</ele>
        <time>2019-03-10T09:27:47Z</time>
      </trkpt>
      <trkpt lat="48.45814" lon="2.67089">
        <ele>100</ele>
        <time>2019-03-10T09:27:54Z</time>
      </trkpt>
      <trkpt lat="48.45809" lon="2.67087">
        <ele>100</ele>
        <time>2019-03-10T09:27:58Z</time>
      </trkpt>
      <trkpt lat="48.45804" lon="2.67084">
        <ele>100</ele>
        <time>2019-03-10T09:28:02Z</time>
      </trkpt>
      <trkpt lat="48.45795" lon="2.67076">
        <ele>99</ele>
        <time>2019-03-10T09:28:11Z</time>
      </trkpt>
      <trkpt lat="48.45757" lon="2.67047">
        <ele>99</ele>
        <time>2019-03-10T09:28:43Z</time>
      </trkpt>
      <trkpt lat="48.45741" lon="2.6704">
        <ele>100</ele>
        <time>2019-03-10T09:28:55Z</time>
      </trkpt>
      <trkpt lat="48.45737" lon="2.67034">
        <ele>101</ele>
        <time>2019-03-10T09:28:59Z</time>
      </trkpt>
      <trkpt lat="48.45732" lon="2.67032">
        <ele>101</ele>
        <time>2019-03-10T09:29:03Z</time>
      </trkpt>
      <trkpt lat="48.45712" lon="2.67039">
        <ele>100</ele>
        <time>2019-03-10T09:29:21Z</time>
      </trkpt>
      <trkpt lat="48.45708" lon="2.67059">
        <ele>98</ele>
        <time>2019-03-10T09:29:36Z</time>
      </trkpt>
      <trkpt lat="48.4569" lon="2.67112">
        <ele>96</ele>
        <time>2019-03-10T09:30:07Z</time>
      </trkpt>
      <trkpt lat="48.45686" lon="2.67118">
        <ele>96</ele>
        <time>2019-03-10T09:30:11Z</time>
      </trkpt>
      <trkpt lat="48.45684" lon="2.67125">
        <ele>96</ele>
        <time>2019-03-10T09:30:15Z</time>
      </trkpt>
      <trkpt lat="48.45683" lon="2.67132">
        <ele>96</ele>
        <time>2019-03-10T09:30:19Z</time>
      </trkpt>
      <trkpt lat="48.4568" lon="2.67138">
        <ele>96</ele>
        <time>2019-03-10T09:30:23Z</time>
      </trkpt>
      <trkpt lat="48.45674" lon="2.6716">
        <ele>96</ele>
        <time>2019-03-10T09:30:35Z</time>
      </trkpt>
      <trkpt lat="48.45672" lon="2.67168">
        <ele>96</ele>
        <time>2019-03-10T09:30:39Z</time>
      </trkpt>
      <trkpt lat="48.45668" lon="2.67183">
        <ele>96</ele>
        <time>2019-03-10T09:30:47Z</time>
      </trkpt>
      <trkpt lat="48.45662" lon="2.67204">
        <ele>97</ele>
        <time>2019-03-10T09:31:01Z</time>
      </trkpt>
      <trkpt lat="48.45658" lon="2.67221">
        <ele>97</ele>
        <time>2019-03-10T09:31:13Z</time>
      </trkpt>
      <trkpt lat="48.45635" lon="2.67293">
        <ele>97</ele>
        <time>2019-03-10T09:31:47Z</time>
      </trkpt>
      <trkpt lat="48.45633" lon="2.67299">
        <ele>97</ele>
        <time>2019-03-10T09:31:50Z</time>
      </trkpt>
      <trkpt lat="48.45631" lon="2.67305">
        <ele>97</ele>
        <time>2019-03-10T09:31:54Z</time>
      </trkpt>
      <trkpt lat="48.45629" lon="2.67312">
        <ele>98</ele>
        <time>2019-03-10T09:31:58Z</time>
      </trkpt>
      <trkpt lat="48.4561" lon="2.67358">
        <ele>100</ele>
        <time>2019-03-10T09:32:22Z</time>
      </trkpt>
      <trkpt lat="48.45606" lon="2.67374">
        <ele>99</ele>
        <time>2019-03-10T09:32:30Z</time>
      </trkpt>
      <trkpt lat="48.45604" lon="2.67381">
        <ele>99</ele>
        <time>2019-03-10T09:32:34Z</time>
      </trkpt>
      <trkpt lat="48.456" lon="2.67395">
        <ele>100</ele>
        <time>2019-03-10T09:32:43Z</time>
      </trkpt>
      <trkpt lat="48.45596" lon="2.67402">
        <ele>100</ele>
        <time>2019-03-10T09:32:47Z</time>
      </trkpt>
      <trkpt lat="48.45593" lon="2.67417">
        <ele>100</ele>
        <time>2019-03-10T09:32:55Z</time>
      </trkpt>
      <trkpt lat="48.4559" lon="2.67424">
        <ele>100</ele>
        <time>2019-03-10T09:32:59Z</time>
      </trkpt>
      <trkpt lat="48.45588" lon="2.67431">
        <ele>101</ele>
        <time>2019-03-10T09:33:03Z</time>
      </trkpt>
      <trkpt lat="48.45579" lon="2.67452">
        <ele>100</ele>
        <time>2019-03-10T09:33:14Z</time>
      </trkpt>
      <trkpt lat="48.45574" lon="2.67474">
        <ele>98</ele>
        <time>2019-03-10T09:33:25Z</time>
      </trkpt>
      <trkpt lat="48.45572" lon="2.67482">
        <ele>98</ele>
        <time>2019-03-10T09:33:29Z</time>
      </trkpt>
      <trkpt lat="48.45566" lon="2.67504">
        <ele>98</ele>
        <time>2019-03-10T09:33:41Z</time>
      </trkpt>
      <trkpt lat="48.45559" lon="2.67525">
        <ele>100</ele>
        <time>2019-03-10T09:33:53Z</time>
      </trkpt>
      <trkpt lat="48.45557" lon="2.67531">
        <ele>100</ele>
        <time>2019-03-10T09:33:57Z</time>
      </trkpt>
      <trkpt lat="48.45555" lon="2.67537">
        <ele>100</ele>
        <time>2019-03-10T09:34:01Z</time>
      </trkpt>
      <trkpt lat="48.45547" lon="2.67537">
        <ele>100</ele>
        <time>2019-03-10T09:34:10Z</time>
      </trkpt>
      <trkpt lat="48.45526" lon="2.67526">
        <ele>104</ele>
        <time>2019-03-10T09:34:26Z</time>
      </trkpt>
      <trkpt lat="48.45522" lon="2.67524">
        <ele>104</ele>
        <time>2019-03-10T09:34:31Z</time>
      </trkpt>
      <trkpt lat="48.45515" lon="2.67525">
        <ele>105</ele>
        <time>2019-03-10T09:34:39Z</time>
      </trkpt>
      <trkpt lat="48.45508" lon="2.67521">
        <ele>106</ele>
        <time>2019-03-10T09:34:52Z</time>
      </trkpt>
      <trkpt lat="48.45494" lon="2.67515">
        <ele>111</ele>
        <time>2019-03-10T09:35:10Z</time>
      </trkpt>
      <trkpt lat="48.4549" lon="2.67514">
        <ele>113</ele>
        <time>2019-03-10T09:35:15Z</time>
      </trkpt>
      <trkpt lat="48.45485" lon="2.6751">
        <ele>114</ele>
        <time>2019-03-10T09:35:23Z</time>
      </trkpt>
      <trkpt lat="48.45477" lon="2.67498">
        <ele>115</ele>
        <time>2019-03-10T09:35:34Z</time>
      </trkpt>
      <trkpt lat="48.4546" lon="2.67492">
        <ele>118</ele>
        <time>2019-03-10T09:35:53Z</time>
      </trkpt>
      <trkpt lat="48.45453" lon="2.67487">
        <ele>118</ele>
        <time>2019-03-10T09:36:01Z</time>
      </trkpt>
      <trkpt lat="48.45427" lon="2.67472">
        <ele>121</ele>
        <time>2019-03-10T09:36:25Z</time>
      </trkpt>
      <trkpt lat="48.45419" lon="2.67459">
        <ele>124</ele>
        <time>2019-03-10T09:36:37Z</time>
      </trkpt>
      <trkpt lat="48.45415" lon="2.67455">
        <ele>124</ele>
        <time>2019-03-10T09:36:42Z</time>
      </trkpt>
      <trkpt lat="48.4541" lon="2.67439">
        <ele>127</ele>
        <time>2019-03-10T09:36:53Z</time>
      </trkpt>
      <trkpt lat="48.45404" lon="2.67428">
        <ele>127</ele>
        <time>2019-03-10T09:37:01Z</time>
      </trkpt>
      <trkpt lat="48.45393" lon="2.67405">
        <ele>129</ele>
        <time>2019-03-10T09:37:17Z</time>
      </trkpt>
      <trkpt lat="48.45382" lon="2.67386">
        <ele>130</ele>
        <time>2019-03-10T09:37:32Z</time>
      </trkpt>
      <trkpt lat="48.45376" lon="2.67365">
        <ele>131</ele>
        <time>2019-03-10T09:37:45Z</time>
      </trkpt>
      <trkpt lat="48.45372" lon="2.67357">
        <ele>131</ele>
        <time>2019-03-10T09:37:52Z</time>
      </trkpt>
      <trkpt lat="48.45369" lon="2.67351">
        <ele>131</ele>
        <time>2019-03-10T09:37:57Z</time>
      </trkpt>
      <trkpt lat="48.45365" lon="2.67346">
        <ele>131</ele>
        <time>2019-03-10T09:38:01Z</time>
      </trkpt>
      <trkpt lat="48.45356" lon="2.67325">
        <ele>132</ele>
        <time>2019-03-10T09:38:15Z</time>
      </trkpt>
      <trkpt lat="48.45353" lon="2.67311">
        <ele>131</ele>
        <time>2019-03-10T09:38:24Z</time>
      </trkpt>
      <trkpt lat="48.45349" lon="2.67307">
        <ele>132</ele>
        <time>2019-03-10T09:38:28Z</time>
      </trkpt>
      <trkpt lat="48.45346" lon="2.673">
        <ele>132</ele>
        <time>2019-03-10T09:38:32Z</time>
      </trkpt>
      <trkpt lat="48.45341" lon="2.67286">
        <ele>134</ele>
        <time>2019-03-10T09:38:40Z</time>
      </trkpt>
      <trkpt lat="48.4534" lon="2.67278">
        <ele>134</ele>
        <time>2019-03-10T09:38:44Z</time>
      </trkpt>
      <trkpt lat="48.45336" lon="2.67271">
        <ele>134</ele>
        <time>2019-03-10T09:38:49Z</time>
      </trkpt>
      <trkpt lat="48.45335" lon="2.67264">
        <ele>135</ele>
        <time>2019-03-10T09:38:54Z</time>
      </trkpt>
      <trkpt lat="48.45332" lon="2.67257">
        <ele>135</ele>
        <time>2019-03-10T09:38:59Z</time>
      </trkpt>
      <trkpt lat="48.45332" lon="2.67249">
        <ele>135</ele>
        <time>2019-03-10T09:39:03Z</time>
      </trkpt>
      <trkpt lat="48.4533" lon="2.67242">
        <ele>135</ele>
        <time>2019-03-10T09:39:07Z</time>
      </trkpt>
      <trkpt lat="48.45326" lon="2.67234">
        <ele>135</ele>
        <time>2019-03-10T09:39:12Z</time>
      </trkpt>
      <trkpt lat="48.45323" lon="2.67228">
        <ele>135</ele>
        <time>2019-03-10T09:39:16Z</time>
      </trkpt>
      <trkpt lat="48.45321" lon="2.67221">
        <ele>135</ele>
        <time>2019-03-10T09:39:21Z</time>
      </trkpt>
      <trkpt lat="48.45322" lon="2.67214">
        <ele>135</ele>
        <time>2019-03-10T09:39:24Z</time>
      </trkpt>
      <trkpt lat="48.4532" lon="2.67207">
        <ele>135</ele>
        <time>2019-03-10T09:39:28Z</time>
      </trkpt>
      <trkpt lat="48.45319" lon="2.67198">
        <ele>136</ele>
        <time>2019-03-10T09:39:32Z</time>
      </trkpt>
      <trkpt lat="48.45321" lon="2.67192">
        <ele>136</ele>
        <time>2019-03-10T09:39:36Z</time>
      </trkpt>
      <trkpt lat="48.45318" lon="2.67176">
        <ele>134</ele>
        <time>2019-03-10T09:39:44Z</time>
      </trkpt>
      <trkpt lat="48.45316" lon="2.6717">
        <ele>134</ele>
        <time>2019-03-10T09:39:49Z</time>
      </trkpt>
      <trkpt lat="48.45311" lon="2.67167">
        <ele>135</ele>
        <time>2019-03-10T09:40:00Z</time>
      </trkpt>
      <trkpt lat="48.45312" lon="2.67161">
        <ele>134</ele>
        <time>2019-03-10T09:41:30Z</time>
      </trkpt>
      <trkpt lat="48.45303" lon="2.67165">
        <ele>133</ele>
        <time>2019-03-10T09:45:52Z</time>
      </trkpt>
      <trkpt lat="48.45296" lon="2.67163">
        <ele>131</ele>
        <time>2019-03-10T09:46:01Z</time>
      </trkpt>
      <trkpt lat="48.45291" lon="2.67159">
        <ele>132</ele>
        <time>2019-03-10T09:46:05Z</time>
      </trkpt>
      <trkpt lat="48.45286" lon="2.67155">
        <ele>133</ele>
        <time>2019-03-10T09:46:12Z</time>
      </trkpt>
      <trkpt lat="48.4528" lon="2.67154">
        <ele>133</ele>
        <time>2019-03-10T09:46:17Z</time>
      </trkpt>
      <trkpt lat="48.45276" lon="2.67157">
        <ele>133</ele>
        <time>2019-03-10T09:46:21Z</time>
      </trkpt>
      <trkpt lat="48.45274" lon="2.67166">
        <ele>132</ele>
        <time>2019-03-10T09:46:29Z</time>
      </trkpt>
      <trkpt lat="48.4527" lon="2.67169">
        <ele>134</ele>
        <time>2019-03-10T09:46:34Z</time>
      </trkpt>
      <trkpt lat="48.45265" lon="2.67177">
        <ele>134</ele>
        <time>2019-03-10T09:46:41Z</time>
      </trkpt>
      <trkpt lat="48.45262" lon="2.67184">
        <ele>133</ele>
        <time>2019-03-10T09:46:46Z</time>
      </trkpt>
      <trkpt lat="48.45258" lon="2.67187">
        <ele>133</ele>
        <time>2019-03-10T09:46:49Z</time>
      </trkpt>
      <trkpt lat="48.45253" lon="2.67189">
        <ele>135</ele>
        <time>2019-03-10T09:46:53Z</time>
      </trkpt>
      <trkpt lat="48.45249" lon="2.67192">
        <ele>135</ele>
        <time>2019-03-10T09:47:00Z</time>
      </trkpt>
      <trkpt lat="48.45245" lon="2.67189">
        <ele>135</ele>
        <time>2019-03-10T09:47:05Z</time>
      </trkpt>
      <trkpt lat="48.4524" lon="2.67194">
        <ele>135</ele>
        <time>2019-03-10T09:47:10Z</time>
      </trkpt>
      <trkpt lat="48.45236" lon="2.67198">
        <ele>135</ele>
        <time>2019-03-10T09:47:15Z</time>
      </trkpt>
      <trkpt lat="48.45232" lon="2.67201">
        <ele>135</ele>
        <time>2019-03-10T09:47:19Z</time>
      </trkpt>
      <trkpt lat="48.45222" lon="2.67206">
        <ele>134</ele>
        <time>2019-03-10T09:47:26Z</time>
      </trkpt>
      <trkpt lat="48.45218" lon="2.6721">
        <ele>135</ele>
        <time>2019-03-10T09:47:30Z</time>
      </trkpt>
      <trkpt lat="48.45191" lon="2.67231">
        <ele>134</ele>
        <time>2019-03-10T09:47:55Z</time>
      </trkpt>
      <trkpt lat="48.45182" lon="2.67236">
        <ele>134</ele>
        <time>2019-03-10T09:48:02Z</time>
      </trkpt>
      <trkpt lat="48.45164" lon="2.67246">
        <ele>131</ele>
        <time>2019-03-10T09:48:18Z</time>
      </trkpt>
      <trkpt lat="48.45161" lon="2.6725">
        <ele>131</ele>
        <time>2019-03-10T09:48:22Z</time>
      </trkpt>
      <trkpt lat="48.45156" lon="2.67255">
        <ele>130</ele>
        <time>2019-03-10T09:48:27Z</time>
      </trkpt>
      <trkpt lat="48.45152" lon="2.6726">
        <ele>131</ele>
        <time>2019-03-10T09:48:31Z</time>
      </trkpt>
      <trkpt lat="48.45149" lon="2.67266">
        <ele>131</ele>
        <time>2019-03-10T09:48:35Z</time>
      </trkpt>
      <trkpt lat="48.4514" lon="2.67286">
        <ele>132</ele>
        <time>2019-03-10T09:48:46Z</time>
      </trkpt>
      <trkpt lat="48.45134" lon="2.67297">
        <ele>133</ele>
        <time>2019-03-10T09:48:55Z</time>
      </trkpt>
      <trkpt lat="48.4513" lon="2.67301">
        <ele>133</ele>
        <time>2019-03-10T09:48:59Z</time>
      </trkpt>
      <trkpt lat="48.45125" lon="2.67301">
        <ele>133</ele>
        <time>2019-03-10T09:49:03Z</time>
      </trkpt>
      <trkpt lat="48.45115" lon="2.67308">
        <ele>135</ele>
        <time>2019-03-10T09:49:13Z</time>
      </trkpt>
      <trkpt lat="48.45111" lon="2.67311">
        <ele>135</ele>
        <time>2019-03-10T09:49:17Z</time>
      </trkpt>
      <trkpt lat="48.45107" lon="2.67317">
        <ele>135</ele>
        <time>2019-03-10T09:49:21Z</time>
      </trkpt>
      <trkpt lat="48.45085" lon="2.67356">
        <ele>130</ele>
        <time>2019-03-10T09:49:53Z</time>
      </trkpt>
      <trkpt lat="48.45083" lon="2.6737">
        <ele>128</ele>
        <time>2019-03-10T09:50:01Z</time>
      </trkpt>
      <trkpt lat="48.45082" lon="2.67377">
        <ele>127</ele>
        <time>2019-03-10T09:50:06Z</time>
      </trkpt>
      <trkpt lat="48.45078" lon="2.67382">
        <ele>127</ele>
        <time>2019-03-10T09:50:11Z</time>
      </trkpt>
      <trkpt lat="48.45071" lon="2.67395">
        <ele>129</ele>
        <time>2019-03-10T09:50:20Z</time>
      </trkpt>
      <trkpt lat="48.4507" lon="2.67403">
        <ele>130</ele>
        <time>2019-03-10T09:50:25Z</time>
      </trkpt>
      <trkpt lat="48.45069" lon="2.67417">
        <ele>130</ele>
        <time>2019-03-10T09:50:35Z</time>
      </trkpt>
      <trkpt lat="48.45069" lon="2.67424">
        <ele>130</ele>
        <time>2019-03-10T09:50:39Z</time>
      </trkpt>
      <trkpt lat="48.4507" lon="2.67431">
        <ele>130</ele>
        <time>2019-03-10T09:50:44Z</time>
      </trkpt>
      <trkpt lat="48.45073" lon="2.67438">
        <ele>130</ele>
        <time>2019-03-10T09:50:49Z</time>
      </trkpt>
      <trkpt lat="48.45074" lon="2.67445">
        <ele>129</ele>
        <time>2019-03-10T09:50:53Z</time>
      </trkpt>
      <trkpt lat="48.45074" lon="2.67453">
        <ele>129</ele>
        <time>2019-03-10T09:50:58Z</time>
      </trkpt>
      <trkpt lat="48.45076" lon="2.67477">
        <ele>132</ele>
        <time>2019-03-10T09:51:10Z</time>
      </trkpt>
      <trkpt lat="48.45078" lon="2.67484">
        <ele>131</ele>
        <time>2019-03-10T09:51:15Z</time>
      </trkpt>
      <trkpt lat="48.45087" lon="2.67493">
        <ele>128</ele>
        <time>2019-03-10T09:51:27Z</time>
      </trkpt>
      <trkpt lat="48.45091" lon="2.67499">
        <ele>127</ele>
        <time>2019-03-10T09:51:31Z</time>
      </trkpt>
      <trkpt lat="48.45094" lon="2.67509">
        <ele>128</ele>
        <time>2019-03-10T09:51:38Z</time>
      </trkpt>
      <trkpt lat="48.45099" lon="2.67525">
        <ele>128</ele>
        <time>2019-03-10T09:51:46Z</time>
      </trkpt>
      <trkpt lat="48.45102" lon="2.6754">
        <ele>130</ele>
        <time>2019-03-10T09:51:54Z</time>
      </trkpt>
      <trkpt lat="48.45104" lon="2.67546">
        <ele>129</ele>
        <time>2019-03-10T09:51:58Z</time>
      </trkpt>
      <trkpt lat="48.45108" lon="2.67552">
        <ele>128</ele>
        <time>2019-03-10T09:52:03Z</time>
      </trkpt>
      <trkpt lat="48.4511" lon="2.6756">
        <ele>127</ele>
        <time>2019-03-10T09:52:07Z</time>
      </trkpt>
      <trkpt lat="48.45113" lon="2.67569">
        <ele>126</ele>
        <time>2019-03-10T09:52:16Z</time>
      </trkpt>
      <trkpt lat="48.45114" lon="2.67598">
        <ele>125</ele>
        <time>2019-03-10T09:52:31Z</time>
      </trkpt>
      <trkpt lat="48.45113" lon="2.67606">
        <ele>125</ele>
        <time>2019-03-10T09:52:34Z</time>
      </trkpt>
      <trkpt lat="48.45114" lon="2.67614">
        <ele>127</ele>
        <time>2019-03-10T09:52:38Z</time>
      </trkpt>
      <trkpt lat="48.45114" lon="2.67621">
        <ele>127</ele>
        <time>2019-03-10T09:52:42Z</time>
      </trkpt>
      <trkpt lat="48.45115" lon="2.67628">
        <ele>128</ele>
        <time>2019-03-10T09:52:47Z</time>
      </trkpt>
      <trkpt lat="48.45122" lon="2.67647">
        <ele>127</ele>
        <time>2019-03-10T09:52:59Z</time>
      </trkpt>
      <trkpt lat="48.45123" lon="2.67655">
        <ele>126</ele>
        <time>2019-03-10T09:53:04Z</time>
      </trkpt>
      <trkpt lat="48.45125" lon="2.67664">
        <ele>127</ele>
        <time>2019-03-10T09:53:09Z</time>
      </trkpt>
      <trkpt lat="48.45125" lon="2.67692">
        <ele>128</ele>
        <time>2019-03-10T09:53:25Z</time>
      </trkpt>
      <trkpt lat="48.45124" lon="2.67699">
        <ele>128</ele>
        <time>2019-03-10T09:53:30Z</time>
      </trkpt>
      <trkpt lat="48.45122" lon="2.67706">
        <ele>127</ele>
        <time>2019-03-10T09:53:35Z</time>
      </trkpt>
      <trkpt lat="48.45118" lon="2.67712">
        <ele>129</ele>
        <time>2019-03-10T09:53:42Z</time>
      </trkpt>
      <trkpt lat="48.45114" lon="2.67717">
        <ele>129</ele>
        <time>2019-03-10T09:53:46Z</time>
      </trkpt>
      <trkpt lat="48.4511" lon="2.6772">
        <ele>129</ele>
        <time>2019-03-10T09:53:50Z</time>
      </trkpt>
      <trkpt lat="48.45105" lon="2.67722">
        <ele>128</ele>
        <time>2019-03-10T09:53:54Z</time>
      </trkpt>
      <trkpt lat="48.451" lon="2.67725">
        <ele>128</ele>
        <time>2019-03-10T09:53:57Z</time>
      </trkpt>
      <trkpt lat="48.45091" lon="2.67729">
        <ele>129</ele>
        <time>2019-03-10T09:54:04Z</time>
      </trkpt>
      <trkpt lat="48.45081" lon="2.67728">
        <ele>127</ele>
        <time>2019-03-10T09:54:11Z</time>
      </trkpt>
      <trkpt lat="48.45076" lon="2.67728">
        <ele>126</ele>
        <time>2019-03-10T09:54:14Z</time>
      </trkpt>
      <trkpt lat="48.4507" lon="2.67726">
        <ele>126</ele>
        <time>2019-03-10T09:54:19Z</time>
      </trkpt>
      <trkpt lat="48.45058" lon="2.67714">
        <ele>127</ele>
        <time>2019-03-10T09:54:32Z</time>
      </trkpt>
      <trkpt lat="48.45052" lon="2.67709">
        <ele>128</ele>
        <time>2019-03-10T09:54:38Z</time>
      </trkpt>
      <trkpt lat="48.45044" lon="2.67704">
        <ele>128</ele>
        <time>2019-03-10T09:54:47Z</time>
      </trkpt>
      <trkpt lat="48.45035" lon="2.67692">
        <ele>130</ele>
        <time>2019-03-10T09:54:59Z</time>
      </trkpt>
      <trkpt lat="48.45029" lon="2.6768">
        <ele>131</ele>
        <time>2019-03-10T09:55:09Z</time>
      </trkpt>
      <trkpt lat="48.45024" lon="2.67668">
        <ele>131</ele>
        <time>2019-03-10T09:55:17Z</time>
      </trkpt>
      <trkpt lat="48.45021" lon="2.67662">
        <ele>131</ele>
        <time>2019-03-10T09:55:21Z</time>
      </trkpt>
      <trkpt lat="48.45014" lon="2.67648">
        <ele>131</ele>
        <time>2019-03-10T09:55:28Z</time>
      </trkpt>
      <trkpt lat="48.45011" lon="2.67641">
        <ele>131</ele>
        <time>2019-03-10T09:55:33Z</time>
      </trkpt>
      <trkpt lat="48.45005" lon="2.67629">
        <ele>131</ele>
        <time>2019-03-10T09:55:40Z</time>
      </trkpt>
      <trkpt lat="48.44997" lon="2.67619">
        <ele>131</ele>
        <time>2019-03-10T09:55:47Z</time>
      </trkpt>
      <trkpt lat="48.44994" lon="2.67606">
        <ele>131</ele>
        <time>2019-03-10T09:55:53Z</time>
      </trkpt>
      <trkpt lat="48.44988" lon="2.67601">
        <ele>130</ele>
        <time>2019-03-10T09:55:57Z</time>
      </trkpt>
      <trkpt lat="48.44977" lon="2.67606">
        <ele>131</ele>
        <time>2019-03-10T09:56:05Z</time>
      </trkpt>
      <trkpt lat="48.44968" lon="2.67612">
        <ele>128</ele>
        <time>2019-03-10T09:56:14Z</time>
      </trkpt>
      <trkpt lat="48.44963" lon="2.67613">
        <ele>128</ele>
        <time>2019-03-10T09:56:18Z</time>
      </trkpt>
      <trkpt lat="48.44957" lon="2.67616">
        <ele>130</ele>
        <time>2019-03-10T09:56:22Z</time>
      </trkpt>
      <trkpt lat="48.44952" lon="2.67616">
        <ele>130</ele>
        <time>2019-03-10T09:56:25Z</time>
      </trkpt>
      <trkpt lat="48.44948" lon="2.67614">
        <ele>129</ele>
        <time>2019-03-10T09:56:29Z</time>
      </trkpt>
      <trkpt lat="48.44937" lon="2.67613">
        <ele>128</ele>
        <time>2019-03-10T09:56:37Z</time>
      </trkpt>
      <trkpt lat="48.44933" lon="2.6761">
        <ele>128</ele>
        <time>2019-03-10T09:56:41Z</time>
      </trkpt>
      <trkpt lat="48.44929" lon="2.676">
        <ele>129</ele>
        <time>2019-03-10T09:56:52Z</time>
      </trkpt>
      <trkpt lat="48.44921" lon="2.67606">
        <ele>126</ele>
        <time>2019-03-10T09:57:09Z</time>
      </trkpt>
      <trkpt lat="48.44913" lon="2.67608">
        <ele>127</ele>
        <time>2019-03-10T09:57:18Z</time>
      </trkpt>
      <trkpt lat="48.44909" lon="2.6761">
        <ele>126</ele>
        <time>2019-03-10T09:57:22Z</time>
      </trkpt>
      <trkpt lat="48.44904" lon="2.67612">
        <ele>127</ele>
        <time>2019-03-10T09:57:26Z</time>
      </trkpt>
      <trkpt lat="48.44892" lon="2.67618">
        <ele>132</ele>
        <time>2019-03-10T09:57:38Z</time>
      </trkpt>
      <trkpt lat="48.44873" lon="2.67645">
        <ele>130</ele>
        <time>2019-03-10T09:58:01Z</time>
      </trkpt>
      <trkpt lat="48.44869" lon="2.67653">
        <ele>131</ele>
        <time>2019-03-10T09:58:07Z</time>
      </trkpt>
      <trkpt lat="48.44866" lon="2.67669">
        <ele>130</ele>
        <time>2019-03-10T09:58:16Z</time>
      </trkpt>
      <trkpt lat="48.44861" lon="2.67682">
        <ele>130</ele>
        <time>2019-03-10T09:58:22Z</time>
      </trkpt>
      <trkpt lat="48.44857" lon="2.67698">
        <ele>130</ele>
        <time>2019-03-10T09:58:32Z</time>
      </trkpt>
      <trkpt lat="48.44853" lon="2.67712">
        <ele>130</ele>
        <time>2019-03-10T09:58:40Z</time>
      </trkpt>
      <trkpt lat="48.44847" lon="2.67723">
        <ele>129</ele>
        <time>2019-03-10T09:58:47Z</time>
      </trkpt>
      <trkpt lat="48.44842" lon="2.67734">
        <ele>130</ele>
        <time>2019-03-10T09:58:53Z</time>
      </trkpt>
      <trkpt lat="48.44838" lon="2.67739">
        <ele>130</ele>
        <time>2019-03-10T09:58:56Z</time>
      </trkpt>
      <trkpt lat="48.44834" lon="2.67739">
        <ele>130</ele>
        <time>2019-03-10T09:59:01Z</time>
      </trkpt>
      <trkpt lat="48.44829" lon="2.67738">
        <ele>130</ele>
        <time>2019-03-10T09:59:05Z</time>
      </trkpt>
      <trkpt lat="48.44819" lon="2.67742">
        <ele>128</ele>
        <time>2019-03-10T09:59:13Z</time>
      </trkpt>
      <trkpt lat="48.44813" lon="2.67745">
        <ele>128</ele>
        <time>2019-03-10T09:59:17Z</time>
      </trkpt>
      <trkpt lat="48.44803" lon="2.67746">
        <ele>127</ele>
        <time>2019-03-10T09:59:24Z</time>
      </trkpt>
      <trkpt lat="48.44798" lon="2.67743">
        <ele>127</ele>
        <time>2019-03-10T09:59:28Z</time>
      </trkpt>
      <trkpt lat="48.44791" lon="2.67732">
        <ele>126</ele>
        <time>2019-03-10T09:59:35Z</time>
      </trkpt>
      <trkpt lat="48.44787" lon="2.67727">
        <ele>126</ele>
        <time>2019-03-10T09:59:39Z</time>
      </trkpt>
      <trkpt lat="48.44785" lon="2.67719">
        <ele>126</ele>
        <time>2019-03-10T09:59:42Z</time>
      </trkpt>
      <trkpt lat="48.44783" lon="2.67712">
        <ele>126</ele>
        <time>2019-03-10T09:59:45Z</time>
      </trkpt>
      <trkpt lat="48.4478" lon="2.67707">
        <ele>126</ele>
        <time>2019-03-10T09:59:48Z</time>
      </trkpt>
      <trkpt lat="48.44768" lon="2.67692">
        <ele>125</ele>
        <time>2019-03-10T09:59:59Z</time>
      </trkpt>
      <trkpt lat="48.44763" lon="2.67686">
        <ele>123</ele>
        <time>2019-03-10T10:00:05Z</time>
      </trkpt>
      <trkpt lat="48.44739" lon="2.67667">
        <ele>119</ele>
        <time>2019-03-10T10:00:29Z</time>
      </trkpt>
      <trkpt lat="48.44736" lon="2.67661">
        <ele>117</ele>
        <time>2019-03-10T10:00:40Z</time>
      </trkpt>
      <trkpt lat="48.44732" lon="2.67656">
        <ele>117</ele>
        <time>2019-03-10T10:00:52Z</time>
      </trkpt>
      <trkpt lat="48.44727" lon="2.67653">
        <ele>118</ele>
        <time>2019-03-10T10:01:28Z</time>
      </trkpt>
      <trkpt lat="48.44723" lon="2.67644">
        <ele>117</ele>
        <time>2019-03-10T10:01:59Z</time>
      </trkpt>
      <trkpt lat="48.44721" lon="2.67637">
        <ele>118</ele>
        <time>2019-03-10T10:02:05Z</time>
      </trkpt>
      <trkpt lat="48.44705" lon="2.67627">
        <ele>122</ele>
        <time>2019-03-10T10:02:25Z</time>
      </trkpt>
      <trkpt lat="48.447" lon="2.6762">
        <ele>124</ele>
        <time>2019-03-10T10:02:33Z</time>
      </trkpt>
      <trkpt lat="48.44697" lon="2.67612">
        <ele>125</ele>
        <time>2019-03-10T10:02:41Z</time>
      </trkpt>
      <trkpt lat="48.44692" lon="2.67608">
        <ele>125</ele>
        <time>2019-03-10T10:02:47Z</time>
      </trkpt>
      <trkpt lat="48.44684" lon="2.67601">
        <ele>126</ele>
        <time>2019-03-10T10:02:56Z</time>
      </trkpt>
      <trkpt lat="48.44675" lon="2.67597">
        <ele>127</ele>
        <time>2019-03-10T10:03:05Z</time>
      </trkpt>
      <trkpt lat="48.44663" lon="2.67596">
        <ele>122</ele>
        <time>2019-03-10T10:03:17Z</time>
      </trkpt>
      <trkpt lat="48.44659" lon="2.67593">
        <ele>122</ele>
        <time>2019-03-10T10:03:21Z</time>
      </trkpt>
      <trkpt lat="48.44652" lon="2.6759">
        <ele>121</ele>
        <time>2019-03-10T10:03:29Z</time>
      </trkpt>
      <trkpt lat="48.4465" lon="2.67584">
        <ele>120</ele>
        <time>2019-03-10T10:03:32Z</time>
      </trkpt>
      <trkpt lat="48.44649" lon="2.67576">
        <ele>119</ele>
        <time>2019-03-10T10:03:35Z</time>
      </trkpt>
      <trkpt lat="48.4465" lon="2.67568">
        <ele>119</ele>
        <time>2019-03-10T10:03:39Z</time>
      </trkpt>
      <trkpt lat="48.44651" lon="2.67561">
        <ele>119</ele>
        <time>2019-03-10T10:03:43Z</time>
      </trkpt>
      <trkpt lat="48.4465" lon="2.67555">
        <ele>121</ele>
        <time>2019-03-10T10:03:51Z</time>
      </trkpt>
      <trkpt lat="48.44646" lon="2.67549">
        <ele>120</ele>
        <time>2019-03-10T10:03:57Z</time>
      </trkpt>
      <trkpt lat="48.4464" lon="2.67548">
        <ele>119</ele>
        <time>2019-03-10T10:04:03Z</time>
      </trkpt>
      <trkpt lat="48.44629" lon="2.67547">
        <ele>118</ele>
        <time>2019-03-10T10:04:11Z</time>
      </trkpt>
      <trkpt lat="48.44625" lon="2.67546">
        <ele>118</ele>
        <time>2019-03-10T10:04:14Z</time>
      </trkpt>
      <trkpt lat="48.44619" lon="2.67544">
        <ele>118</ele>
        <time>2019-03-10T10:04:19Z</time>
      </trkpt>
      <trkpt lat="48.44614" lon="2.67544">
        <ele>118</ele>
        <time>2019-03-10T10:04:23Z</time>
      </trkpt>
      <trkpt lat="48.44607" lon="2.67548">
        <ele>122</ele>
        <time>2019-03-10T10:04:29Z</time>
      </trkpt>
      <trkpt lat="48.44602" lon="2.67548">
        <ele>122</ele>
        <time>2019-03-10T10:04:33Z</time>
      </trkpt>
      <trkpt lat="48.44598" lon="2.67547">
        <ele>121</ele>
        <time>2019-03-10T10:04:37Z</time>
      </trkpt>
      <trkpt lat="48.44592" lon="2.67547">
        <ele>121</ele>
        <time>2019-03-10T10:04:41Z</time>
      </trkpt>
      <trkpt lat="48.44586" lon="2.67547">
        <ele>122</ele>
        <time>2019-03-10T10:04:45Z</time>
      </trkpt>
      <trkpt lat="48.44581" lon="2.67546">
        <ele>123</ele>
        <time>2019-03-10T10:04:50Z</time>
      </trkpt>
      <trkpt lat="48.44574" lon="2.67559">
        <ele>126</ele>
        <time>2019-03-10T10:05:10Z</time>
      </trkpt>
      <trkpt lat="48.44561" lon="2.67562">
        <ele>127</ele>
        <time>2019-03-10T10:05:25Z</time>
      </trkpt>
      <trkpt lat="48.44557" lon="2.67567">
        <ele>127</ele>
        <time>2019-03-10T10:05:30Z</time>
      </trkpt>
      <trkpt lat="48.44549" lon="2.67576">
        <ele>129</ele>
        <time>2019-03-10T10:05:38Z</time>
      </trkpt>
      <trkpt lat="48.44544" lon="2.67575">
        <ele>128</ele>
        <time>2019-03-10T10:05:42Z</time>
      </trkpt>
      <trkpt lat="48.44538" lon="2.67576">
        <ele>129</ele>
        <time>2019-03-10T10:05:46Z</time>
      </trkpt>
      <trkpt lat="48.44534" lon="2.67576">
        <ele>129</ele>
        <time>2019-03-10T10:05:50Z</time>
      </trkpt>
      <trkpt lat="48.44527" lon="2.67574">
        <ele>129</ele>
        <time>2019-03-10T10:05:57Z</time>
      </trkpt>
      <trkpt lat="48.44522" lon="2.67573">
        <ele>129</ele>
        <time>2019-03-10T10:06:02Z</time>
      </trkpt>
      <trkpt lat="48.44518" lon="2.67573">
        <ele>128</ele>
        <time>2019-03-10T10:06:07Z</time>
      </trkpt>
      <trkpt lat="48.44508" lon="2.67567">
        <ele>128</ele>
        <time>2019-03-10T10:06:15Z</time>
      </trkpt>
      <trkpt lat="48.44504" lon="2.67562">
        <ele>127</ele>
        <time>2019-03-10T10:06:20Z</time>
      </trkpt>
      <trkpt lat="48.44497" lon="2.67564">
        <ele>126</ele>
        <time>2019-03-10T10:06:28Z</time>
      </trkpt>
      <trkpt lat="48.44495" lon="2.6757">
        <ele>126</ele>
        <time>2019-03-10T10:06:33Z</time>
      </trkpt>
      <trkpt lat="48.44494" lon="2.6758">
        <ele>126</ele>
        <time>2019-03-10T10:06:38Z</time>
      </trkpt>
      <trkpt lat="48.44491" lon="2.67589">
        <ele>125</ele>
        <time>2019-03-10T10:06:45Z</time>
      </trkpt>
      <trkpt lat="48.44491" lon="2.67599">
        <ele>125</ele>
        <time>2019-03-10T10:06:51Z</time>
      </trkpt>
      <trkpt lat="48.44499" lon="2.67609">
        <ele>126</ele>
        <time>2019-03-10T10:06:59Z</time>
      </trkpt>
      <trkpt lat="48.44497" lon="2.67616">
        <ele>128</ele>
        <time>2019-03-10T10:07:07Z</time>
      </trkpt>
      <trkpt lat="48.44492" lon="2.67618">
        <ele>127</ele>
        <time>2019-03-10T10:07:13Z</time>
      </trkpt>
      <trkpt lat="48.44489" lon="2.67624">
        <ele>126</ele>
        <time>2019-03-10T10:07:18Z</time>
      </trkpt>
      <trkpt lat="48.44486" lon="2.67638">
        <ele>126</ele>
        <time>2019-03-10T10:07:27Z</time>
      </trkpt>
      <trkpt lat="48.44491" lon="2.67659">
        <ele>124</ele>
        <time>2019-03-10T10:07:39Z</time>
      </trkpt>
      <trkpt lat="48.44489" lon="2.6768">
        <ele>125</ele>
        <time>2019-03-10T10:07:55Z</time>
      </trkpt>
      <trkpt lat="48.44492" lon="2.67695">
        <ele>124</ele>
        <time>2019-03-10T10:08:05Z</time>
      </trkpt>
      <trkpt lat="48.44495" lon="2.67709">
        <ele>125</ele>
        <time>2019-03-10T10:08:13Z</time>
      </trkpt>
      <trkpt lat="48.44496" lon="2.67723">
        <ele>124</ele>
        <time>2019-03-10T10:08:21Z</time>
      </trkpt>
      <trkpt lat="48.44493" lon="2.67745">
        <ele>126</ele>
        <time>2019-03-10T10:08:34Z</time>
      </trkpt>
      <trkpt lat="48.44497" lon="2.67753">
        <ele>126</ele>
        <time>2019-03-10T10:08:40Z</time>
      </trkpt>
      <trkpt lat="48.44513" lon="2.6776">
        <ele>127</ele>
        <time>2019-03-10T10:09:01Z</time>
      </trkpt>
      <trkpt lat="48.44519" lon="2.67765">
        <ele>126</ele>
        <time>2019-03-10T10:09:08Z</time>
      </trkpt>
      <trkpt lat="48.44526" lon="2.67766">
        <ele>126</ele>
        <time>2019-03-10T10:09:14Z</time>
      </trkpt>
      <trkpt lat="48.44534" lon="2.67767">
        <ele>125</ele>
        <time>2019-03-10T10:09:18Z</time>
      </trkpt>
      <trkpt lat="48.4454" lon="2.67766">
        <ele>124</ele>
        <time>2019-03-10T10:09:21Z</time>
      </trkpt>
      <trkpt lat="48.44544" lon="2.67764">
        <ele>124</ele>
        <time>2019-03-10T10:09:24Z</time>
      </trkpt>
      <trkpt lat="48.44549" lon="2.6776">
        <ele>124</ele>
        <time>2019-03-10T10:09:27Z</time>
      </trkpt>
      <trkpt lat="48.44554" lon="2.67759">
        <ele>124</ele>
        <time>2019-03-10T10:09:30Z</time>
      </trkpt>
      <trkpt lat="48.44565" lon="2.67763">
        <ele>122</ele>
        <time>2019-03-10T10:09:36Z</time>
      </trkpt>
      <trkpt lat="48.44569" lon="2.67767">
        <ele>121</ele>
        <time>2019-03-10T10:09:39Z</time>
      </trkpt>
      <trkpt lat="48.4457" lon="2.67775">
        <ele>121</ele>
        <time>2019-03-10T10:09:44Z</time>
      </trkpt>
      <trkpt lat="48.44577" lon="2.67792">
        <ele>119</ele>
        <time>2019-03-10T10:10:00Z</time>
      </trkpt>
      <trkpt lat="48.44568" lon="2.67827">
        <ele>121</ele>
        <time>2019-03-10T10:10:22Z</time>
      </trkpt>
      <trkpt lat="48.44567" lon="2.67835">
        <ele>122</ele>
        <time>2019-03-10T10:10:26Z</time>
      </trkpt>
      <trkpt lat="48.44568" lon="2.67852">
        <ele>125</ele>
        <time>2019-03-10T10:10:37Z</time>
      </trkpt>
      <trkpt lat="48.44568" lon="2.67859">
        <ele>126</ele>
        <time>2019-03-10T10:10:42Z</time>
      </trkpt>
      <trkpt lat="48.44569" lon="2.67869">
        <ele>124</ele>
        <time>2019-03-10T10:10:50Z</time>
      </trkpt>
      <trkpt lat="48.44571" lon="2.67877">
        <ele>126</ele>
        <time>2019-03-10T10:10:55Z</time>
      </trkpt>
      <trkpt lat="48.44571" lon="2.67888">
        <ele>127</ele>
        <time>2019-03-10T10:11:02Z</time>
      </trkpt>
      <trkpt lat="48.44573" lon="2.67894">
        <ele>127</ele>
        <time>2019-03-10T10:11:06Z</time>
      </trkpt>
      <trkpt lat="48.44576" lon="2.67901">
        <ele>128</ele>
        <time>2019-03-10T10:11:10Z</time>
      </trkpt>
      <trkpt lat="48.4458" lon="2.67913">
        <ele>127</ele>
        <time>2019-03-10T10:11:19Z</time>
      </trkpt>
      <trkpt lat="48.44585" lon="2.67926">
        <ele>127</ele>
        <time>2019-03-10T10:11:28Z</time>
      </trkpt>
      <trkpt lat="48.44586" lon="2.67936">
        <ele>127</ele>
        <time>2019-03-10T10:11:34Z</time>
      </trkpt>
      <trkpt lat="48.44586" lon="2.67944">
        <ele>127</ele>
        <time>2019-03-10T10:11:38Z</time>
      </trkpt>
      <trkpt lat="48.44585" lon="2.67959">
        <ele>127</ele>
        <time>2019-03-10T10:11:46Z</time>
      </trkpt>
      <trkpt lat="48.44587" lon="2.67973">
        <ele>127</ele>
        <time>2019-03-10T10:11:55Z</time>
      </trkpt>
      <trkpt lat="48.44592" lon="2.67985">
        <ele>128</ele>
        <time>2019-03-10T10:12:02Z</time>
      </trkpt>
      <trkpt lat="48.44595" lon="2.67997">
        <ele>128</ele>
        <time>2019-03-10T10:12:14Z</time>
      </trkpt>
      <trkpt lat="48.44598" lon="2.68004">
        <ele>128</ele>
        <time>2019-03-10T10:12:23Z</time>
      </trkpt>
      <trkpt lat="48.446" lon="2.6801">
        <ele>128</ele>
        <time>2019-03-10T10:12:32Z</time>
      </trkpt>
      <trkpt lat="48.44599" lon="2.68021">
        <ele>128</ele>
        <time>2019-03-10T10:12:56Z</time>
      </trkpt>
      <trkpt lat="48.44606" lon="2.68023">
        <ele>128</ele>
        <time>2019-03-10T10:13:14Z</time>
      </trkpt>
      <trkpt lat="48.44615" lon="2.68031">
        <ele>127</ele>
        <time>2019-03-10T10:13:26Z</time>
      </trkpt>
      <trkpt lat="48.44619" lon="2.68034">
        <ele>127</ele>
        <time>2019-03-10T10:13:31Z</time>
      </trkpt>
      <trkpt lat="48.44628" lon="2.68043">
        <ele>126</ele>
        <time>2019-03-10T10:13:40Z</time>
      </trkpt>
      <trkpt lat="48.44637" lon="2.68054">
        <ele>126</ele>
        <time>2019-03-10T10:13:49Z</time>
      </trkpt>
      <trkpt lat="48.44641" lon="2.68059">
        <ele>126</ele>
        <time>2019-03-10T10:13:54Z</time>
      </trkpt>
      <trkpt lat="48.44646" lon="2.68062">
        <ele>125</ele>
        <time>2019-03-10T10:13:58Z</time>
      </trkpt>
      <trkpt lat="48.4465" lon="2.68067">
        <ele>125</ele>
        <time>2019-03-10T10:14:03Z</time>
      </trkpt>
      <trkpt lat="48.44651" lon="2.68074">
        <ele>126</ele>
        <time>2019-03-10T10:14:08Z</time>
      </trkpt>
      <trkpt lat="48.4467" lon="2.68113">
        <ele>126</ele>
        <time>2019-03-10T10:14:35Z</time>
      </trkpt>
      <trkpt lat="48.44681" lon="2.6813">
        <ele>125</ele>
        <time>2019-03-10T10:14:47Z</time>
      </trkpt>
      <trkpt lat="48.44693" lon="2.68144">
        <ele>125</ele>
        <time>2019-03-10T10:15:00Z</time>
      </trkpt>
      <trkpt lat="48.44698" lon="2.68145">
        <ele>125</ele>
        <time>2019-03-10T10:15:04Z</time>
      </trkpt>
      <trkpt lat="48.44723" lon="2.68141">
        <ele>124</ele>
        <time>2019-03-10T10:15:23Z</time>
      </trkpt>
      <trkpt lat="48.44729" lon="2.68143">
        <ele>123</ele>
        <time>2019-03-10T10:15:26Z</time>
      </trkpt>
      <trkpt lat="48.44733" lon="2.68147">
        <ele>123</ele>
        <time>2019-03-10T10:15:30Z</time>
      </trkpt>
      <trkpt lat="48.44735" lon="2.68156">
        <ele>123</ele>
        <time>2019-03-10T10:15:38Z</time>
      </trkpt>
      <trkpt lat="48.44755" lon="2.6818">
        <ele>122</ele>
        <time>2019-03-10T10:16:03Z</time>
      </trkpt>
      <trkpt lat="48.44758" lon="2.68186">
        <ele>122</ele>
        <time>2019-03-10T10:16:06Z</time>
      </trkpt>
      <trkpt lat="48.44765" lon="2.68191">
        <ele>121</ele>
        <time>2019-03-10T10:16:13Z</time>
      </trkpt>
      <trkpt lat="48.4477" lon="2.68195">
        <ele>121</ele>
        <time>2019-03-10T10:16:16Z</time>
      </trkpt>
      <trkpt lat="48.44777" lon="2.68202">
        <ele>122</ele>
        <time>2019-03-10T10:16:21Z</time>
      </trkpt>
      <trkpt lat="48.4478" lon="2.68208">
        <ele>121</ele>
        <time>2019-03-10T10:16:24Z</time>
      </trkpt>
      <trkpt lat="48.44782" lon="2.68214">
        <ele>121</ele>
        <time>2019-03-10T10:16:28Z</time>
      </trkpt>
      <trkpt lat="48.44786" lon="2.68219">
        <ele>121</ele>
        <time>2019-03-10T10:16:32Z</time>
      </trkpt>
      <trkpt lat="48.44799" lon="2.68233">
        <ele>121</ele>
        <time>2019-03-10T10:16:48Z</time>
      </trkpt>
      <trkpt lat="48.44809" lon="2.68242">
        <ele>121</ele>
        <time>2019-03-10T10:16:58Z</time>
      </trkpt>
      <trkpt lat="48.44816" lon="2.68252">
        <ele>120</ele>
        <time>2019-03-10T10:17:05Z</time>
      </trkpt>
      <trkpt lat="48.44819" lon="2.68259">
        <ele>121</ele>
        <time>2019-03-10T10:17:09Z</time>
      </trkpt>
      <trkpt lat="48.4482" lon="2.68266">
        <ele>122</ele>
        <time>2019-03-10T10:17:13Z</time>
      </trkpt>
      <trkpt lat="48.44822" lon="2.68274">
        <ele>122</ele>
        <time>2019-03-10T10:17:18Z</time>
      </trkpt>
      <trkpt lat="48.44827" lon="2.68289">
        <ele>123</ele>
        <time>2019-03-10T10:17:30Z</time>
      </trkpt>
      <trkpt lat="48.44835" lon="2.68297">
        <ele>122</ele>
        <time>2019-03-10T10:17:39Z</time>
      </trkpt>
      <trkpt lat="48.44841" lon="2.68306">
        <ele>121</ele>
        <time>2019-03-10T10:17:46Z</time>
      </trkpt>
      <trkpt lat="48.44845" lon="2.6831">
        <ele>121</ele>
        <time>2019-03-10T10:17:51Z</time>
      </trkpt>
      <trkpt lat="48.44849" lon="2.68315">
        <ele>121</ele>
        <time>2019-03-10T10:17:56Z</time>
      </trkpt>
      <trkpt lat="48.44856" lon="2.6832">
        <ele>119</ele>
        <time>2019-03-10T10:18:04Z</time>
      </trkpt>
      <trkpt lat="48.44862" lon="2.68323">
        <ele>119</ele>
        <time>2019-03-10T10:18:10Z</time>
      </trkpt>
      <trkpt lat="48.44872" lon="2.68326">
        <ele>117</ele>
        <time>2019-03-10T10:18:18Z</time>
      </trkpt>
      <trkpt lat="48.44879" lon="2.68337">
        <ele>115</ele>
        <time>2019-03-10T10:18:27Z</time>
      </trkpt>
      <trkpt lat="48.44883" lon="2.68339">
        <ele>117</ele>
        <time>2019-03-10T10:18:31Z</time>
      </trkpt>
      <trkpt lat="48.44887" lon="2.68345">
        <ele>117</ele>
        <time>2019-03-10T10:18:35Z</time>
      </trkpt>
      <trkpt lat="48.44888" lon="2.68357">
        <ele>117</ele>
        <time>2019-03-10T10:18:44Z</time>
      </trkpt>
      <trkpt lat="48.44886" lon="2.68363">
        <ele>116</ele>
        <time>2019-03-10T10:18:49Z</time>
      </trkpt>
      <trkpt lat="48.44882" lon="2.68369">
        <ele>118</ele>
        <time>2019-03-10T10:18:57Z</time>
      </trkpt>
      <trkpt lat="48.44877" lon="2.68371">
        <ele>118</ele>
        <time>2019-03-10T10:19:02Z</time>
      </trkpt>
      <trkpt lat="48.44873" lon="2.68375">
        <ele>120</ele>
        <time>2019-03-10T10:19:06Z</time>
      </trkpt>
      <trkpt lat="48.44869" lon="2.68381">
        <ele>121</ele>
        <time>2019-03-10T10:19:10Z</time>
      </trkpt>
      <trkpt lat="48.44865" lon="2.68384">
        <ele>121</ele>
        <time>2019-03-10T10:19:15Z</time>
      </trkpt>
      <trkpt lat="48.4485" lon="2.68388">
        <ele>121</ele>
        <time>2019-03-10T10:19:27Z</time>
      </trkpt>
      <trkpt lat="48.4484" lon="2.68389">
        <ele>120</ele>
        <time>2019-03-10T10:19:36Z</time>
      </trkpt>
      <trkpt lat="48.44834" lon="2.68398">
        <ele>120</ele>
        <time>2019-03-10T10:19:47Z</time>
      </trkpt>
      <trkpt lat="48.44825" lon="2.68408">
        <ele>119</ele>
        <time>2019-03-10T10:19:57Z</time>
      </trkpt>
      <trkpt lat="48.44822" lon="2.68414">
        <ele>119</ele>
        <time>2019-03-10T10:20:01Z</time>
      </trkpt>
      <trkpt lat="48.44818" lon="2.68418">
        <ele>119</ele>
        <time>2019-03-10T10:20:06Z</time>
      </trkpt>
      <trkpt lat="48.44808" lon="2.68428">
        <ele>117</ele>
        <time>2019-03-10T10:20:18Z</time>
      </trkpt>
      <trkpt lat="48.44804" lon="2.68432">
        <ele>118</ele>
        <time>2019-03-10T10:20:23Z</time>
      </trkpt>
      <trkpt lat="48.44792" lon="2.6844">
        <ele>116</ele>
        <time>2019-03-10T10:20:38Z</time>
      </trkpt>
      <trkpt lat="48.44787" lon="2.68441">
        <ele>115</ele>
        <time>2019-03-10T10:20:42Z</time>
      </trkpt>
      <trkpt lat="48.44782" lon="2.6844">
        <ele>115</ele>
        <time>2019-03-10T10:20:47Z</time>
      </trkpt>
      <trkpt lat="48.44778" lon="2.68439">
        <ele>115</ele>
        <time>2019-03-10T10:20:52Z</time>
      </trkpt>
      <trkpt lat="48.44773" lon="2.68436">
        <ele>116</ele>
        <time>2019-03-10T10:20:57Z</time>
      </trkpt>
      <trkpt lat="48.44764" lon="2.68425">
        <ele>117</ele>
        <time>2019-03-10T10:21:09Z</time>
      </trkpt>
      <trkpt lat="48.44761" lon="2.6842">
        <ele>117</ele>
        <time>2019-03-10T10:21:13Z</time>
      </trkpt>
      <trkpt lat="48.44757" lon="2.68417">
        <ele>117</ele>
        <time>2019-03-10T10:21:17Z</time>
      </trkpt>
      <trkpt lat="48.44748" lon="2.68407">
        <ele>116</ele>
        <time>2019-03-10T10:21:26Z</time>
      </trkpt>
      <trkpt lat="48.44746" lon="2.68401">
        <ele>115</ele>
        <time>2019-03-10T10:21:30Z</time>
      </trkpt>
      <trkpt lat="48.44741" lon="2.68406">
        <ele>114</ele>
        <time>2019-03-10T10:21:39Z</time>
      </trkpt>
      <trkpt lat="48.44745" lon="2.6843">
        <ele>111</ele>
        <time>2019-03-10T10:21:57Z</time>
      </trkpt>
      <trkpt lat="48.44747" lon="2.68436">
        <ele>110</ele>
        <time>2019-03-10T10:22:01Z</time>
      </trkpt>
      <trkpt lat="48.44749" lon="2.68443">
        <ele>111</ele>
        <time>2019-03-10T10:22:05Z</time>
      </trkpt>
      <trkpt lat="48.44752" lon="2.6845">
        <ele>111</ele>
        <time>2019-03-10T10:22:09Z</time>
      </trkpt>
      <trkpt lat="48.44762" lon="2.68467">
        <ele>109</ele>
        <time>2019-03-10T10:22:21Z</time>
      </trkpt>
      <trkpt lat="48.44776" lon="2.68476">
        <ele>106</ele>
        <time>2019-03-10T10:22:31Z</time>
      </trkpt>
      <trkpt lat="48.44787" lon="2.6848">
        <ele>106</ele>
        <time>2019-03-10T10:22:39Z</time>
      </trkpt>
      <trkpt lat="48.44811" lon="2.68485">
        <ele>103</ele>
        <time>2019-03-10T10:23:01Z</time>
      </trkpt>
      <trkpt lat="48.44815" lon="2.68488">
        <ele>103</ele>
        <time>2019-03-10T10:23:05Z</time>
      </trkpt>
      <trkpt lat="48.4482" lon="2.68489">
        <ele>102</ele>
        <time>2019-03-10T10:23:09Z</time>
      </trkpt>
      <trkpt lat="48.44829" lon="2.68495">
        <ele>101</ele>
        <time>2019-03-10T10:23:16Z</time>
      </trkpt>
      <trkpt lat="48.44836" lon="2.68506">
        <ele>99</ele>
        <time>2019-03-10T10:23:25Z</time>
      </trkpt>
      <trkpt lat="48.44845" lon="2.68513">
        <ele>98</ele>
        <time>2019-03-10T10:23:31Z</time>
      </trkpt>
      <trkpt lat="48.44854" lon="2.68518">
        <ele>97</ele>
        <time>2019-03-10T10:23:39Z</time>
      </trkpt>
      <trkpt lat="48.44859" lon="2.68522">
        <ele>95</ele>
        <time>2019-03-10T10:23:49Z</time>
      </trkpt>
      <trkpt lat="48.44868" lon="2.68529">
        <ele>92</ele>
        <time>2019-03-10T10:24:01Z</time>
      </trkpt>
      <trkpt lat="48.44877" lon="2.68541">
        <ele>90</ele>
        <time>2019-03-10T10:24:15Z</time>
      </trkpt>
      <trkpt lat="48.4488" lon="2.68546">
        <ele>90</ele>
        <time>2019-03-10T10:24:19Z</time>
      </trkpt>
      <trkpt lat="48.44883" lon="2.68552">
        <ele>90</ele>
        <time>2019-03-10T10:24:23Z</time>
      </trkpt>
      <trkpt lat="48.44889" lon="2.68564">
        <ele>87</ele>
        <time>2019-03-10T10:24:32Z</time>
      </trkpt>
      <trkpt lat="48.44891" lon="2.68571">
        <ele>89</ele>
        <time>2019-03-10T10:24:37Z</time>
      </trkpt>
      <trkpt lat="48.44893" lon="2.68578">
        <ele>89</ele>
        <time>2019-03-10T10:24:41Z</time>
      </trkpt>
      <trkpt lat="48.44894" lon="2.68598">
        <ele>85</ele>
        <time>2019-03-10T10:24:51Z</time>
      </trkpt>
      <trkpt lat="48.44896" lon="2.68605">
        <ele>84</ele>
        <time>2019-03-10T10:24:55Z</time>
      </trkpt>
      <trkpt lat="48.44899" lon="2.68612">
        <ele>84</ele>
        <time>2019-03-10T10:25:00Z</time>
      </trkpt>
      <trkpt lat="48.44916" lon="2.68631">
        <ele>84</ele>
        <time>2019-03-10T10:25:16Z</time>
      </trkpt>
      <trkpt lat="48.44934" lon="2.68651">
        <ele>81</ele>
        <time>2019-03-10T10:25:30Z</time>
      </trkpt>
      <trkpt lat="48.44939" lon="2.68655">
        <ele>82</ele>
        <time>2019-03-10T10:25:34Z</time>
      </trkpt>
      <trkpt lat="48.44945" lon="2.6866">
        <ele>82</ele>
        <time>2019-03-10T10:25:37Z</time>
      </trkpt>
      <trkpt lat="48.4495" lon="2.68665">
        <ele>82</ele>
        <time>2019-03-10T10:25:41Z</time>
      </trkpt>
      <trkpt lat="48.44954" lon="2.68669">
        <ele>81</ele>
        <time>2019-03-10T10:25:45Z</time>
      </trkpt>
      <trkpt lat="48.44957" lon="2.68674">
        <ele>82</ele>
        <time>2019-03-10T10:25:50Z</time>
      </trkpt>
      <trkpt lat="48.44961" lon="2.68681">
        <ele>82</ele>
        <time>2019-03-10T10:25:55Z</time>
      </trkpt>
      <trkpt lat="48.44966" lon="2.68693">
        <ele>81</ele>
        <time>2019-03-10T10:26:04Z</time>
      </trkpt>
      <trkpt lat="48.44972" lon="2.68694">
        <ele>78</ele>
        <time>2019-03-10T10:26:13Z</time>
      </trkpt>
      <trkpt lat="48.44977" lon="2.68695">
        <ele>78</ele>
        <time>2019-03-10T10:26:17Z</time>
      </trkpt>
      <trkpt lat="48.44982" lon="2.68698">
        <ele>78</ele>
        <time>2019-03-10T10:26:21Z</time>
      </trkpt>
      <trkpt lat="48.44987" lon="2.68704">
        <ele>78</ele>
        <time>2019-03-10T10:26:28Z</time>
      </trkpt>
      <trkpt lat="48.44999" lon="2.68719">
        <ele>79</ele>
        <time>2019-03-10T10:26:40Z</time>
      </trkpt>
      <trkpt lat="48.45004" lon="2.68722">
        <ele>80</ele>
        <time>2019-03-10T10:26:54Z</time>
      </trkpt>
      <trkpt lat="48.45009" lon="2.68724">
        <ele>80</ele>
        <time>2019-03-10T10:27:00Z</time>
      </trkpt>
      <trkpt lat="48.45014" lon="2.68725">
        <ele>79</ele>
        <time>2019-03-10T10:27:04Z</time>
      </trkpt>
      <trkpt lat="48.45041" lon="2.6873">
        <ele>78</ele>
        <time>2019-03-10T10:27:23Z</time>
      </trkpt>
      <trkpt lat="48.45045" lon="2.68729">
        <ele>78</ele>
        <time>2019-03-10T10:27:28Z</time>
      </trkpt>
      <trkpt lat="48.4506" lon="2.68735">
        <ele>79</ele>
        <time>2019-03-10T10:27:47Z</time>
      </trkpt>
      <trkpt lat="48.45091" lon="2.68733">
        <ele>81</ele>
        <time>2019-03-10T10:28:13Z</time>
      </trkpt>
      <trkpt lat="48.451" lon="2.68739">
        <ele>82</ele>
        <time>2019-03-10T10:28:25Z</time>
      </trkpt>
      <trkpt lat="48.45106" lon="2.68737">
        <ele>83</ele>
        <time>2019-03-10T10:28:31Z</time>
      </trkpt>
      <trkpt lat="48.45115" lon="2.68738">
        <ele>85</ele>
        <time>2019-03-10T10:28:39Z</time>
      </trkpt>
      <trkpt lat="48.45122" lon="2.68739">
        <ele>85</ele>
        <time>2019-03-10T10:28:49Z</time>
      </trkpt>
      <trkpt lat="48.45127" lon="2.68737">
        <ele>85</ele>
        <time>2019-03-10T10:28:55Z</time>
      </trkpt>
      <trkpt lat="48.45132" lon="2.68736">
        <ele>85</ele>
        <time>2019-03-10T10:29:00Z</time>
      </trkpt>
      <trkpt lat="48.45137" lon="2.68737">
        <ele>87</ele>
        <time>2019-03-10T10:29:08Z</time>
      </trkpt>
      <trkpt lat="48.45143" lon="2.68737">
        <ele>91</ele>
        <time>2019-03-10T10:29:15Z</time>
      </trkpt>
      <trkpt lat="48.45147" lon="2.68736">
        <ele>90</ele>
        <time>2019-03-10T10:29:20Z</time>
      </trkpt>
      <trkpt lat="48.45152" lon="2.68736">
        <ele>90</ele>
        <time>2019-03-10T10:29:25Z</time>
      </trkpt>
      <trkpt lat="48.45165" lon="2.68742">
        <ele>96</ele>
        <time>2019-03-10T10:29:44Z</time>
      </trkpt>
      <trkpt lat="48.45169" lon="2.68745">
        <ele>97</ele>
        <time>2019-03-10T10:29:50Z</time>
      </trkpt>
      <trkpt lat="48.45175" lon="2.68742">
        <ele>99</ele>
        <time>2019-03-10T10:29:57Z</time>
      </trkpt>
      <trkpt lat="48.45181" lon="2.68741">
        <ele>100</ele>
        <time>2019-03-10T10:30:06Z</time>
      </trkpt>
      <trkpt lat="48.45187" lon="2.6874">
        <ele>100</ele>
        <time>2019-03-10T10:30:12Z</time>
      </trkpt>
      <trkpt lat="48.45199" lon="2.68737">
        <ele>102</ele>
        <time>2019-03-10T10:30:27Z</time>
      </trkpt>
      <trkpt lat="48.45209" lon="2.68753">
        <ele>107</ele>
        <time>2019-03-10T10:30:51Z</time>
      </trkpt>
      <trkpt lat="48.45207" lon="2.68791">
        <ele>113</ele>
        <time>2019-03-10T10:31:22Z</time>
      </trkpt>
      <trkpt lat="48.45208" lon="2.68799">
        <ele>113</ele>
        <time>2019-03-10T10:31:40Z</time>
      </trkpt>
      <trkpt lat="48.45203" lon="2.68813">
        <ele>114</ele>
        <time>2019-03-10T10:32:04Z</time>
      </trkpt>
      <trkpt lat="48.45205" lon="2.68807">
        <ele>114</ele>
        <time>2019-03-10T10:32:22Z</time>
      </trkpt>
      <trkpt lat="48.45205" lon="2.68813">
        <ele>115</ele>
        <time>2019-03-10T10:33:22Z</time>
      </trkpt>
      <trkpt lat="48.45207" lon="2.68819">
        <ele>117</ele>
        <time>2019-03-10T10:39:29Z</time>
      </trkpt>
      <trkpt lat="48.4521" lon="2.68828">
        <ele>118</ele>
        <time>2019-03-10T10:40:47Z</time>
      </trkpt>
      <trkpt lat="48.45211" lon="2.68837">
        <ele>115</ele>
        <time>2019-03-10T10:41:05Z</time>
      </trkpt>
      <trkpt lat="48.45209" lon="2.6887">
        <ele>108</ele>
        <time>2019-03-10T10:41:34Z</time>
      </trkpt>
      <trkpt lat="48.4521" lon="2.68882">
        <ele>106</ele>
        <time>2019-03-10T10:41:45Z</time>
      </trkpt>
      <trkpt lat="48.45207" lon="2.68895">
        <ele>103</ele>
        <time>2019-03-10T10:41:57Z</time>
      </trkpt>
      <trkpt lat="48.45203" lon="2.68919">
        <ele>98</ele>
        <time>2019-03-10T10:42:13Z</time>
      </trkpt>
      <trkpt lat="48.452" lon="2.68926">
        <ele>97</ele>
        <time>2019-03-10T10:42:19Z</time>
      </trkpt>
      <trkpt lat="48.45197" lon="2.68932">
        <ele>97</ele>
        <time>2019-03-10T10:42:23Z</time>
      </trkpt>
      <trkpt lat="48.45193" lon="2.68938">
        <ele>97</ele>
        <time>2019-03-10T10:42:28Z</time>
      </trkpt>
      <trkpt lat="48.45184" lon="2.68959">
        <ele>94</ele>
        <time>2019-03-10T10:42:40Z</time>
      </trkpt>
      <trkpt lat="48.4516" lon="2.68992">
        <ele>86</ele>
        <time>2019-03-10T10:43:05Z</time>
      </trkpt>
      <trkpt lat="48.45149" lon="2.69008">
        <ele>87</ele>
        <time>2019-03-10T10:43:19Z</time>
      </trkpt>
      <trkpt lat="48.4514" lon="2.69019">
        <ele>86</ele>
        <time>2019-03-10T10:43:29Z</time>
      </trkpt>
      <trkpt lat="48.45135" lon="2.69027">
        <ele>84</ele>
        <time>2019-03-10T10:43:38Z</time>
      </trkpt>
      <trkpt lat="48.4513" lon="2.69032">
        <ele>83</ele>
        <time>2019-03-10T10:43:43Z</time>
      </trkpt>
      <trkpt lat="48.45125" lon="2.69035">
        <ele>83</ele>
        <time>2019-03-10T10:43:47Z</time>
      </trkpt>
      <trkpt lat="48.45121" lon="2.69038">
        <ele>84</ele>
        <time>2019-03-10T10:43:50Z</time>
      </trkpt>
      <trkpt lat="48.45117" lon="2.69043">
        <ele>84</ele>
        <time>2019-03-10T10:43:54Z</time>
      </trkpt>
      <trkpt lat="48.45113" lon="2.69056">
        <ele>83</ele>
        <time>2019-03-10T10:44:02Z</time>
      </trkpt>
      <trkpt lat="48.45109" lon="2.69071">
        <ele>84</ele>
        <time>2019-03-10T10:44:10Z</time>
      </trkpt>
      <trkpt lat="48.45107" lon="2.69085">
        <ele>83</ele>
        <time>2019-03-10T10:44:17Z</time>
      </trkpt>
      <trkpt lat="48.45116" lon="2.69112">
        <ele>85</ele>
        <time>2019-03-10T10:44:30Z</time>
      </trkpt>
      <trkpt lat="48.45113" lon="2.69127">
        <ele>83</ele>
        <time>2019-03-10T10:44:35Z</time>
      </trkpt>
      <trkpt lat="48.45109" lon="2.69137">
        <ele>82</ele>
        <time>2019-03-10T10:44:39Z</time>
      </trkpt>
      <trkpt lat="48.45106" lon="2.69144">
        <ele>83</ele>
        <time>2019-03-10T10:44:42Z</time>
      </trkpt>
      <trkpt lat="48.45099" lon="2.69155">
        <ele>82</ele>
        <time>2019-03-10T10:44:50Z</time>
      </trkpt>
      <trkpt lat="48.45089" lon="2.69162">
        <ele>83</ele>
        <time>2019-03-10T10:44:57Z</time>
      </trkpt>
      <trkpt lat="48.45084" lon="2.69165">
        <ele>83</ele>
        <time>2019-03-10T10:45:01Z</time>
      </trkpt>
      <trkpt lat="48.45079" lon="2.69165">
        <ele>83</ele>
        <time>2019-03-10T10:45:05Z</time>
      </trkpt>
      <trkpt lat="48.45074" lon="2.69166">
        <ele>83</ele>
        <time>2019-03-10T10:45:09Z</time>
      </trkpt>
      <trkpt lat="48.4507" lon="2.6917">
        <ele>83</ele>
        <time>2019-03-10T10:45:14Z</time>
      </trkpt>
      <trkpt lat="48.45059" lon="2.69174">
        <ele>83</ele>
        <time>2019-03-10T10:45:22Z</time>
      </trkpt>
      <trkpt lat="48.45044" lon="2.69178">
        <ele>81</ele>
        <time>2019-03-10T10:45:34Z</time>
      </trkpt>
      <trkpt lat="48.45033" lon="2.69184">
        <ele>83</ele>
        <time>2019-03-10T10:45:41Z</time>
      </trkpt>
      <trkpt lat="48.45024" lon="2.69187">
        <ele>82</ele>
        <time>2019-03-10T10:45:47Z</time>
      </trkpt>
      <trkpt lat="48.45019" lon="2.6919">
        <ele>82</ele>
        <time>2019-03-10T10:45:51Z</time>
      </trkpt>
      <trkpt lat="48.45015" lon="2.69194">
        <ele>83</ele>
        <time>2019-03-10T10:45:55Z</time>
      </trkpt>
      <trkpt lat="48.45005" lon="2.69205">
        <ele>83</ele>
        <time>2019-03-10T10:46:03Z</time>
      </trkpt>
      <trkpt lat="48.44991" lon="2.6921">
        <ele>82</ele>
        <time>2019-03-10T10:46:13Z</time>
      </trkpt>
      <trkpt lat="48.44987" lon="2.69215">
        <ele>82</ele>
        <time>2019-03-10T10:46:18Z</time>
      </trkpt>
      <trkpt lat="48.44983" lon="2.6922">
        <ele>82</ele>
        <time>2019-03-10T10:46:22Z</time>
      </trkpt>
      <trkpt lat="48.44981" lon="2.69228">
        <ele>83</ele>
        <time>2019-03-10T10:46:29Z</time>
      </trkpt>
      <trkpt lat="48.44974" lon="2.6924">
        <ele>81</ele>
        <time>2019-03-10T10:46:38Z</time>
      </trkpt>
      <trkpt lat="48.44973" lon="2.69248">
        <ele>81</ele>
        <time>2019-03-10T10:46:42Z</time>
      </trkpt>
      <trkpt lat="48.44958" lon="2.69272">
        <ele>82</ele>
        <time>2019-03-10T10:47:00Z</time>
      </trkpt>
      <trkpt lat="48.44954" lon="2.69273">
        <ele>82</ele>
        <time>2019-03-10T10:47:03Z</time>
      </trkpt>
      <trkpt lat="48.4495" lon="2.69279">
        <ele>81</ele>
        <time>2019-03-10T10:47:08Z</time>
      </trkpt>
      <trkpt lat="48.44947" lon="2.69285">
        <ele>81</ele>
        <time>2019-03-10T10:47:13Z</time>
      </trkpt>
      <trkpt lat="48.44939" lon="2.69294">
        <ele>83</ele>
        <time>2019-03-10T10:47:20Z</time>
      </trkpt>
      <trkpt lat="48.44932" lon="2.69305">
        <ele>83</ele>
        <time>2019-03-10T10:47:28Z</time>
      </trkpt>
      <trkpt lat="48.44929" lon="2.6931">
        <ele>83</ele>
        <time>2019-03-10T10:47:32Z</time>
      </trkpt>
      <trkpt lat="48.44913" lon="2.69325">
        <ele>81</ele>
        <time>2019-03-10T10:47:50Z</time>
      </trkpt>
      <trkpt lat="48.44891" lon="2.69345">
        <ele>82</ele>
        <time>2019-03-10T10:48:09Z</time>
      </trkpt>
      <trkpt lat="48.44885" lon="2.69347">
        <ele>82</ele>
        <time>2019-03-10T10:48:14Z</time>
      </trkpt>
      <trkpt lat="48.44876" lon="2.69349">
        <ele>84</ele>
        <time>2019-03-10T10:48:21Z</time>
      </trkpt>
      <trkpt lat="48.44865" lon="2.69349">
        <ele>82</ele>
        <time>2019-03-10T10:48:28Z</time>
      </trkpt>
      <trkpt lat="48.4486" lon="2.69349">
        <ele>82</ele>
        <time>2019-03-10T10:48:32Z</time>
      </trkpt>
      <trkpt lat="48.4485" lon="2.69353">
        <ele>82</ele>
        <time>2019-03-10T10:48:40Z</time>
      </trkpt>
      <trkpt lat="48.44841" lon="2.69361">
        <ele>83</ele>
        <time>2019-03-10T10:48:47Z</time>
      </trkpt>
      <trkpt lat="48.44826" lon="2.69363">
        <ele>81</ele>
        <time>2019-03-10T10:48:58Z</time>
      </trkpt>
      <trkpt lat="48.44822" lon="2.69365">
        <ele>82</ele>
        <time>2019-03-10T10:49:02Z</time>
      </trkpt>
      <trkpt lat="48.44817" lon="2.69367">
        <ele>81</ele>
        <time>2019-03-10T10:49:05Z</time>
      </trkpt>
      <trkpt lat="48.44813" lon="2.69369">
        <ele>81</ele>
        <time>2019-03-10T10:49:08Z</time>
      </trkpt>
      <trkpt lat="48.44802" lon="2.69369">
        <ele>80</ele>
        <time>2019-03-10T10:49:16Z</time>
      </trkpt>
      <trkpt lat="48.44798" lon="2.69371">
        <ele>81</ele>
        <time>2019-03-10T10:49:20Z</time>
      </trkpt>
      <trkpt lat="48.44792" lon="2.69374">
        <ele>82</ele>
        <time>2019-03-10T10:49:24Z</time>
      </trkpt>
      <trkpt lat="48.44783" lon="2.69375">
        <ele>81</ele>
        <time>2019-03-10T10:49:30Z</time>
      </trkpt>
      <trkpt lat="48.44778" lon="2.69373">
        <ele>81</ele>
        <time>2019-03-10T10:49:34Z</time>
      </trkpt>
      <trkpt lat="48.44774" lon="2.69368">
        <ele>80</ele>
        <time>2019-03-10T10:49:38Z</time>
      </trkpt>
      <trkpt lat="48.4477" lon="2.69365">
        <ele>81</ele>
        <time>2019-03-10T10:49:43Z</time>
      </trkpt>
      <trkpt lat="48.44763" lon="2.69361">
        <ele>81</ele>
        <time>2019-03-10T10:50:08Z</time>
      </trkpt>
      <trkpt lat="48.44757" lon="2.69361">
        <ele>80</ele>
        <time>2019-03-10T10:50:12Z</time>
      </trkpt>
      <trkpt lat="48.44751" lon="2.69358">
        <ele>80</ele>
        <time>2019-03-10T10:50:28Z</time>
      </trkpt>
      <trkpt lat="48.44748" lon="2.69366">
        <ele>81</ele>
        <time>2019-03-10T10:51:10Z</time>
      </trkpt>
      <trkpt lat="48.44743" lon="2.69368">
        <ele>79</ele>
        <time>2019-03-10T10:51:16Z</time>
      </trkpt>
      <trkpt lat="48.44729" lon="2.69375">
        <ele>79</ele>
        <time>2019-03-10T10:51:31Z</time>
      </trkpt>
      <trkpt lat="48.44722" lon="2.69385">
        <ele>81</ele>
        <time>2019-03-10T10:51:43Z</time>
      </trkpt>
      <trkpt lat="48.44716" lon="2.69388">
        <ele>80</ele>
        <time>2019-03-10T10:51:50Z</time>
      </trkpt>
      <trkpt lat="48.44712" lon="2.6939">
        <ele>81</ele>
        <time>2019-03-10T10:51:54Z</time>
      </trkpt>
      <trkpt lat="48.44702" lon="2.69393">
        <ele>81</ele>
        <time>2019-03-10T10:52:02Z</time>
      </trkpt>
      <trkpt lat="48.44691" lon="2.69391">
        <ele>81</ele>
        <time>2019-03-10T10:52:10Z</time>
      </trkpt>
      <trkpt lat="48.44686" lon="2.69388">
        <ele>81</ele>
        <time>2019-03-10T10:52:15Z</time>
      </trkpt>
      <trkpt lat="48.44678" lon="2.69384">
        <ele>80</ele>
        <time>2019-03-10T10:52:20Z</time>
      </trkpt>
      <trkpt lat="48.44669" lon="2.69378">
        <ele>81</ele>
        <time>2019-03-10T10:52:27Z</time>
      </trkpt>
      <trkpt lat="48.44665" lon="2.69374">
        <ele>80</ele>
        <time>2019-03-10T10:52:31Z</time>
      </trkpt>
      <trkpt lat="48.4466" lon="2.69372">
        <ele>80</ele>
        <time>2019-03-10T10:52:35Z</time>
      </trkpt>
      <trkpt lat="48.4465" lon="2.69362">
        <ele>80</ele>
        <time>2019-03-10T10:52:45Z</time>
      </trkpt>
      <trkpt lat="48.44644" lon="2.69352">
        <ele>82</ele>
        <time>2019-03-10T10:52:51Z</time>
      </trkpt>
      <trkpt lat="48.44639" lon="2.69346">
        <ele>82</ele>
        <time>2019-03-10T10:52:56Z</time>
      </trkpt>
      <trkpt lat="48.44635" lon="2.69343">
        <ele>81</ele>
        <time>2019-03-10T10:52:59Z</time>
      </trkpt>
      <trkpt lat="48.44617" lon="2.69328">
        <ele>80</ele>
        <time>2019-03-10T10:53:14Z</time>
      </trkpt>
      <trkpt lat="48.44614" lon="2.69324">
        <ele>80</ele>
        <time>2019-03-10T10:53:18Z</time>
      </trkpt>
      <trkpt lat="48.44609" lon="2.69322">
        <ele>81</ele>
        <time>2019-03-10T10:53:22Z</time>
      </trkpt>
      <trkpt lat="48.44603" lon="2.6932">
        <ele>81</ele>
        <time>2019-03-10T10:53:28Z</time>
      </trkpt>
      <trkpt lat="48.44598" lon="2.69321">
        <ele>81</ele>
        <time>2019-03-10T10:53:32Z</time>
      </trkpt>
      <trkpt lat="48.44593" lon="2.69324">
        <ele>81</ele>
        <time>2019-03-10T10:53:36Z</time>
      </trkpt>
      <trkpt lat="48.44589" lon="2.69327">
        <ele>81</ele>
        <time>2019-03-10T10:53:40Z</time>
      </trkpt>
      <trkpt lat="48.44583" lon="2.69328">
        <ele>82</ele>
        <time>2019-03-10T10:53:45Z</time>
      </trkpt>
      <trkpt lat="48.44577" lon="2.69333">
        <ele>82</ele>
        <time>2019-03-10T10:53:51Z</time>
      </trkpt>
      <trkpt lat="48.44574" lon="2.69338">
        <ele>82</ele>
        <time>2019-03-10T10:53:55Z</time>
      </trkpt>
      <trkpt lat="48.44569" lon="2.69343">
        <ele>82</ele>
        <time>2019-03-10T10:53:59Z</time>
      </trkpt>
      <trkpt lat="48.44564" lon="2.69345">
        <ele>81</ele>
        <time>2019-03-10T10:54:02Z</time>
      </trkpt>
      <trkpt lat="48.44559" lon="2.69349">
        <ele>81</ele>
        <time>2019-03-10T10:54:05Z</time>
      </trkpt>
      <trkpt lat="48.44552" lon="2.69361">
        <ele>82</ele>
        <time>2019-03-10T10:54:12Z</time>
      </trkpt>
      <trkpt lat="48.44551" lon="2.6937">
        <ele>83</ele>
        <time>2019-03-10T10:54:16Z</time>
      </trkpt>
      <trkpt lat="48.44547" lon="2.69382">
        <ele>84</ele>
        <time>2019-03-10T10:54:24Z</time>
      </trkpt>
      <trkpt lat="48.44545" lon="2.69391">
        <ele>84</ele>
        <time>2019-03-10T10:54:30Z</time>
      </trkpt>
      <trkpt lat="48.44543" lon="2.69397">
        <ele>85</ele>
        <time>2019-03-10T10:54:35Z</time>
      </trkpt>
      <trkpt lat="48.44533" lon="2.69407">
        <ele>83</ele>
        <time>2019-03-10T10:54:43Z</time>
      </trkpt>
      <trkpt lat="48.44525" lon="2.69416">
        <ele>85</ele>
        <time>2019-03-10T10:54:50Z</time>
      </trkpt>
      <trkpt lat="48.44518" lon="2.69427">
        <ele>83</ele>
        <time>2019-03-10T10:54:58Z</time>
      </trkpt>
      <trkpt lat="48.44515" lon="2.69431">
        <ele>83</ele>
        <time>2019-03-10T10:55:02Z</time>
      </trkpt>
      <trkpt lat="48.44511" lon="2.69435">
        <ele>83</ele>
        <time>2019-03-10T10:55:06Z</time>
      </trkpt>
      <trkpt lat="48.44506" lon="2.69448">
        <ele>83</ele>
        <time>2019-03-10T10:55:14Z</time>
      </trkpt>
      <trkpt lat="48.44502" lon="2.69452">
        <ele>83</ele>
        <time>2019-03-10T10:55:18Z</time>
      </trkpt>
      <trkpt lat="48.44497" lon="2.69455">
        <ele>83</ele>
        <time>2019-03-10T10:55:22Z</time>
      </trkpt>
      <trkpt lat="48.44493" lon="2.69459">
        <ele>83</ele>
        <time>2019-03-10T10:55:26Z</time>
      </trkpt>
      <trkpt lat="48.44481" lon="2.69471">
        <ele>82</ele>
        <time>2019-03-10T10:55:37Z</time>
      </trkpt>
      <trkpt lat="48.44476" lon="2.69471">
        <ele>84</ele>
        <time>2019-03-10T10:55:41Z</time>
      </trkpt>
      <trkpt lat="48.4447" lon="2.69473">
        <ele>85</ele>
        <time>2019-03-10T10:55:45Z</time>
      </trkpt>
      <trkpt lat="48.4446" lon="2.69477">
        <ele>84</ele>
        <time>2019-03-10T10:55:53Z</time>
      </trkpt>
      <trkpt lat="48.44455" lon="2.69477">
        <ele>83</ele>
        <time>2019-03-10T10:55:57Z</time>
      </trkpt>
      <trkpt lat="48.44451" lon="2.69476">
        <ele>82</ele>
        <time>2019-03-10T10:56:01Z</time>
      </trkpt>
      <trkpt lat="48.44441" lon="2.69472">
        <ele>84</ele>
        <time>2019-03-10T10:56:09Z</time>
      </trkpt>
      <trkpt lat="48.44437" lon="2.6947">
        <ele>83</ele>
        <time>2019-03-10T10:56:13Z</time>
      </trkpt>
      <trkpt lat="48.44426" lon="2.69466">
        <ele>83</ele>
        <time>2019-03-10T10:56:21Z</time>
      </trkpt>
      <trkpt lat="48.44421" lon="2.69462">
        <ele>83</ele>
        <time>2019-03-10T10:56:26Z</time>
      </trkpt>
      <trkpt lat="48.44416" lon="2.69458">
        <ele>83</ele>
        <time>2019-03-10T10:56:30Z</time>
      </trkpt>
      <trkpt lat="48.44406" lon="2.69451">
        <ele>81</ele>
        <time>2019-03-10T10:56:37Z</time>
      </trkpt>
      <trkpt lat="48.44388" lon="2.69435">
        <ele>81</ele>
        <time>2019-03-10T10:56:52Z</time>
      </trkpt>
      <trkpt lat="48.44382" lon="2.69433">
        <ele>82</ele>
        <time>2019-03-10T10:56:58Z</time>
      </trkpt>
      <trkpt lat="48.44377" lon="2.69434">
        <ele>82</ele>
        <time>2019-03-10T10:57:02Z</time>
      </trkpt>
      <trkpt lat="48.44373" lon="2.69436">
        <ele>82</ele>
        <time>2019-03-10T10:57:07Z</time>
      </trkpt>
      <trkpt lat="48.4437" lon="2.69442">
        <ele>82</ele>
        <time>2019-03-10T10:57:21Z</time>
      </trkpt>
      <trkpt lat="48.44365" lon="2.69449">
        <ele>83</ele>
        <time>2019-03-10T10:59:09Z</time>
      </trkpt>
      <trkpt lat="48.44362" lon="2.69455">
        <ele>82</ele>
        <time>2019-03-10T10:59:14Z</time>
      </trkpt>
      <trkpt lat="48.44357" lon="2.6946">
        <ele>82</ele>
        <time>2019-03-10T10:59:19Z</time>
      </trkpt>
      <trkpt lat="48.44352" lon="2.69462">
        <ele>82</ele>
        <time>2019-03-10T10:59:22Z</time>
      </trkpt>
      <trkpt lat="48.44334" lon="2.6947">
        <ele>82</ele>
        <time>2019-03-10T10:59:39Z</time>
      </trkpt>
      <trkpt lat="48.4433" lon="2.69474">
        <ele>83</ele>
        <time>2019-03-10T10:59:43Z</time>
      </trkpt>
      <trkpt lat="48.44325" lon="2.69476">
        <ele>82</ele>
        <time>2019-03-10T10:59:47Z</time>
      </trkpt>
      <trkpt lat="48.44315" lon="2.69483">
        <ele>82</ele>
        <time>2019-03-10T10:59:56Z</time>
      </trkpt>
      <trkpt lat="48.44311" lon="2.69485">
        <ele>82</ele>
        <time>2019-03-10T11:00:00Z</time>
      </trkpt>
      <trkpt lat="48.44307" lon="2.6949">
        <ele>82</ele>
        <time>2019-03-10T11:00:04Z</time>
      </trkpt>
      <trkpt lat="48.44305" lon="2.69496">
        <ele>82</ele>
        <time>2019-03-10T11:00:09Z</time>
      </trkpt>
      <trkpt lat="48.44303" lon="2.69505">
        <ele>82</ele>
        <time>2019-03-10T11:00:14Z</time>
      </trkpt>
      <trkpt lat="48.44304" lon="2.69512">
        <ele>82</ele>
        <time>2019-03-10T11:00:18Z</time>
      </trkpt>
      <trkpt lat="48.443" lon="2.69521">
        <ele>82</ele>
        <time>2019-03-10T11:00:28Z</time>
      </trkpt>
      <trkpt lat="48.44299" lon="2.69531">
        <ele>82</ele>
        <time>2019-03-10T11:00:41Z</time>
      </trkpt>
      <trkpt lat="48.44296" lon="2.69546">
        <ele>83</ele>
        <time>2019-03-10T11:00:48Z</time>
      </trkpt>
      <trkpt lat="48.44294" lon="2.69561">
        <ele>83</ele>
        <time>2019-03-10T11:00:56Z</time>
      </trkpt>
      <trkpt lat="48.44298" lon="2.69575">
        <ele>82</ele>
        <time>2019-03-10T11:01:04Z</time>
      </trkpt>
      <trkpt lat="48.443" lon="2.69581">
        <ele>82</ele>
        <time>2019-03-10T11:01:08Z</time>
      </trkpt>
      <trkpt lat="48.44306" lon="2.69594">
        <ele>80</ele>
        <time>2019-03-10T11:01:15Z</time>
      </trkpt>
      <trkpt lat="48.44312" lon="2.69605">
        <ele>83</ele>
        <time>2019-03-10T11:01:21Z</time>
      </trkpt>
      <trkpt lat="48.44316" lon="2.69611">
        <ele>83</ele>
        <time>2019-03-10T11:01:25Z</time>
      </trkpt>
      <trkpt lat="48.4432" lon="2.69616">
        <ele>82</ele>
        <time>2019-03-10T11:01:29Z</time>
      </trkpt>
      <trkpt lat="48.44323" lon="2.69623">
        <ele>83</ele>
        <time>2019-03-10T11:01:33Z</time>
      </trkpt>
      <trkpt lat="48.44326" lon="2.69629">
        <ele>83</ele>
        <time>2019-03-10T11:01:37Z</time>
      </trkpt>
      <trkpt lat="48.4433" lon="2.69635">
        <ele>82</ele>
        <time>2019-03-10T11:01:41Z</time>
      </trkpt>
      <trkpt lat="48.44339" lon="2.69655">
        <ele>84</ele>
        <time>2019-03-10T11:01:52Z</time>
      </trkpt>
      <trkpt lat="48.44346" lon="2.69665">
        <ele>84</ele>
        <time>2019-03-10T11:01:59Z</time>
      </trkpt>
      <trkpt lat="48.44349" lon="2.69671">
        <ele>84</ele>
        <time>2019-03-10T11:02:03Z</time>
      </trkpt>
      <trkpt lat="48.44355" lon="2.69675">
        <ele>84</ele>
        <time>2019-03-10T11:02:07Z</time>
      </trkpt>
      <trkpt lat="48.44358" lon="2.6968">
        <ele>84</ele>
        <time>2019-03-10T11:02:11Z</time>
      </trkpt>
      <trkpt lat="48.44359" lon="2.69688">
        <ele>82</ele>
        <time>2019-03-10T11:02:16Z</time>
      </trkpt>
      <trkpt lat="48.44359" lon="2.69695">
        <ele>82</ele>
        <time>2019-03-10T11:02:20Z</time>
      </trkpt>
      <trkpt lat="48.44358" lon="2.69704">
        <ele>82</ele>
        <time>2019-03-10T11:02:24Z</time>
      </trkpt>
      <trkpt lat="48.44356" lon="2.69711">
        <ele>83</ele>
        <time>2019-03-10T11:02:28Z</time>
      </trkpt>
      <trkpt lat="48.44355" lon="2.6972">
        <ele>83</ele>
        <time>2019-03-10T11:02:32Z</time>
      </trkpt>
      <trkpt lat="48.44352" lon="2.69726">
        <ele>83</ele>
        <time>2019-03-10T11:02:36Z</time>
      </trkpt>
      <trkpt lat="48.44348" lon="2.69729">
        <ele>84</ele>
        <time>2019-03-10T11:02:39Z</time>
      </trkpt>
      <trkpt lat="48.44343" lon="2.69732">
        <ele>84</ele>
        <time>2019-03-10T11:02:43Z</time>
      </trkpt>
      <trkpt lat="48.44339" lon="2.69734">
        <ele>85</ele>
        <time>2019-03-10T11:02:46Z</time>
      </trkpt>
      <trkpt lat="48.44333" lon="2.69735">
        <ele>84</ele>
        <time>2019-03-10T11:02:51Z</time>
      </trkpt>
      <trkpt lat="48.44328" lon="2.69736">
        <ele>84</ele>
        <time>2019-03-10T11:02:55Z</time>
      </trkpt>
      <trkpt lat="48.44324" lon="2.69737">
        <ele>84</ele>
        <time>2019-03-10T11:02:58Z</time>
      </trkpt>
      <trkpt lat="48.44318" lon="2.69736">
        <ele>83</ele>
        <time>2019-03-10T11:03:02Z</time>
      </trkpt>
      <trkpt lat="48.44313" lon="2.69738">
        <ele>84</ele>
        <time>2019-03-10T11:03:06Z</time>
      </trkpt>
      <trkpt lat="48.44308" lon="2.6974">
        <ele>83</ele>
        <time>2019-03-10T11:03:10Z</time>
      </trkpt>
      <trkpt lat="48.44305" lon="2.69746">
        <ele>83</ele>
        <time>2019-03-10T11:03:13Z</time>
      </trkpt>
      <trkpt lat="48.44301" lon="2.6976">
        <ele>84</ele>
        <time>2019-03-10T11:03:21Z</time>
      </trkpt>
      <trkpt lat="48.44299" lon="2.69767">
        <ele>84</ele>
        <time>2019-03-10T11:03:25Z</time>
      </trkpt>
      <trkpt lat="48.44297" lon="2.69774">
        <ele>83</ele>
        <time>2019-03-10T11:03:28Z</time>
      </trkpt>
      <trkpt lat="48.44296" lon="2.69783">
        <ele>84</ele>
        <time>2019-03-10T11:03:45Z</time>
      </trkpt>
      <trkpt lat="48.44297" lon="2.6979">
        <ele>84</ele>
        <time>2019-03-10T11:04:09Z</time>
      </trkpt>
      <trkpt lat="48.44301" lon="2.69797">
        <ele>84</ele>
        <time>2019-03-10T11:05:21Z</time>
      </trkpt>
      <trkpt lat="48.44305" lon="2.69803">
        <ele>84</ele>
        <time>2019-03-10T11:05:33Z</time>
      </trkpt>
      <trkpt lat="48.44306" lon="2.69818">
        <ele>84</ele>
        <time>2019-03-10T11:05:43Z</time>
      </trkpt>
      <trkpt lat="48.44305" lon="2.69832">
        <ele>84</ele>
        <time>2019-03-10T11:05:51Z</time>
      </trkpt>
      <trkpt lat="48.44305" lon="2.69839">
        <ele>83</ele>
        <time>2019-03-10T11:05:54Z</time>
      </trkpt>
      <trkpt lat="48.44306" lon="2.69847">
        <ele>84</ele>
        <time>2019-03-10T11:05:58Z</time>
      </trkpt>
      <trkpt lat="48.44307" lon="2.69854">
        <ele>84</ele>
        <time>2019-03-10T11:06:02Z</time>
      </trkpt>
      <trkpt lat="48.44309" lon="2.69862">
        <ele>84</ele>
        <time>2019-03-10T11:06:07Z</time>
      </trkpt>
      <trkpt lat="48.44312" lon="2.69867">
        <ele>84</ele>
        <time>2019-03-10T11:06:12Z</time>
      </trkpt>
      <trkpt lat="48.44316" lon="2.69873">
        <ele>84</ele>
        <time>2019-03-10T11:06:16Z</time>
      </trkpt>
      <trkpt lat="48.44319" lon="2.69878">
        <ele>84</ele>
        <time>2019-03-10T11:06:20Z</time>
      </trkpt>
      <trkpt lat="48.44326" lon="2.69886">
        <ele>84</ele>
        <time>2019-03-10T11:06:28Z</time>
      </trkpt>
      <trkpt lat="48.44331" lon="2.69889">
        <ele>84</ele>
        <time>2019-03-10T11:06:34Z</time>
      </trkpt>
      <trkpt lat="48.44336" lon="2.69895">
        <ele>83</ele>
        <time>2019-03-10T11:06:40Z</time>
      </trkpt>
      <trkpt lat="48.44339" lon="2.69901">
        <ele>84</ele>
        <time>2019-03-10T11:06:45Z</time>
      </trkpt>
      <trkpt lat="48.4434" lon="2.69909">
        <ele>84</ele>
        <time>2019-03-10T11:06:50Z</time>
      </trkpt>
      <trkpt lat="48.44342" lon="2.69925">
        <ele>84</ele>
        <time>2019-03-10T11:06:59Z</time>
      </trkpt>
      <trkpt lat="48.44341" lon="2.69933">
        <ele>84</ele>
        <time>2019-03-10T11:07:03Z</time>
      </trkpt>
      <trkpt lat="48.44357" lon="2.69964">
        <ele>83</ele>
        <time>2019-03-10T11:07:22Z</time>
      </trkpt>
      <trkpt lat="48.4436" lon="2.69969">
        <ele>83</ele>
        <time>2019-03-10T11:07:25Z</time>
      </trkpt>
      <trkpt lat="48.44364" lon="2.69983">
        <ele>84</ele>
        <time>2019-03-10T11:07:33Z</time>
      </trkpt>
      <trkpt lat="48.44363" lon="2.69991">
        <ele>84</ele>
        <time>2019-03-10T11:07:37Z</time>
      </trkpt>
      <trkpt lat="48.44366" lon="2.70022">
        <ele>84</ele>
        <time>2019-03-10T11:07:54Z</time>
      </trkpt>
      <trkpt lat="48.44366" lon="2.70035">
        <ele>83</ele>
        <time>2019-03-10T11:08:04Z</time>
      </trkpt>
      <trkpt lat="48.44367" lon="2.70042">
        <ele>84</ele>
        <time>2019-03-10T11:08:09Z</time>
      </trkpt>
      <trkpt lat="48.4437" lon="2.70057">
        <ele>84</ele>
        <time>2019-03-10T11:08:17Z</time>
      </trkpt>
      <trkpt lat="48.44375" lon="2.7008">
        <ele>83</ele>
        <time>2019-03-10T11:08:27Z</time>
      </trkpt>
      <trkpt lat="48.44373" lon="2.70095">
        <ele>82</ele>
        <time>2019-03-10T11:08:33Z</time>
      </trkpt>
      <trkpt lat="48.44372" lon="2.70103">
        <ele>82</ele>
        <time>2019-03-10T11:08:36Z</time>
      </trkpt>
      <trkpt lat="48.44371" lon="2.70117">
        <ele>83</ele>
        <time>2019-03-10T11:08:44Z</time>
      </trkpt>
      <trkpt lat="48.44367" lon="2.7013">
        <ele>84</ele>
        <time>2019-03-10T11:08:54Z</time>
      </trkpt>
      <trkpt lat="48.44365" lon="2.70142">
        <ele>83</ele>
        <time>2019-03-10T11:09:01Z</time>
      </trkpt>
      <trkpt lat="48.44363" lon="2.70149">
        <ele>83</ele>
        <time>2019-03-10T11:09:06Z</time>
      </trkpt>
      <trkpt lat="48.44364" lon="2.70167">
        <ele>83</ele>
        <time>2019-03-10T11:09:16Z</time>
      </trkpt>
      <trkpt lat="48.44366" lon="2.70173">
        <ele>83</ele>
        <time>2019-03-10T11:09:19Z</time>
      </trkpt>
      <trkpt lat="48.44364" lon="2.7019">
        <ele>83</ele>
        <time>2019-03-10T11:09:27Z</time>
      </trkpt>
      <trkpt lat="48.44361" lon="2.70195">
        <ele>84</ele>
        <time>2019-03-10T11:09:31Z</time>
      </trkpt>
      <trkpt lat="48.44357" lon="2.70199">
        <ele>84</ele>
        <time>2019-03-10T11:09:36Z</time>
      </trkpt>
      <trkpt lat="48.4435" lon="2.70208">
        <ele>83</ele>
        <time>2019-03-10T11:09:44Z</time>
      </trkpt>
      <trkpt lat="48.44346" lon="2.70221">
        <ele>83</ele>
        <time>2019-03-10T11:09:52Z</time>
      </trkpt>
      <trkpt lat="48.4434" lon="2.70242">
        <ele>83</ele>
        <time>2019-03-10T11:10:08Z</time>
      </trkpt>
      <trkpt lat="48.44329" lon="2.70268">
        <ele>83</ele>
        <time>2019-03-10T11:10:23Z</time>
      </trkpt>
      <trkpt lat="48.44327" lon="2.70281">
        <ele>83</ele>
        <time>2019-03-10T11:10:29Z</time>
      </trkpt>
      <trkpt lat="48.44327" lon="2.70296">
        <ele>84</ele>
        <time>2019-03-10T11:10:37Z</time>
      </trkpt>
      <trkpt lat="48.4433" lon="2.70309">
        <ele>84</ele>
        <time>2019-03-10T11:10:44Z</time>
      </trkpt>
      <trkpt lat="48.44339" lon="2.70337">
        <ele>81</ele>
        <time>2019-03-10T11:11:01Z</time>
      </trkpt>
      <trkpt lat="48.44345" lon="2.70359">
        <ele>83</ele>
        <time>2019-03-10T11:11:12Z</time>
      </trkpt>
      <trkpt lat="48.44352" lon="2.7037">
        <ele>84</ele>
        <time>2019-03-10T11:11:18Z</time>
      </trkpt>
      <trkpt lat="48.44357" lon="2.70384">
        <ele>82</ele>
        <time>2019-03-10T11:11:28Z</time>
      </trkpt>
      <trkpt lat="48.44361" lon="2.70398">
        <ele>81</ele>
        <time>2019-03-10T11:11:37Z</time>
      </trkpt>
      <trkpt lat="48.4437" lon="2.70426">
        <ele>82</ele>
        <time>2019-03-10T11:11:52Z</time>
      </trkpt>
      <trkpt lat="48.44384" lon="2.70447">
        <ele>82</ele>
        <time>2019-03-10T11:12:05Z</time>
      </trkpt>
      <trkpt lat="48.44396" lon="2.70468">
        <ele>82</ele>
        <time>2019-03-10T11:12:17Z</time>
      </trkpt>
      <trkpt lat="48.44409" lon="2.70481">
        <ele>82</ele>
        <time>2019-03-10T11:12:26Z</time>
      </trkpt>
      <trkpt lat="48.44417" lon="2.7049">
        <ele>81</ele>
        <time>2019-03-10T11:12:33Z</time>
      </trkpt>
      <trkpt lat="48.44421" lon="2.70499">
        <ele>81</ele>
        <time>2019-03-10T11:12:39Z</time>
      </trkpt>
      <trkpt lat="48.44445" lon="2.70528">
        <ele>82</ele>
        <time>2019-03-10T11:13:00Z</time>
      </trkpt>
      <trkpt lat="48.44449" lon="2.70531">
        <ele>82</ele>
        <time>2019-03-10T11:13:03Z</time>
      </trkpt>
      <trkpt lat="48.44457" lon="2.7054">
        <ele>81</ele>
        <time>2019-03-10T11:13:10Z</time>
      </trkpt>
      <trkpt lat="48.44464" lon="2.70553">
        <ele>80</ele>
        <time>2019-03-10T11:13:18Z</time>
      </trkpt>
      <trkpt lat="48.44469" lon="2.70565">
        <ele>81</ele>
        <time>2019-03-10T11:13:27Z</time>
      </trkpt>
      <trkpt lat="48.44473" lon="2.70571">
        <ele>81</ele>
        <time>2019-03-10T11:13:32Z</time>
      </trkpt>
      <trkpt lat="48.44474" lon="2.70578">
        <ele>81</ele>
        <time>2019-03-10T11:13:36Z</time>
      </trkpt>
      <trkpt lat="48.44474" lon="2.70586">
        <ele>81</ele>
        <time>2019-03-10T11:13:41Z</time>
      </trkpt>
      <trkpt lat="48.44476" lon="2.70596">
        <ele>81</ele>
        <time>2019-03-10T11:13:48Z</time>
      </trkpt>
      <trkpt lat="48.44477" lon="2.70602">
        <ele>81</ele>
        <time>2019-03-10T11:13:53Z</time>
      </trkpt>
      <trkpt lat="48.44478" lon="2.70611">
        <ele>80</ele>
        <time>2019-03-10T11:13:58Z</time>
      </trkpt>
      <trkpt lat="48.4448" lon="2.70618">
        <ele>81</ele>
        <time>2019-03-10T11:14:03Z</time>
      </trkpt>
      <trkpt lat="48.44486" lon="2.70633">
        <ele>81</ele>
        <time>2019-03-10T11:14:10Z</time>
      </trkpt>
      <trkpt lat="48.4449" lon="2.70638">
        <ele>81</ele>
        <time>2019-03-10T11:14:15Z</time>
      </trkpt>
      <trkpt lat="48.44499" lon="2.70638">
        <ele>80</ele>
        <time>2019-03-10T11:14:23Z</time>
      </trkpt>
      <trkpt lat="48.44503" lon="2.70638">
        <ele>80</ele>
        <time>2019-03-10T11:14:27Z</time>
      </trkpt>
      <trkpt lat="48.44508" lon="2.70638">
        <ele>81</ele>
        <time>2019-03-10T11:14:31Z</time>
      </trkpt>
      <trkpt lat="48.44515" lon="2.70639">
        <ele>78</ele>
        <time>2019-03-10T11:14:39Z</time>
      </trkpt>
      <trkpt lat="48.44523" lon="2.70645">
        <ele>80</ele>
        <time>2019-03-10T11:14:48Z</time>
      </trkpt>
      <trkpt lat="48.44536" lon="2.70658">
        <ele>81</ele>
        <time>2019-03-10T11:14:59Z</time>
      </trkpt>
      <trkpt lat="48.44541" lon="2.70661">
        <ele>81</ele>
        <time>2019-03-10T11:15:03Z</time>
      </trkpt>
      <trkpt lat="48.44551" lon="2.70666">
        <ele>82</ele>
        <time>2019-03-10T11:15:11Z</time>
      </trkpt>
      <trkpt lat="48.44556" lon="2.70668">
        <ele>82</ele>
        <time>2019-03-10T11:15:16Z</time>
      </trkpt>
      <trkpt lat="48.44559" lon="2.70672">
        <ele>81</ele>
        <time>2019-03-10T11:15:21Z</time>
      </trkpt>
      <trkpt lat="48.44565" lon="2.70674">
        <ele>81</ele>
        <time>2019-03-10T11:15:25Z</time>
      </trkpt>
      <trkpt lat="48.44573" lon="2.70674">
        <ele>82</ele>
        <time>2019-03-10T11:15:34Z</time>
      </trkpt>
      <trkpt lat="48.44577" lon="2.70675">
        <ele>82</ele>
        <time>2019-03-10T11:15:39Z</time>
      </trkpt>
      <trkpt lat="48.44593" lon="2.70681">
        <ele>82</ele>
        <time>2019-03-10T11:15:52Z</time>
      </trkpt>
      <trkpt lat="48.44598" lon="2.70684">
        <ele>83</ele>
        <time>2019-03-10T11:15:56Z</time>
      </trkpt>
      <trkpt lat="48.44602" lon="2.70687">
        <ele>84</ele>
        <time>2019-03-10T11:16:00Z</time>
      </trkpt>
      <trkpt lat="48.44606" lon="2.70689">
        <ele>83</ele>
        <time>2019-03-10T11:16:03Z</time>
      </trkpt>
      <trkpt lat="48.44612" lon="2.7069">
        <ele>85</ele>
        <time>2019-03-10T11:16:07Z</time>
      </trkpt>
      <trkpt lat="48.44616" lon="2.7069">
        <ele>83</ele>
        <time>2019-03-10T11:16:11Z</time>
      </trkpt>
      <trkpt lat="48.44621" lon="2.70693">
        <ele>82</ele>
        <time>2019-03-10T11:16:16Z</time>
      </trkpt>
      <trkpt lat="48.44624" lon="2.70699">
        <ele>81</ele>
        <time>2019-03-10T11:16:21Z</time>
      </trkpt>
      <trkpt lat="48.44626" lon="2.70708">
        <ele>82</ele>
        <time>2019-03-10T11:16:28Z</time>
      </trkpt>
      <trkpt lat="48.44629" lon="2.70714">
        <ele>83</ele>
        <time>2019-03-10T11:16:32Z</time>
      </trkpt>
      <trkpt lat="48.44631" lon="2.70722">
        <ele>83</ele>
        <time>2019-03-10T11:16:37Z</time>
      </trkpt>
      <trkpt lat="48.44634" lon="2.70729">
        <ele>82</ele>
        <time>2019-03-10T11:16:42Z</time>
      </trkpt>
      <trkpt lat="48.44642" lon="2.70736">
        <ele>80</ele>
        <time>2019-03-10T11:16:50Z</time>
      </trkpt>
      <trkpt lat="48.44644" lon="2.70743">
        <ele>80</ele>
        <time>2019-03-10T11:16:54Z</time>
      </trkpt>
      <trkpt lat="48.44644" lon="2.7075">
        <ele>81</ele>
        <time>2019-03-10T11:16:58Z</time>
      </trkpt>
      <trkpt lat="48.44644" lon="2.70761">
        <ele>81</ele>
        <time>2019-03-10T11:17:04Z</time>
      </trkpt>
      <trkpt lat="48.44649" lon="2.70774">
        <ele>81</ele>
        <time>2019-03-10T11:17:10Z</time>
      </trkpt>
      <trkpt lat="48.44649" lon="2.70781">
        <ele>82</ele>
        <time>2019-03-10T11:17:14Z</time>
      </trkpt>
      <trkpt lat="48.44648" lon="2.70788">
        <ele>82</ele>
        <time>2019-03-10T11:17:17Z</time>
      </trkpt>
      <trkpt lat="48.44655" lon="2.70802">
        <ele>81</ele>
        <time>2019-03-10T11:17:26Z</time>
      </trkpt>
      <trkpt lat="48.4466" lon="2.70814">
        <ele>81</ele>
        <time>2019-03-10T11:17:34Z</time>
      </trkpt>
      <trkpt lat="48.44663" lon="2.70821">
        <ele>82</ele>
        <time>2019-03-10T11:17:39Z</time>
      </trkpt>
      <trkpt lat="48.44667" lon="2.70835">
        <ele>81</ele>
        <time>2019-03-10T11:17:47Z</time>
      </trkpt>
      <trkpt lat="48.44669" lon="2.70843">
        <ele>80</ele>
        <time>2019-03-10T11:17:52Z</time>
      </trkpt>
      <trkpt lat="48.44672" lon="2.70849">
        <ele>80</ele>
        <time>2019-03-10T11:17:57Z</time>
      </trkpt>
      <trkpt lat="48.44674" lon="2.70863">
        <ele>81</ele>
        <time>2019-03-10T11:18:07Z</time>
      </trkpt>
      <trkpt lat="48.44673" lon="2.70884">
        <ele>82</ele>
        <time>2019-03-10T11:18:21Z</time>
      </trkpt>
      <trkpt lat="48.44672" lon="2.70892">
        <ele>82</ele>
        <time>2019-03-10T11:18:26Z</time>
      </trkpt>
      <trkpt lat="48.44669" lon="2.70907">
        <ele>82</ele>
        <time>2019-03-10T11:18:35Z</time>
      </trkpt>
      <trkpt lat="48.44668" lon="2.70929">
        <ele>82</ele>
        <time>2019-03-10T11:18:48Z</time>
      </trkpt>
      <trkpt lat="48.44653" lon="2.7097">
        <ele>80</ele>
        <time>2019-03-10T11:19:07Z</time>
      </trkpt>
      <trkpt lat="48.44646" lon="2.70983">
        <ele>81</ele>
        <time>2019-03-10T11:19:14Z</time>
      </trkpt>
      <trkpt lat="48.44642" lon="2.71006">
        <ele>80</ele>
        <time>2019-03-10T11:19:22Z</time>
      </trkpt>
      <trkpt lat="48.4464" lon="2.71012">
        <ele>81</ele>
        <time>2019-03-10T11:19:25Z</time>
      </trkpt>
      <trkpt lat="48.44638" lon="2.71019">
        <ele>84</ele>
        <time>2019-03-10T11:19:29Z</time>
      </trkpt>
      <trkpt lat="48.44638" lon="2.7103">
        <ele>83</ele>
        <time>2019-03-10T11:19:37Z</time>
      </trkpt>
      <trkpt lat="48.44639" lon="2.71051">
        <ele>82</ele>
        <time>2019-03-10T11:19:47Z</time>
      </trkpt>
      <trkpt lat="48.44638" lon="2.71058">
        <ele>82</ele>
        <time>2019-03-10T11:19:50Z</time>
      </trkpt>
      <trkpt lat="48.44639" lon="2.71064">
        <ele>82</ele>
        <time>2019-03-10T11:19:54Z</time>
      </trkpt>
      <trkpt lat="48.44642" lon="2.7107">
        <ele>83</ele>
        <time>2019-03-10T11:19:58Z</time>
      </trkpt>
      <trkpt lat="48.44645" lon="2.71075">
        <ele>83</ele>
        <time>2019-03-10T11:20:01Z</time>
      </trkpt>
      <trkpt lat="48.44645" lon="2.71083">
        <ele>84</ele>
        <time>2019-03-10T11:20:06Z</time>
      </trkpt>
      <trkpt lat="48.44645" lon="2.71102">
        <ele>83</ele>
        <time>2019-03-10T11:20:19Z</time>
      </trkpt>
      <trkpt lat="48.44645" lon="2.71109">
        <ele>83</ele>
        <time>2019-03-10T11:20:24Z</time>
      </trkpt>
      <trkpt lat="48.44644" lon="2.71117">
        <ele>84</ele>
        <time>2019-03-10T11:20:29Z</time>
      </trkpt>
      <trkpt lat="48.44641" lon="2.71122">
        <ele>85</ele>
        <time>2019-03-10T11:20:34Z</time>
      </trkpt>
      <trkpt lat="48.44637" lon="2.71125">
        <ele>85</ele>
        <time>2019-03-10T11:20:38Z</time>
      </trkpt>
      <trkpt lat="48.44633" lon="2.71129">
        <ele>84</ele>
        <time>2019-03-10T11:20:42Z</time>
      </trkpt>
      <trkpt lat="48.44627" lon="2.71131">
        <ele>84</ele>
        <time>2019-03-10T11:20:47Z</time>
      </trkpt>
      <trkpt lat="48.44617" lon="2.71146">
        <ele>83</ele>
        <time>2019-03-10T11:20:59Z</time>
      </trkpt>
      <trkpt lat="48.44615" lon="2.71152">
        <ele>83</ele>
        <time>2019-03-10T11:21:03Z</time>
      </trkpt>
      <trkpt lat="48.44613" lon="2.7116">
        <ele>84</ele>
        <time>2019-03-10T11:21:07Z</time>
      </trkpt>
      <trkpt lat="48.44613" lon="2.71168">
        <ele>85</ele>
        <time>2019-03-10T11:21:11Z</time>
      </trkpt>
      <trkpt lat="48.44613" lon="2.71174">
        <ele>84</ele>
        <time>2019-03-10T11:21:16Z</time>
      </trkpt>
      <trkpt lat="48.44612" lon="2.71181">
        <ele>84</ele>
        <time>2019-03-10T11:21:21Z</time>
      </trkpt>
      <trkpt lat="48.44613" lon="2.71193">
        <ele>85</ele>
        <time>2019-03-10T11:21:36Z</time>
      </trkpt>
      <trkpt lat="48.44614" lon="2.712">
        <ele>84</ele>
        <time>2019-03-10T11:21:49Z</time>
      </trkpt>
      <trkpt lat="48.4461" lon="2.71208">
        <ele>84</ele>
        <time>2019-03-10T11:22:11Z</time>
      </trkpt>
      <trkpt lat="48.44606" lon="2.71213">
        <ele>83</ele>
        <time>2019-03-10T11:22:28Z</time>
      </trkpt>
      <trkpt lat="48.44597" lon="2.71216">
        <ele>83</ele>
        <time>2019-03-10T11:22:35Z</time>
      </trkpt>
      <trkpt lat="48.44593" lon="2.71221">
        <ele>83</ele>
        <time>2019-03-10T11:22:40Z</time>
      </trkpt>
      <trkpt lat="48.44571" lon="2.7124">
        <ele>83</ele>
        <time>2019-03-10T11:22:58Z</time>
      </trkpt>
      <trkpt lat="48.44555" lon="2.71257">
        <ele>83</ele>
        <time>2019-03-10T11:23:14Z</time>
      </trkpt>
      <trkpt lat="48.44544" lon="2.71265">
        <ele>82</ele>
        <time>2019-03-10T11:23:22Z</time>
      </trkpt>
      <trkpt lat="48.4454" lon="2.71267">
        <ele>82</ele>
        <time>2019-03-10T11:23:25Z</time>
      </trkpt>
      <trkpt lat="48.44534" lon="2.71268">
        <ele>82</ele>
        <time>2019-03-10T11:23:29Z</time>
      </trkpt>
      <trkpt lat="48.44525" lon="2.71263">
        <ele>81</ele>
        <time>2019-03-10T11:23:37Z</time>
      </trkpt>
      <trkpt lat="48.4452" lon="2.7126">
        <ele>81</ele>
        <time>2019-03-10T11:23:41Z</time>
      </trkpt>
      <trkpt lat="48.44516" lon="2.71257">
        <ele>81</ele>
        <time>2019-03-10T11:23:45Z</time>
      </trkpt>
      <trkpt lat="48.44512" lon="2.71253">
        <ele>81</ele>
        <time>2019-03-10T11:23:49Z</time>
      </trkpt>
      <trkpt lat="48.44508" lon="2.71249">
        <ele>81</ele>
        <time>2019-03-10T11:23:53Z</time>
      </trkpt>
      <trkpt lat="48.445" lon="2.71238">
        <ele>81</ele>
        <time>2019-03-10T11:24:01Z</time>
      </trkpt>
      <trkpt lat="48.44491" lon="2.71231">
        <ele>81</ele>
        <time>2019-03-10T11:24:09Z</time>
      </trkpt>
      <trkpt lat="48.44483" lon="2.7122">
        <ele>81</ele>
        <time>2019-03-10T11:24:17Z</time>
      </trkpt>
      <trkpt lat="48.44477" lon="2.71214">
        <ele>82</ele>
        <time>2019-03-10T11:24:23Z</time>
      </trkpt>
      <trkpt lat="48.4447" lon="2.71207">
        <ele>81</ele>
        <time>2019-03-10T11:24:30Z</time>
      </trkpt>
      <trkpt lat="48.4444" lon="2.71182">
        <ele>81</ele>
        <time>2019-03-10T11:24:54Z</time>
      </trkpt>
      <trkpt lat="48.44427" lon="2.71169">
        <ele>80</ele>
        <time>2019-03-10T11:25:05Z</time>
      </trkpt>
      <trkpt lat="48.44422" lon="2.71163">
        <ele>81</ele>
        <time>2019-03-10T11:25:13Z</time>
      </trkpt>
      <trkpt lat="48.44408" lon="2.71145">
        <ele>79</ele>
        <time>2019-03-10T11:25:27Z</time>
      </trkpt>
      <trkpt lat="48.44405" lon="2.71139">
        <ele>79</ele>
        <time>2019-03-10T11:25:31Z</time>
      </trkpt>
      <trkpt lat="48.44398" lon="2.71125">
        <ele>80</ele>
        <time>2019-03-10T11:25:39Z</time>
      </trkpt>
      <trkpt lat="48.44392" lon="2.71113">
        <ele>79</ele>
        <time>2019-03-10T11:25:47Z</time>
      </trkpt>
      <trkpt lat="48.44388" lon="2.71107">
        <ele>79</ele>
        <time>2019-03-10T11:25:51Z</time>
      </trkpt>
      <trkpt lat="48.44385" lon="2.71103">
        <ele>79</ele>
        <time>2019-03-10T11:25:54Z</time>
      </trkpt>
      <trkpt lat="48.44382" lon="2.71096">
        <ele>79</ele>
        <time>2019-03-10T11:25:58Z</time>
      </trkpt>
      <trkpt lat="48.44373" lon="2.71078">
        <ele>79</ele>
        <time>2019-03-10T11:26:09Z</time>
      </trkpt>
      <trkpt lat="48.44367" lon="2.71065">
        <ele>79</ele>
        <time>2019-03-10T11:26:16Z</time>
      </trkpt>
      <trkpt lat="48.44361" lon="2.71053">
        <ele>79</ele>
        <time>2019-03-10T11:26:24Z</time>
      </trkpt>
      <trkpt lat="48.44359" lon="2.71047">
        <ele>79</ele>
        <time>2019-03-10T11:26:29Z</time>
      </trkpt>
      <trkpt lat="48.44356" lon="2.71041">
        <ele>79</ele>
        <time>2019-03-10T11:26:33Z</time>
      </trkpt>
      <trkpt lat="48.44353" lon="2.71034">
        <ele>79</ele>
        <time>2019-03-10T11:26:38Z</time>
      </trkpt>
      <trkpt lat="48.44348" lon="2.71028">
        <ele>79</ele>
        <time>2019-03-10T11:26:41Z</time>
      </trkpt>
      <trkpt lat="48.44339" lon="2.71019">
        <ele>79</ele>
        <time>2019-03-10T11:26:48Z</time>
      </trkpt>
      <trkpt lat="48.44334" lon="2.71023">
        <ele>78</ele>
        <time>2019-03-10T11:26:52Z</time>
      </trkpt>
      <trkpt lat="48.4433" lon="2.71027">
        <ele>78</ele>
        <time>2019-03-10T11:26:56Z</time>
      </trkpt>
      <trkpt lat="48.44323" lon="2.71031">
        <ele>79</ele>
        <time>2019-03-10T11:27:04Z</time>
      </trkpt>
      <trkpt lat="48.44318" lon="2.71034">
        <ele>79</ele>
        <time>2019-03-10T11:27:08Z</time>
      </trkpt>
      <trkpt lat="48.44308" lon="2.71039">
        <ele>79</ele>
        <time>2019-03-10T11:27:16Z</time>
      </trkpt>
      <trkpt lat="48.44294" lon="2.71045">
        <ele>79</ele>
        <time>2019-03-10T11:27:29Z</time>
      </trkpt>
      <trkpt lat="48.44288" lon="2.7105">
        <ele>80</ele>
        <time>2019-03-10T11:27:37Z</time>
      </trkpt>
      <trkpt lat="48.44282" lon="2.71053">
        <ele>79</ele>
        <time>2019-03-10T11:27:41Z</time>
      </trkpt>
      <trkpt lat="48.44273" lon="2.71058">
        <ele>81</ele>
        <time>2019-03-10T11:27:47Z</time>
      </trkpt>
      <trkpt lat="48.44247" lon="2.71079">
        <ele>79</ele>
        <time>2019-03-10T11:28:07Z</time>
      </trkpt>
      <trkpt lat="48.44234" lon="2.71088">
        <ele>80</ele>
        <time>2019-03-10T11:28:17Z</time>
      </trkpt>
      <trkpt lat="48.44229" lon="2.71092">
        <ele>82</ele>
        <time>2019-03-10T11:28:22Z</time>
      </trkpt>
      <trkpt lat="48.44219" lon="2.71099">
        <ele>80</ele>
        <time>2019-03-10T11:28:30Z</time>
      </trkpt>
      <trkpt lat="48.44213" lon="2.71102">
        <ele>80</ele>
        <time>2019-03-10T11:28:34Z</time>
      </trkpt>
      <trkpt lat="48.44209" lon="2.71104">
        <ele>82</ele>
        <time>2019-03-10T11:28:38Z</time>
      </trkpt>
      <trkpt lat="48.44203" lon="2.71106">
        <ele>81</ele>
        <time>2019-03-10T11:28:42Z</time>
      </trkpt>
      <trkpt lat="48.44194" lon="2.71113">
        <ele>81</ele>
        <time>2019-03-10T11:28:49Z</time>
      </trkpt>
      <trkpt lat="48.44189" lon="2.71115">
        <ele>82</ele>
        <time>2019-03-10T11:28:53Z</time>
      </trkpt>
      <trkpt lat="48.44185" lon="2.71118">
        <ele>82</ele>
        <time>2019-03-10T11:28:57Z</time>
      </trkpt>
      <trkpt lat="48.44179" lon="2.71122">
        <ele>82</ele>
        <time>2019-03-10T11:29:01Z</time>
      </trkpt>
      <trkpt lat="48.44169" lon="2.71128">
        <ele>81</ele>
        <time>2019-03-10T11:29:09Z</time>
      </trkpt>
      <trkpt lat="48.4416" lon="2.71134">
        <ele>82</ele>
        <time>2019-03-10T11:29:18Z</time>
      </trkpt>
      <trkpt lat="48.44155" lon="2.71136">
        <ele>81</ele>
        <time>2019-03-10T11:29:23Z</time>
      </trkpt>
      <trkpt lat="48.44145" lon="2.71141">
        <ele>82</ele>
        <time>2019-03-10T11:29:33Z</time>
      </trkpt>
      <trkpt lat="48.4411" lon="2.71167">
        <ele>82</ele>
        <time>2019-03-10T11:29:59Z</time>
      </trkpt>
      <trkpt lat="48.44105" lon="2.7117">
        <ele>81</ele>
        <time>2019-03-10T11:30:02Z</time>
      </trkpt>
      <trkpt lat="48.441" lon="2.71173">
        <ele>81</ele>
        <time>2019-03-10T11:30:05Z</time>
      </trkpt>
      <trkpt lat="48.44095" lon="2.71176">
        <ele>82</ele>
        <time>2019-03-10T11:30:08Z</time>
      </trkpt>
      <trkpt lat="48.44087" lon="2.71187">
        <ele>84</ele>
        <time>2019-03-10T11:30:14Z</time>
      </trkpt>
      <trkpt lat="48.44084" lon="2.71192">
        <ele>84</ele>
        <time>2019-03-10T11:30:17Z</time>
      </trkpt>
      <trkpt lat="48.4408" lon="2.71196">
        <ele>84</ele>
        <time>2019-03-10T11:30:21Z</time>
      </trkpt>
      <trkpt lat="48.44074" lon="2.71197">
        <ele>84</ele>
        <time>2019-03-10T11:30:25Z</time>
      </trkpt>
      <trkpt lat="48.44069" lon="2.71195">
        <ele>83</ele>
        <time>2019-03-10T11:30:30Z</time>
      </trkpt>
      <trkpt lat="48.44065" lon="2.71193">
        <ele>83</ele>
        <time>2019-03-10T11:30:35Z</time>
      </trkpt>
      <trkpt lat="48.44044" lon="2.71179">
        <ele>86</ele>
        <time>2019-03-10T11:30:56Z</time>
      </trkpt>
      <trkpt lat="48.4404" lon="2.71178">
        <ele>86</ele>
        <time>2019-03-10T11:31:00Z</time>
      </trkpt>
      <trkpt lat="48.44018" lon="2.71159">
        <ele>89</ele>
        <time>2019-03-10T11:31:21Z</time>
      </trkpt>
      <trkpt lat="48.44008" lon="2.71157">
        <ele>89</ele>
        <time>2019-03-10T11:31:30Z</time>
      </trkpt>
      <trkpt lat="48.43991" lon="2.71149">
        <ele>93</ele>
        <time>2019-03-10T11:31:51Z</time>
      </trkpt>
      <trkpt lat="48.43986" lon="2.71145">
        <ele>94</ele>
        <time>2019-03-10T11:31:56Z</time>
      </trkpt>
      <trkpt lat="48.43973" lon="2.71139">
        <ele>95</ele>
        <time>2019-03-10T11:32:07Z</time>
      </trkpt>
      <trkpt lat="48.43968" lon="2.71139">
        <ele>95</ele>
        <time>2019-03-10T11:32:10Z</time>
      </trkpt>
      <trkpt lat="48.43963" lon="2.71141">
        <ele>95</ele>
        <time>2019-03-10T11:32:14Z</time>
      </trkpt>
      <trkpt lat="48.43944" lon="2.7114">
        <ele>97</ele>
        <time>2019-03-10T11:32:34Z</time>
      </trkpt>
      <trkpt lat="48.43936" lon="2.71135">
        <ele>99</ele>
        <time>2019-03-10T11:32:43Z</time>
      </trkpt>
      <trkpt lat="48.43925" lon="2.71133">
        <ele>100</ele>
        <time>2019-03-10T11:32:53Z</time>
      </trkpt>
      <trkpt lat="48.43919" lon="2.7113">
        <ele>100</ele>
        <time>2019-03-10T11:32:58Z</time>
      </trkpt>
      <trkpt lat="48.43907" lon="2.71125">
        <ele>100</ele>
        <time>2019-03-10T11:33:11Z</time>
      </trkpt>
      <trkpt lat="48.43903" lon="2.71123">
        <ele>100</ele>
        <time>2019-03-10T11:33:25Z</time>
      </trkpt>
      <trkpt lat="48.43903" lon="2.71114">
        <ele>101</ele>
        <time>2019-03-10T11:33:49Z</time>
      </trkpt>
      <trkpt lat="48.43903" lon="2.71106">
        <ele>100</ele>
        <time>2019-03-10T11:33:54Z</time>
      </trkpt>
      <trkpt lat="48.43906" lon="2.711">
        <ele>101</ele>
        <time>2019-03-10T11:33:59Z</time>
      </trkpt>
      <trkpt lat="48.43908" lon="2.71092">
        <ele>101</ele>
        <time>2019-03-10T11:34:09Z</time>
      </trkpt>
      <trkpt lat="48.43912" lon="2.71084">
        <ele>102</ele>
        <time>2019-03-10T11:34:21Z</time>
      </trkpt>
      <trkpt lat="48.43919" lon="2.71077">
        <ele>105</ele>
        <time>2019-03-10T11:34:33Z</time>
      </trkpt>
      <trkpt lat="48.43918" lon="2.71066">
        <ele>106</ele>
        <time>2019-03-10T11:34:45Z</time>
      </trkpt>
      <trkpt lat="48.43923" lon="2.71054">
        <ele>107</ele>
        <time>2019-03-10T11:34:56Z</time>
      </trkpt>
      <trkpt lat="48.43925" lon="2.71048">
        <ele>106</ele>
        <time>2019-03-10T11:35:01Z</time>
      </trkpt>
      <trkpt lat="48.43926" lon="2.71041">
        <ele>106</ele>
        <time>2019-03-10T11:35:20Z</time>
      </trkpt>
      <trkpt lat="48.43932" lon="2.71043">
        <ele>105</ele>
        <time>2019-03-10T11:38:00Z</time>
      </trkpt>
      <trkpt lat="48.43933" lon="2.71054">
        <ele>179</ele>
        <time>2019-03-10T12:17:36Z</time>
      </trkpt>
      <trkpt lat="48.43927" lon="2.71056">
        <ele>179</ele>
        <time>2019-03-10T12:17:37Z</time>
      </trkpt>
      <trkpt lat="48.43938" lon="2.71064">
        <ele>179</ele>
        <time>2019-03-10T12:17:40Z</time>
      </trkpt>
      <trkpt lat="48.43933" lon="2.71062">
        <ele>179</ele>
        <time>2019-03-10T12:17:43Z</time>
      </trkpt>
      <trkpt lat="48.43934" lon="2.71054">
        <ele>179</ele>
        <time>2019-03-10T12:17:46Z</time>
      </trkpt>
      <trkpt lat="48.43933" lon="2.71047">
        <ele>176</ele>
        <time>2019-03-10T12:20:04Z</time>
      </trkpt>
      <trkpt lat="48.43927" lon="2.71048">
        <ele>175</ele>
        <time>2019-03-10T12:23:04Z</time>
      </trkpt>
      <trkpt lat="48.43929" lon="2.71034">
        <ele>175</ele>
        <time>2019-03-10T12:23:23Z</time>
      </trkpt>
      <trkpt lat="48.43928" lon="2.71035">
        <ele>174</ele>
        <time>2019-03-10T12:24:08Z</time>
      </trkpt>
      <trkpt lat="48.43929" lon="2.71032">
        <ele>167</ele>
        <time>2019-03-10T12:34:04Z</time>
      </trkpt>
      <trkpt lat="48.43937" lon="2.71031">
        <ele>166</ele>
        <time>2019-03-10T12:34:28Z</time>
      </trkpt>
      <trkpt lat="48.43932" lon="2.7104">
        <ele>167</ele>
        <time>2019-03-10T12:34:59Z</time>
      </trkpt>
      <trkpt lat="48.43929" lon="2.71051">
        <ele>166</ele>
        <time>2019-03-10T12:35:10Z</time>
      </trkpt>
      <trkpt lat="48.43926" lon="2.71056">
        <ele>166</ele>
        <time>2019-03-10T12:35:15Z</time>
      </trkpt>
      <trkpt lat="48.43922" lon="2.7106">
        <ele>166</ele>
        <time>2019-03-10T12:35:20Z</time>
      </trkpt>
      <trkpt lat="48.43919" lon="2.71071">
        <ele>163</ele>
        <time>2019-03-10T12:35:30Z</time>
      </trkpt>
      <trkpt lat="48.43914" lon="2.71081">
        <ele>163</ele>
        <time>2019-03-10T12:35:40Z</time>
      </trkpt>
      <trkpt lat="48.43907" lon="2.71095">
        <ele>159</ele>
        <time>2019-03-10T12:35:53Z</time>
      </trkpt>
      <trkpt lat="48.43906" lon="2.71102">
        <ele>158</ele>
        <time>2019-03-10T12:35:59Z</time>
      </trkpt>
      <trkpt lat="48.43904" lon="2.71108">
        <ele>157</ele>
        <time>2019-03-10T12:36:04Z</time>
      </trkpt>
      <trkpt lat="48.439" lon="2.71112">
        <ele>158</ele>
        <time>2019-03-10T12:36:09Z</time>
      </trkpt>
      <trkpt lat="48.43887" lon="2.71118">
        <ele>155</ele>
        <time>2019-03-10T12:36:24Z</time>
      </trkpt>
      <trkpt lat="48.43878" lon="2.711">
        <ele>154</ele>
        <time>2019-03-10T12:36:37Z</time>
      </trkpt>
      <trkpt lat="48.4387" lon="2.71083">
        <ele>152</ele>
        <time>2019-03-10T12:36:49Z</time>
      </trkpt>
      <trkpt lat="48.43861" lon="2.71073">
        <ele>153</ele>
        <time>2019-03-10T12:36:57Z</time>
      </trkpt>
      <trkpt lat="48.43856" lon="2.7107">
        <ele>152</ele>
        <time>2019-03-10T12:37:01Z</time>
      </trkpt>
      <trkpt lat="48.43851" lon="2.71067">
        <ele>152</ele>
        <time>2019-03-10T12:37:06Z</time>
      </trkpt>
      <trkpt lat="48.4384" lon="2.71042">
        <ele>151</ele>
        <time>2019-03-10T12:37:23Z</time>
      </trkpt>
      <trkpt lat="48.43834" lon="2.71044">
        <ele>151</ele>
        <time>2019-03-10T12:37:27Z</time>
      </trkpt>
      <trkpt lat="48.43828" lon="2.71056">
        <ele>149</ele>
        <time>2019-03-10T12:37:36Z</time>
      </trkpt>
      <trkpt lat="48.43823" lon="2.71081">
        <ele>146</ele>
        <time>2019-03-10T12:37:54Z</time>
      </trkpt>
      <trkpt lat="48.4382" lon="2.71096">
        <ele>146</ele>
        <time>2019-03-10T12:38:03Z</time>
      </trkpt>
      <trkpt lat="48.43814" lon="2.71118">
        <ele>144</ele>
        <time>2019-03-10T12:38:14Z</time>
      </trkpt>
      <trkpt lat="48.43811" lon="2.71133">
        <ele>144</ele>
        <time>2019-03-10T12:38:22Z</time>
      </trkpt>
      <trkpt lat="48.43808" lon="2.71147">
        <ele>143</ele>
        <time>2019-03-10T12:38:31Z</time>
      </trkpt>
      <trkpt lat="48.43807" lon="2.71157">
        <ele>142</ele>
        <time>2019-03-10T12:38:38Z</time>
      </trkpt>
      <trkpt lat="48.43807" lon="2.71164">
        <ele>142</ele>
        <time>2019-03-10T12:38:42Z</time>
      </trkpt>
      <trkpt lat="48.43805" lon="2.71177">
        <ele>142</ele>
        <time>2019-03-10T12:38:47Z</time>
      </trkpt>
      <trkpt lat="48.43798" lon="2.71209">
        <ele>140</ele>
        <time>2019-03-10T12:39:00Z</time>
      </trkpt>
      <trkpt lat="48.43795" lon="2.71232">
        <ele>138</ele>
        <time>2019-03-10T12:39:11Z</time>
      </trkpt>
      <trkpt lat="48.43794" lon="2.7124">
        <ele>138</ele>
        <time>2019-03-10T12:39:16Z</time>
      </trkpt>
      <trkpt lat="48.43791" lon="2.71255">
        <ele>139</ele>
        <time>2019-03-10T12:39:22Z</time>
      </trkpt>
      <trkpt lat="48.43788" lon="2.71278">
        <ele>141</ele>
        <time>2019-03-10T12:39:34Z</time>
      </trkpt>
      <trkpt lat="48.43787" lon="2.71286">
        <ele>140</ele>
        <time>2019-03-10T12:39:38Z</time>
      </trkpt>
      <trkpt lat="48.43785" lon="2.71301">
        <ele>139</ele>
        <time>2019-03-10T12:39:46Z</time>
      </trkpt>
      <trkpt lat="48.43784" lon="2.71309">
        <ele>137</ele>
        <time>2019-03-10T12:39:50Z</time>
      </trkpt>
      <trkpt lat="48.43783" lon="2.71316">
        <ele>137</ele>
        <time>2019-03-10T12:39:54Z</time>
      </trkpt>
      <trkpt lat="48.43781" lon="2.71342">
        <ele>139</ele>
        <time>2019-03-10T12:40:09Z</time>
      </trkpt>
      <trkpt lat="48.43779" lon="2.71353">
        <ele>138</ele>
        <time>2019-03-10T12:40:16Z</time>
      </trkpt>
      <trkpt lat="48.43777" lon="2.71369">
        <ele>139</ele>
        <time>2019-03-10T12:40:23Z</time>
      </trkpt>
      <trkpt lat="48.43776" lon="2.71376">
        <ele>138</ele>
        <time>2019-03-10T12:40:26Z</time>
      </trkpt>
      <trkpt lat="48.43775" lon="2.71382">
        <ele>139</ele>
        <time>2019-03-10T12:40:29Z</time>
      </trkpt>
      <trkpt lat="48.43768" lon="2.71422">
        <ele>137</ele>
        <time>2019-03-10T12:40:49Z</time>
      </trkpt>
      <trkpt lat="48.43768" lon="2.71429">
        <ele>136</ele>
        <time>2019-03-10T12:40:54Z</time>
      </trkpt>
      <trkpt lat="48.43766" lon="2.71437">
        <ele>138</ele>
        <time>2019-03-10T12:40:58Z</time>
      </trkpt>
      <trkpt lat="48.43766" lon="2.71446">
        <ele>138</ele>
        <time>2019-03-10T12:41:02Z</time>
      </trkpt>
      <trkpt lat="48.43766" lon="2.71453">
        <ele>138</ele>
        <time>2019-03-10T12:41:06Z</time>
      </trkpt>
      <trkpt lat="48.43766" lon="2.71462">
        <ele>138</ele>
        <time>2019-03-10T12:41:10Z</time>
      </trkpt>
      <trkpt lat="48.43762" lon="2.71493">
        <ele>136</ele>
        <time>2019-03-10T12:41:24Z</time>
      </trkpt>
      <trkpt lat="48.43763" lon="2.71501">
        <ele>136</ele>
        <time>2019-03-10T12:41:29Z</time>
      </trkpt>
      <trkpt lat="48.43763" lon="2.71508">
        <ele>137</ele>
        <time>2019-03-10T12:41:34Z</time>
      </trkpt>
      <trkpt lat="48.43765" lon="2.71518">
        <ele>136</ele>
        <time>2019-03-10T12:41:42Z</time>
      </trkpt>
      <trkpt lat="48.43765" lon="2.71526">
        <ele>137</ele>
        <time>2019-03-10T12:41:48Z</time>
      </trkpt>
      <trkpt lat="48.43764" lon="2.71533">
        <ele>137</ele>
        <time>2019-03-10T12:41:52Z</time>
      </trkpt>
      <trkpt lat="48.43761" lon="2.7154">
        <ele>137</ele>
        <time>2019-03-10T12:41:56Z</time>
      </trkpt>
      <trkpt lat="48.43759" lon="2.71546">
        <ele>135</ele>
        <time>2019-03-10T12:42:21Z</time>
      </trkpt>
      <trkpt lat="48.43756" lon="2.71553">
        <ele>136</ele>
        <time>2019-03-10T12:42:52Z</time>
      </trkpt>
      <trkpt lat="48.43755" lon="2.7156">
        <ele>137</ele>
        <time>2019-03-10T12:42:57Z</time>
      </trkpt>
      <trkpt lat="48.43751" lon="2.71574">
        <ele>137</ele>
        <time>2019-03-10T12:43:07Z</time>
      </trkpt>
      <trkpt lat="48.43752" lon="2.71581">
        <ele>137</ele>
        <time>2019-03-10T12:43:11Z</time>
      </trkpt>
      <trkpt lat="48.4375" lon="2.71589">
        <ele>136</ele>
        <time>2019-03-10T12:43:15Z</time>
      </trkpt>
      <trkpt lat="48.43749" lon="2.71598">
        <ele>136</ele>
        <time>2019-03-10T12:43:19Z</time>
      </trkpt>
      <trkpt lat="48.43748" lon="2.71604">
        <ele>135</ele>
        <time>2019-03-10T12:43:23Z</time>
      </trkpt>
      <trkpt lat="48.43747" lon="2.71613">
        <ele>135</ele>
        <time>2019-03-10T12:43:30Z</time>
      </trkpt>
      <trkpt lat="48.43746" lon="2.71621">
        <ele>137</ele>
        <time>2019-03-10T12:43:35Z</time>
      </trkpt>
      <trkpt lat="48.43744" lon="2.71628">
        <ele>137</ele>
        <time>2019-03-10T12:43:39Z</time>
      </trkpt>
      <trkpt lat="48.43741" lon="2.71652">
        <ele>136</ele>
        <time>2019-03-10T12:43:51Z</time>
      </trkpt>
      <trkpt lat="48.43741" lon="2.7166">
        <ele>136</ele>
        <time>2019-03-10T12:43:56Z</time>
      </trkpt>
      <trkpt lat="48.43741" lon="2.71674">
        <ele>136</ele>
        <time>2019-03-10T12:44:05Z</time>
      </trkpt>
      <trkpt lat="48.43735" lon="2.71705">
        <ele>136</ele>
        <time>2019-03-10T12:44:21Z</time>
      </trkpt>
      <trkpt lat="48.43735" lon="2.71719">
        <ele>136</ele>
        <time>2019-03-10T12:44:28Z</time>
      </trkpt>
      <trkpt lat="48.43733" lon="2.71733">
        <ele>136</ele>
        <time>2019-03-10T12:44:35Z</time>
      </trkpt>
      <trkpt lat="48.43734" lon="2.7174">
        <ele>136</ele>
        <time>2019-03-10T12:44:39Z</time>
      </trkpt>
      <trkpt lat="48.43732" lon="2.7175">
        <ele>137</ele>
        <time>2019-03-10T12:44:46Z</time>
      </trkpt>
      <trkpt lat="48.43726" lon="2.7181">
        <ele>136</ele>
        <time>2019-03-10T12:45:16Z</time>
      </trkpt>
      <trkpt lat="48.43724" lon="2.71828">
        <ele>136</ele>
        <time>2019-03-10T12:45:24Z</time>
      </trkpt>
      <trkpt lat="48.43717" lon="2.71873">
        <ele>136</ele>
        <time>2019-03-10T12:45:48Z</time>
      </trkpt>
      <trkpt lat="48.43715" lon="2.71906">
        <ele>136</ele>
        <time>2019-03-10T12:46:06Z</time>
      </trkpt>
      <trkpt lat="48.43712" lon="2.71923">
        <ele>135</ele>
        <time>2019-03-10T12:46:15Z</time>
      </trkpt>
      <trkpt lat="48.43708" lon="2.71961">
        <ele>135</ele>
        <time>2019-03-10T12:46:34Z</time>
      </trkpt>
      <trkpt lat="48.43705" lon="2.71976">
        <ele>135</ele>
        <time>2019-03-10T12:46:42Z</time>
      </trkpt>
      <trkpt lat="48.43703" lon="2.71982">
        <ele>135</ele>
        <time>2019-03-10T12:46:46Z</time>
      </trkpt>
      <trkpt lat="48.43701" lon="2.71993">
        <ele>135</ele>
        <time>2019-03-10T12:46:57Z</time>
      </trkpt>
      <trkpt lat="48.43695" lon="2.71996">
        <ele>136</ele>
        <time>2019-03-10T12:47:09Z</time>
      </trkpt>
      <trkpt lat="48.43695" lon="2.71996">
        <ele>136</ele>
        <time>2019-03-10T12:47:13Z</time>
      </trkpt>
      <trkpt lat="48.43689" lon="2.71996">
        <ele>134</ele>
        <time>2019-03-10T12:47:19Z</time>
      </trkpt>
      <trkpt lat="48.43684" lon="2.71995">
        <ele>135</ele>
        <time>2019-03-10T12:47:23Z</time>
      </trkpt>
      <trkpt lat="48.43676" lon="2.71996">
        <ele>136</ele>
        <time>2019-03-10T12:47:31Z</time>
      </trkpt>
      <trkpt lat="48.43671" lon="2.71997">
        <ele>135</ele>
        <time>2019-03-10T12:47:35Z</time>
      </trkpt>
      <trkpt lat="48.43661" lon="2.71998">
        <ele>137</ele>
        <time>2019-03-10T12:47:43Z</time>
      </trkpt>
      <trkpt lat="48.43655" lon="2.71997">
        <ele>136</ele>
        <time>2019-03-10T12:47:48Z</time>
      </trkpt>
      <trkpt lat="48.43638" lon="2.72001">
        <ele>136</ele>
        <time>2019-03-10T12:48:00Z</time>
      </trkpt>
      <trkpt lat="48.43633" lon="2.72002">
        <ele>136</ele>
        <time>2019-03-10T12:48:04Z</time>
      </trkpt>
      <trkpt lat="48.43622" lon="2.72003">
        <ele>136</ele>
        <time>2019-03-10T12:48:22Z</time>
      </trkpt>
      <trkpt lat="48.43615" lon="2.72003">
        <ele>137</ele>
        <time>2019-03-10T12:48:47Z</time>
      </trkpt>
      <trkpt lat="48.43611" lon="2.72005">
        <ele>137</ele>
        <time>2019-03-10T12:48:50Z</time>
      </trkpt>
      <trkpt lat="48.43601" lon="2.72006">
        <ele>136</ele>
        <time>2019-03-10T12:48:58Z</time>
      </trkpt>
      <trkpt lat="48.43588" lon="2.72006">
        <ele>137</ele>
        <time>2019-03-10T12:49:11Z</time>
      </trkpt>
      <trkpt lat="48.43583" lon="2.72009">
        <ele>137</ele>
        <time>2019-03-10T12:49:14Z</time>
      </trkpt>
      <trkpt lat="48.43562" lon="2.72015">
        <ele>137</ele>
        <time>2019-03-10T12:49:28Z</time>
      </trkpt>
      <trkpt lat="48.43547" lon="2.72016">
        <ele>139</ele>
        <time>2019-03-10T12:49:40Z</time>
      </trkpt>
      <trkpt lat="48.43542" lon="2.72017">
        <ele>139</ele>
        <time>2019-03-10T12:49:44Z</time>
      </trkpt>
      <trkpt lat="48.435" lon="2.72014">
        <ele>143</ele>
        <time>2019-03-10T12:50:18Z</time>
      </trkpt>
      <trkpt lat="48.43494" lon="2.72016">
        <ele>143</ele>
        <time>2019-03-10T12:50:23Z</time>
      </trkpt>
      <trkpt lat="48.43485" lon="2.72017">
        <ele>143</ele>
        <time>2019-03-10T12:50:30Z</time>
      </trkpt>
      <trkpt lat="48.43481" lon="2.7202">
        <ele>143</ele>
        <time>2019-03-10T12:50:33Z</time>
      </trkpt>
      <trkpt lat="48.43476" lon="2.72023">
        <ele>143</ele>
        <time>2019-03-10T12:50:36Z</time>
      </trkpt>
      <trkpt lat="48.43472" lon="2.72025">
        <ele>143</ele>
        <time>2019-03-10T12:50:41Z</time>
      </trkpt>
      <trkpt lat="48.43452" lon="2.72033">
        <ele>144</ele>
        <time>2019-03-10T12:50:56Z</time>
      </trkpt>
      <trkpt lat="48.43434" lon="2.72049">
        <ele>143</ele>
        <time>2019-03-10T12:51:12Z</time>
      </trkpt>
      <trkpt lat="48.43421" lon="2.72057">
        <ele>145</ele>
        <time>2019-03-10T12:51:21Z</time>
      </trkpt>
      <trkpt lat="48.43416" lon="2.72062">
        <ele>145</ele>
        <time>2019-03-10T12:51:25Z</time>
      </trkpt>
      <trkpt lat="48.43407" lon="2.7207">
        <ele>144</ele>
        <time>2019-03-10T12:51:33Z</time>
      </trkpt>
      <trkpt lat="48.43402" lon="2.72073">
        <ele>144</ele>
        <time>2019-03-10T12:51:38Z</time>
      </trkpt>
      <trkpt lat="48.43397" lon="2.72076">
        <ele>145</ele>
        <time>2019-03-10T12:51:43Z</time>
      </trkpt>
      <trkpt lat="48.43379" lon="2.7209">
        <ele>147</ele>
        <time>2019-03-10T12:51:58Z</time>
      </trkpt>
      <trkpt lat="48.43375" lon="2.72094">
        <ele>146</ele>
        <time>2019-03-10T12:52:02Z</time>
      </trkpt>
      <trkpt lat="48.43369" lon="2.72096">
        <ele>146</ele>
        <time>2019-03-10T12:52:06Z</time>
      </trkpt>
      <trkpt lat="48.43355" lon="2.72104">
        <ele>148</ele>
        <time>2019-03-10T12:52:18Z</time>
      </trkpt>
      <trkpt lat="48.43346" lon="2.72109">
        <ele>148</ele>
        <time>2019-03-10T12:52:26Z</time>
      </trkpt>
      <trkpt lat="48.43336" lon="2.72116">
        <ele>146</ele>
        <time>2019-03-10T12:52:37Z</time>
      </trkpt>
      <trkpt lat="48.43331" lon="2.72122">
        <ele>147</ele>
        <time>2019-03-10T12:52:41Z</time>
      </trkpt>
      <trkpt lat="48.43325" lon="2.72134">
        <ele>150</ele>
        <time>2019-03-10T12:52:50Z</time>
      </trkpt>
      <trkpt lat="48.43321" lon="2.72142">
        <ele>149</ele>
        <time>2019-03-10T12:52:56Z</time>
      </trkpt>
      <trkpt lat="48.43319" lon="2.72148">
        <ele>150</ele>
        <time>2019-03-10T12:53:01Z</time>
      </trkpt>
      <trkpt lat="48.43303" lon="2.72195">
        <ele>150</ele>
        <time>2019-03-10T12:53:33Z</time>
      </trkpt>
      <trkpt lat="48.43291" lon="2.72229">
        <ele>150</ele>
        <time>2019-03-10T12:53:53Z</time>
      </trkpt>
      <trkpt lat="48.43288" lon="2.72238">
        <ele>150</ele>
        <time>2019-03-10T12:53:57Z</time>
      </trkpt>
      <trkpt lat="48.43284" lon="2.7225">
        <ele>150</ele>
        <time>2019-03-10T12:54:02Z</time>
      </trkpt>
      <trkpt lat="48.43279" lon="2.72265">
        <ele>150</ele>
        <time>2019-03-10T12:54:08Z</time>
      </trkpt>
      <trkpt lat="48.43275" lon="2.72281">
        <ele>151</ele>
        <time>2019-03-10T12:54:18Z</time>
      </trkpt>
      <trkpt lat="48.43273" lon="2.72288">
        <ele>152</ele>
        <time>2019-03-10T12:54:23Z</time>
      </trkpt>
      <trkpt lat="48.43265" lon="2.72319">
        <ele>150</ele>
        <time>2019-03-10T12:54:41Z</time>
      </trkpt>
      <trkpt lat="48.43263" lon="2.72327">
        <ele>151</ele>
        <time>2019-03-10T12:54:45Z</time>
      </trkpt>
      <trkpt lat="48.4326" lon="2.72334">
        <ele>151</ele>
        <time>2019-03-10T12:54:49Z</time>
      </trkpt>
      <trkpt lat="48.43256" lon="2.72349">
        <ele>151</ele>
        <time>2019-03-10T12:54:57Z</time>
      </trkpt>
      <trkpt lat="48.43254" lon="2.72356">
        <ele>151</ele>
        <time>2019-03-10T12:55:02Z</time>
      </trkpt>
      <trkpt lat="48.43233" lon="2.7242">
        <ele>150</ele>
        <time>2019-03-10T12:55:34Z</time>
      </trkpt>
      <trkpt lat="48.43228" lon="2.72437">
        <ele>149</ele>
        <time>2019-03-10T12:55:44Z</time>
      </trkpt>
      <trkpt lat="48.43225" lon="2.72452">
        <ele>149</ele>
        <time>2019-03-10T12:55:52Z</time>
      </trkpt>
      <trkpt lat="48.43221" lon="2.72461">
        <ele>148</ele>
        <time>2019-03-10T12:55:59Z</time>
      </trkpt>
      <trkpt lat="48.43217" lon="2.72474">
        <ele>148</ele>
        <time>2019-03-10T12:56:05Z</time>
      </trkpt>
      <trkpt lat="48.43199" lon="2.7253">
        <ele>145</ele>
        <time>2019-03-10T12:56:37Z</time>
      </trkpt>
      <trkpt lat="48.43195" lon="2.72542">
        <ele>144</ele>
        <time>2019-03-10T12:56:44Z</time>
      </trkpt>
      <trkpt lat="48.4319" lon="2.72548">
        <ele>144</ele>
        <time>2019-03-10T12:56:53Z</time>
      </trkpt>
      <trkpt lat="48.43188" lon="2.72539">
        <ele>144</ele>
        <time>2019-03-10T12:57:03Z</time>
      </trkpt>
      <trkpt lat="48.43182" lon="2.72545">
        <ele>145</ele>
        <time>2019-03-10T12:57:19Z</time>
      </trkpt>
      <trkpt lat="48.43177" lon="2.72545">
        <ele>145</ele>
        <time>2019-03-10T12:57:24Z</time>
      </trkpt>
      <trkpt lat="48.43172" lon="2.72546">
        <ele>145</ele>
        <time>2019-03-10T12:57:29Z</time>
      </trkpt>
      <trkpt lat="48.43167" lon="2.72546">
        <ele>146</ele>
        <time>2019-03-10T12:57:34Z</time>
      </trkpt>
      <trkpt lat="48.43156" lon="2.7255">
        <ele>147</ele>
        <time>2019-03-10T12:57:44Z</time>
      </trkpt>
      <trkpt lat="48.43146" lon="2.7255">
        <ele>147</ele>
        <time>2019-03-10T12:57:53Z</time>
      </trkpt>
      <trkpt lat="48.43131" lon="2.72556">
        <ele>148</ele>
        <time>2019-03-10T12:58:05Z</time>
      </trkpt>
      <trkpt lat="48.43127" lon="2.72558">
        <ele>148</ele>
        <time>2019-03-10T12:58:10Z</time>
      </trkpt>
      <trkpt lat="48.43119" lon="2.7256">
        <ele>147</ele>
        <time>2019-03-10T12:58:17Z</time>
      </trkpt>
      <trkpt lat="48.43099" lon="2.72557">
        <ele>147</ele>
        <time>2019-03-10T12:58:32Z</time>
      </trkpt>
      <trkpt lat="48.43088" lon="2.72558">
        <ele>146</ele>
        <time>2019-03-10T12:58:42Z</time>
      </trkpt>
      <trkpt lat="48.43071" lon="2.72564">
        <ele>147</ele>
        <time>2019-03-10T12:58:54Z</time>
      </trkpt>
      <trkpt lat="48.43067" lon="2.72567">
        <ele>147</ele>
        <time>2019-03-10T12:58:57Z</time>
      </trkpt>
      <trkpt lat="48.43062" lon="2.72568">
        <ele>147</ele>
        <time>2019-03-10T12:59:02Z</time>
      </trkpt>
      <trkpt lat="48.43057" lon="2.72571">
        <ele>147</ele>
        <time>2019-03-10T12:59:06Z</time>
      </trkpt>
      <trkpt lat="48.43052" lon="2.72571">
        <ele>147</ele>
        <time>2019-03-10T12:59:10Z</time>
      </trkpt>
      <trkpt lat="48.43046" lon="2.72573">
        <ele>147</ele>
        <time>2019-03-10T12:59:15Z</time>
      </trkpt>
      <trkpt lat="48.43036" lon="2.72573">
        <ele>147</ele>
        <time>2019-03-10T12:59:23Z</time>
      </trkpt>
      <trkpt lat="48.43025" lon="2.72574">
        <ele>146</ele>
        <time>2019-03-10T12:59:32Z</time>
      </trkpt>
      <trkpt lat="48.43015" lon="2.72573">
        <ele>146</ele>
        <time>2019-03-10T12:59:39Z</time>
      </trkpt>
      <trkpt lat="48.43011" lon="2.72571">
        <ele>147</ele>
        <time>2019-03-10T12:59:43Z</time>
      </trkpt>
      <trkpt lat="48.43006" lon="2.72567">
        <ele>146</ele>
        <time>2019-03-10T12:59:47Z</time>
      </trkpt>
      <trkpt lat="48.42998" lon="2.72556">
        <ele>146</ele>
        <time>2019-03-10T12:59:56Z</time>
      </trkpt>
      <trkpt lat="48.42993" lon="2.72551">
        <ele>146</ele>
        <time>2019-03-10T13:00:02Z</time>
      </trkpt>
      <trkpt lat="48.42979" lon="2.72543">
        <ele>146</ele>
        <time>2019-03-10T13:00:12Z</time>
      </trkpt>
      <trkpt lat="48.4297" lon="2.72537">
        <ele>145</ele>
        <time>2019-03-10T13:00:20Z</time>
      </trkpt>
      <trkpt lat="48.42965" lon="2.72533">
        <ele>145</ele>
        <time>2019-03-10T13:00:24Z</time>
      </trkpt>
      <trkpt lat="48.4296" lon="2.72525">
        <ele>146</ele>
        <time>2019-03-10T13:00:30Z</time>
      </trkpt>
      <trkpt lat="48.42956" lon="2.7252">
        <ele>146</ele>
        <time>2019-03-10T13:00:34Z</time>
      </trkpt>
      <trkpt lat="48.42951" lon="2.7251">
        <ele>145</ele>
        <time>2019-03-10T13:00:43Z</time>
      </trkpt>
      <trkpt lat="48.42948" lon="2.72503">
        <ele>145</ele>
        <time>2019-03-10T13:00:47Z</time>
      </trkpt>
      <trkpt lat="48.42943" lon="2.72499">
        <ele>146</ele>
        <time>2019-03-10T13:00:52Z</time>
      </trkpt>
      <trkpt lat="48.42939" lon="2.72494">
        <ele>145</ele>
        <time>2019-03-10T13:00:56Z</time>
      </trkpt>
      <trkpt lat="48.42936" lon="2.7249">
        <ele>146</ele>
        <time>2019-03-10T13:01:01Z</time>
      </trkpt>
      <trkpt lat="48.4293" lon="2.72477">
        <ele>147</ele>
        <time>2019-03-10T13:01:09Z</time>
      </trkpt>
      <trkpt lat="48.42927" lon="2.72472">
        <ele>146</ele>
        <time>2019-03-10T13:01:13Z</time>
      </trkpt>
      <trkpt lat="48.42921" lon="2.72453">
        <ele>146</ele>
        <time>2019-03-10T13:01:28Z</time>
      </trkpt>
      <trkpt lat="48.42918" lon="2.72446">
        <ele>145</ele>
        <time>2019-03-10T13:01:32Z</time>
      </trkpt>
      <trkpt lat="48.42912" lon="2.72434">
        <ele>146</ele>
        <time>2019-03-10T13:01:39Z</time>
      </trkpt>
      <trkpt lat="48.42901" lon="2.72412">
        <ele>146</ele>
        <time>2019-03-10T13:01:48Z</time>
      </trkpt>
      <trkpt lat="48.42898" lon="2.72405">
        <ele>146</ele>
        <time>2019-03-10T13:01:52Z</time>
      </trkpt>
      <trkpt lat="48.42895" lon="2.72399">
        <ele>146</ele>
        <time>2019-03-10T13:01:56Z</time>
      </trkpt>
      <trkpt lat="48.42891" lon="2.72385">
        <ele>147</ele>
        <time>2019-03-10T13:02:04Z</time>
      </trkpt>
      <trkpt lat="48.42889" lon="2.7237">
        <ele>146</ele>
        <time>2019-03-10T13:02:13Z</time>
      </trkpt>
      <trkpt lat="48.42879" lon="2.72332">
        <ele>145</ele>
        <time>2019-03-10T13:02:33Z</time>
      </trkpt>
      <trkpt lat="48.42878" lon="2.72325">
        <ele>145</ele>
        <time>2019-03-10T13:02:38Z</time>
      </trkpt>
      <trkpt lat="48.42876" lon="2.72317">
        <ele>146</ele>
        <time>2019-03-10T13:02:43Z</time>
      </trkpt>
      <trkpt lat="48.42871" lon="2.72301">
        <ele>146</ele>
        <time>2019-03-10T13:02:49Z</time>
      </trkpt>
      <trkpt lat="48.4287" lon="2.72292">
        <ele>147</ele>
        <time>2019-03-10T13:02:53Z</time>
      </trkpt>
      <trkpt lat="48.42865" lon="2.72278">
        <ele>146</ele>
        <time>2019-03-10T13:02:59Z</time>
      </trkpt>
      <trkpt lat="48.42865" lon="2.72264">
        <ele>146</ele>
        <time>2019-03-10T13:03:09Z</time>
      </trkpt>
      <trkpt lat="48.42863" lon="2.72248">
        <ele>146</ele>
        <time>2019-03-10T13:03:17Z</time>
      </trkpt>
      <trkpt lat="48.42863" lon="2.7224">
        <ele>146</ele>
        <time>2019-03-10T13:03:20Z</time>
      </trkpt>
      <trkpt lat="48.42861" lon="2.72233">
        <ele>147</ele>
        <time>2019-03-10T13:03:23Z</time>
      </trkpt>
      <trkpt lat="48.42861" lon="2.72226">
        <ele>147</ele>
        <time>2019-03-10T13:03:27Z</time>
      </trkpt>
      <trkpt lat="48.42861" lon="2.72218">
        <ele>147</ele>
        <time>2019-03-10T13:03:31Z</time>
      </trkpt>
      <trkpt lat="48.42855" lon="2.72189">
        <ele>148</ele>
        <time>2019-03-10T13:03:45Z</time>
      </trkpt>
      <trkpt lat="48.42852" lon="2.72182">
        <ele>148</ele>
        <time>2019-03-10T13:03:53Z</time>
      </trkpt>
      <trkpt lat="48.42851" lon="2.72174">
        <ele>147</ele>
        <time>2019-03-10T13:03:58Z</time>
      </trkpt>
      <trkpt lat="48.42848" lon="2.72168">
        <ele>147</ele>
        <time>2019-03-10T13:04:02Z</time>
      </trkpt>
      <trkpt lat="48.42846" lon="2.7216">
        <ele>148</ele>
        <time>2019-03-10T13:04:06Z</time>
      </trkpt>
      <trkpt lat="48.4284" lon="2.72146">
        <ele>147</ele>
        <time>2019-03-10T13:04:14Z</time>
      </trkpt>
      <trkpt lat="48.42838" lon="2.72141">
        <ele>148</ele>
        <time>2019-03-10T13:04:17Z</time>
      </trkpt>
      <trkpt lat="48.42836" lon="2.72135">
        <ele>148</ele>
        <time>2019-03-10T13:04:21Z</time>
      </trkpt>
      <trkpt lat="48.42836" lon="2.72126">
        <ele>148</ele>
        <time>2019-03-10T13:04:25Z</time>
      </trkpt>
      <trkpt lat="48.42829" lon="2.72103">
        <ele>147</ele>
        <time>2019-03-10T13:04:41Z</time>
      </trkpt>
      <trkpt lat="48.42818" lon="2.72091">
        <ele>147</ele>
        <time>2019-03-10T13:04:53Z</time>
      </trkpt>
      <trkpt lat="48.42805" lon="2.7208">
        <ele>148</ele>
        <time>2019-03-10T13:05:04Z</time>
      </trkpt>
      <trkpt lat="48.42796" lon="2.72069">
        <ele>151</ele>
        <time>2019-03-10T13:05:16Z</time>
      </trkpt>
      <trkpt lat="48.42793" lon="2.72062">
        <ele>151</ele>
        <time>2019-03-10T13:05:21Z</time>
      </trkpt>
      <trkpt lat="48.42788" lon="2.72059">
        <ele>152</ele>
        <time>2019-03-10T13:05:26Z</time>
      </trkpt>
      <trkpt lat="48.42784" lon="2.72065">
        <ele>153</ele>
        <time>2019-03-10T13:05:34Z</time>
      </trkpt>
      <trkpt lat="48.42781" lon="2.72079">
        <ele>154</ele>
        <time>2019-03-10T13:05:42Z</time>
      </trkpt>
      <trkpt lat="48.42776" lon="2.72109">
        <ele>156</ele>
        <time>2019-03-10T13:06:02Z</time>
      </trkpt>
      <trkpt lat="48.42774" lon="2.72117">
        <ele>155</ele>
        <time>2019-03-10T13:06:06Z</time>
      </trkpt>
      <trkpt lat="48.42771" lon="2.72123">
        <ele>154</ele>
        <time>2019-03-10T13:06:10Z</time>
      </trkpt>
      <trkpt lat="48.42767" lon="2.72127">
        <ele>155</ele>
        <time>2019-03-10T13:06:15Z</time>
      </trkpt>
      <trkpt lat="48.42767" lon="2.72108">
        <ele>158</ele>
        <time>2019-03-10T13:06:28Z</time>
      </trkpt>
      <trkpt lat="48.42766" lon="2.72095">
        <ele>158</ele>
        <time>2019-03-10T13:06:39Z</time>
      </trkpt>
      <trkpt lat="48.42766" lon="2.72087">
        <ele>158</ele>
        <time>2019-03-10T13:06:45Z</time>
      </trkpt>
      <trkpt lat="48.42765" lon="2.72079">
        <ele>158</ele>
        <time>2019-03-10T13:06:49Z</time>
      </trkpt>
      <trkpt lat="48.42767" lon="2.72064">
        <ele>159</ele>
        <time>2019-03-10T13:06:58Z</time>
      </trkpt>
      <trkpt lat="48.42766" lon="2.72057">
        <ele>160</ele>
        <time>2019-03-10T13:07:02Z</time>
      </trkpt>
      <trkpt lat="48.42767" lon="2.72044">
        <ele>161</ele>
        <time>2019-03-10T13:07:13Z</time>
      </trkpt>
      <trkpt lat="48.42763" lon="2.72028">
        <ele>161</ele>
        <time>2019-03-10T13:07:21Z</time>
      </trkpt>
      <trkpt lat="48.42762" lon="2.72021">
        <ele>161</ele>
        <time>2019-03-10T13:07:25Z</time>
      </trkpt>
      <trkpt lat="48.42758" lon="2.72008">
        <ele>162</ele>
        <time>2019-03-10T13:07:34Z</time>
      </trkpt>
      <trkpt lat="48.42755" lon="2.72002">
        <ele>163</ele>
        <time>2019-03-10T13:07:39Z</time>
      </trkpt>
      <trkpt lat="48.42745" lon="2.71998">
        <ele>164</ele>
        <time>2019-03-10T13:07:48Z</time>
      </trkpt>
      <trkpt lat="48.4274" lon="2.71998">
        <ele>164</ele>
        <time>2019-03-10T13:07:52Z</time>
      </trkpt>
      <trkpt lat="48.42731" lon="2.72001">
        <ele>164</ele>
        <time>2019-03-10T13:08:00Z</time>
      </trkpt>
      <trkpt lat="48.42725" lon="2.72006">
        <ele>165</ele>
        <time>2019-03-10T13:08:07Z</time>
      </trkpt>
      <trkpt lat="48.42713" lon="2.72006">
        <ele>166</ele>
        <time>2019-03-10T13:08:15Z</time>
      </trkpt>
      <trkpt lat="48.42708" lon="2.72004">
        <ele>166</ele>
        <time>2019-03-10T13:08:19Z</time>
      </trkpt>
      <trkpt lat="48.42704" lon="2.72">
        <ele>166</ele>
        <time>2019-03-10T13:08:24Z</time>
      </trkpt>
      <trkpt lat="48.427" lon="2.71995">
        <ele>166</ele>
        <time>2019-03-10T13:08:28Z</time>
      </trkpt>
      <trkpt lat="48.42696" lon="2.71991">
        <ele>166</ele>
        <time>2019-03-10T13:08:32Z</time>
      </trkpt>
      <trkpt lat="48.42691" lon="2.7199">
        <ele>166</ele>
        <time>2019-03-10T13:08:37Z</time>
      </trkpt>
      <trkpt lat="48.42683" lon="2.71987">
        <ele>166</ele>
        <time>2019-03-10T13:08:47Z</time>
      </trkpt>
      <trkpt lat="48.42678" lon="2.71983">
        <ele>167</ele>
        <time>2019-03-10T13:08:51Z</time>
      </trkpt>
      <trkpt lat="48.42673" lon="2.71983">
        <ele>167</ele>
        <time>2019-03-10T13:08:55Z</time>
      </trkpt>
      <trkpt lat="48.42668" lon="2.71983">
        <ele>166</ele>
        <time>2019-03-10T13:08:59Z</time>
      </trkpt>
      <trkpt lat="48.42663" lon="2.71992">
        <ele>164</ele>
        <time>2019-03-10T13:09:09Z</time>
      </trkpt>
      <trkpt lat="48.42661" lon="2.71999">
        <ele>164</ele>
        <time>2019-03-10T13:09:14Z</time>
      </trkpt>
      <trkpt lat="48.42657" lon="2.72004">
        <ele>164</ele>
        <time>2019-03-10T13:09:20Z</time>
      </trkpt>
      <trkpt lat="48.42654" lon="2.72009">
        <ele>163</ele>
        <time>2019-03-10T13:09:23Z</time>
      </trkpt>
      <trkpt lat="48.42652" lon="2.72016">
        <ele>162</ele>
        <time>2019-03-10T13:09:28Z</time>
      </trkpt>
      <trkpt lat="48.42647" lon="2.72031">
        <ele>161</ele>
        <time>2019-03-10T13:09:35Z</time>
      </trkpt>
      <trkpt lat="48.42641" lon="2.72042">
        <ele>161</ele>
        <time>2019-03-10T13:09:44Z</time>
      </trkpt>
      <trkpt lat="48.42641" lon="2.72051">
        <ele>160</ele>
        <time>2019-03-10T13:09:49Z</time>
      </trkpt>
      <trkpt lat="48.42639" lon="2.72057">
        <ele>160</ele>
        <time>2019-03-10T13:09:53Z</time>
      </trkpt>
      <trkpt lat="48.4263" lon="2.72086">
        <ele>160</ele>
        <time>2019-03-10T13:10:10Z</time>
      </trkpt>
      <trkpt lat="48.42627" lon="2.72091">
        <ele>160</ele>
        <time>2019-03-10T13:10:14Z</time>
      </trkpt>
      <trkpt lat="48.42622" lon="2.72096">
        <ele>160</ele>
        <time>2019-03-10T13:10:18Z</time>
      </trkpt>
      <trkpt lat="48.42616" lon="2.72098">
        <ele>160</ele>
        <time>2019-03-10T13:10:25Z</time>
      </trkpt>
      <trkpt lat="48.42611" lon="2.72098">
        <ele>160</ele>
        <time>2019-03-10T13:10:30Z</time>
      </trkpt>
      <trkpt lat="48.42606" lon="2.72094">
        <ele>160</ele>
        <time>2019-03-10T13:10:34Z</time>
      </trkpt>
      <trkpt lat="48.42602" lon="2.72088">
        <ele>160</ele>
        <time>2019-03-10T13:10:39Z</time>
      </trkpt>
      <trkpt lat="48.42597" lon="2.72085">
        <ele>161</ele>
        <time>2019-03-10T13:10:43Z</time>
      </trkpt>
      <trkpt lat="48.42592" lon="2.72084">
        <ele>161</ele>
        <time>2019-03-10T13:10:48Z</time>
      </trkpt>
      <trkpt lat="48.42586" lon="2.72086">
        <ele>161</ele>
        <time>2019-03-10T13:10:55Z</time>
      </trkpt>
      <trkpt lat="48.42581" lon="2.72087">
        <ele>159</ele>
        <time>2019-03-10T13:11:00Z</time>
      </trkpt>
      <trkpt lat="48.42571" lon="2.72086">
        <ele>160</ele>
        <time>2019-03-10T13:11:09Z</time>
      </trkpt>
      <trkpt lat="48.42566" lon="2.72087">
        <ele>160</ele>
        <time>2019-03-10T13:11:14Z</time>
      </trkpt>
      <trkpt lat="48.42555" lon="2.72087">
        <ele>160</ele>
        <time>2019-03-10T13:11:22Z</time>
      </trkpt>
      <trkpt lat="48.4255" lon="2.7209">
        <ele>160</ele>
        <time>2019-03-10T13:11:26Z</time>
      </trkpt>
      <trkpt lat="48.42546" lon="2.72094">
        <ele>161</ele>
        <time>2019-03-10T13:11:30Z</time>
      </trkpt>
      <trkpt lat="48.42542" lon="2.72097">
        <ele>161</ele>
        <time>2019-03-10T13:11:34Z</time>
      </trkpt>
      <trkpt lat="48.42538" lon="2.72102">
        <ele>160</ele>
        <time>2019-03-10T13:11:38Z</time>
      </trkpt>
      <trkpt lat="48.42532" lon="2.72115">
        <ele>160</ele>
        <time>2019-03-10T13:11:46Z</time>
      </trkpt>
      <trkpt lat="48.42528" lon="2.7212">
        <ele>160</ele>
        <time>2019-03-10T13:11:50Z</time>
      </trkpt>
      <trkpt lat="48.42523" lon="2.72121">
        <ele>159</ele>
        <time>2019-03-10T13:11:53Z</time>
      </trkpt>
      <trkpt lat="48.42518" lon="2.72118">
        <ele>159</ele>
        <time>2019-03-10T13:11:58Z</time>
      </trkpt>
      <trkpt lat="48.42509" lon="2.72116">
        <ele>159</ele>
        <time>2019-03-10T13:12:07Z</time>
      </trkpt>
      <trkpt lat="48.42501" lon="2.72125">
        <ele>158</ele>
        <time>2019-03-10T13:12:14Z</time>
      </trkpt>
      <trkpt lat="48.42496" lon="2.72126">
        <ele>158</ele>
        <time>2019-03-10T13:12:18Z</time>
      </trkpt>
      <trkpt lat="48.42488" lon="2.72127">
        <ele>158</ele>
        <time>2019-03-10T13:12:25Z</time>
      </trkpt>
      <trkpt lat="48.42479" lon="2.72132">
        <ele>158</ele>
        <time>2019-03-10T13:12:34Z</time>
      </trkpt>
      <trkpt lat="48.42474" lon="2.72133">
        <ele>157</ele>
        <time>2019-03-10T13:12:38Z</time>
      </trkpt>
      <trkpt lat="48.42469" lon="2.7213">
        <ele>156</ele>
        <time>2019-03-10T13:12:42Z</time>
      </trkpt>
      <trkpt lat="48.42464" lon="2.72115">
        <ele>156</ele>
        <time>2019-03-10T13:12:50Z</time>
      </trkpt>
      <trkpt lat="48.42459" lon="2.72101">
        <ele>158</ele>
        <time>2019-03-10T13:12:58Z</time>
      </trkpt>
      <trkpt lat="48.42458" lon="2.72093">
        <ele>157</ele>
        <time>2019-03-10T13:13:02Z</time>
      </trkpt>
      <trkpt lat="48.42455" lon="2.72076">
        <ele>156</ele>
        <time>2019-03-10T13:13:10Z</time>
      </trkpt>
      <trkpt lat="48.42454" lon="2.72069">
        <ele>157</ele>
        <time>2019-03-10T13:13:14Z</time>
      </trkpt>
      <trkpt lat="48.42451" lon="2.72063">
        <ele>157</ele>
        <time>2019-03-10T13:13:17Z</time>
      </trkpt>
      <trkpt lat="48.42448" lon="2.72057">
        <ele>158</ele>
        <time>2019-03-10T13:13:22Z</time>
      </trkpt>
      <trkpt lat="48.42443" lon="2.72051">
        <ele>158</ele>
        <time>2019-03-10T13:13:26Z</time>
      </trkpt>
      <trkpt lat="48.42441" lon="2.72044">
        <ele>158</ele>
        <time>2019-03-10T13:13:30Z</time>
      </trkpt>
      <trkpt lat="48.42441" lon="2.72036">
        <ele>158</ele>
        <time>2019-03-10T13:13:34Z</time>
      </trkpt>
      <trkpt lat="48.42442" lon="2.72027">
        <ele>156</ele>
        <time>2019-03-10T13:13:39Z</time>
      </trkpt>
      <trkpt lat="48.42442" lon="2.72017">
        <ele>157</ele>
        <time>2019-03-10T13:13:46Z</time>
      </trkpt>
      <trkpt lat="48.42436" lon="2.71987">
        <ele>155</ele>
        <time>2019-03-10T13:14:02Z</time>
      </trkpt>
      <trkpt lat="48.42437" lon="2.71978">
        <ele>156</ele>
        <time>2019-03-10T13:14:06Z</time>
      </trkpt>
      <trkpt lat="48.4244" lon="2.71972">
        <ele>157</ele>
        <time>2019-03-10T13:14:09Z</time>
      </trkpt>
      <trkpt lat="48.42435" lon="2.71965">
        <ele>158</ele>
        <time>2019-03-10T13:14:17Z</time>
      </trkpt>
      <trkpt lat="48.42426" lon="2.71971">
        <ele>159</ele>
        <time>2019-03-10T13:14:24Z</time>
      </trkpt>
      <trkpt lat="48.42421" lon="2.71969">
        <ele>160</ele>
        <time>2019-03-10T13:14:28Z</time>
      </trkpt>
      <trkpt lat="48.42417" lon="2.71966">
        <ele>160</ele>
        <time>2019-03-10T13:14:32Z</time>
      </trkpt>
      <trkpt lat="48.42412" lon="2.71965">
        <ele>161</ele>
        <time>2019-03-10T13:14:36Z</time>
      </trkpt>
      <trkpt lat="48.4241" lon="2.71959">
        <ele>161</ele>
        <time>2019-03-10T13:14:40Z</time>
      </trkpt>
      <trkpt lat="48.42405" lon="2.71956">
        <ele>161</ele>
        <time>2019-03-10T13:14:44Z</time>
      </trkpt>
      <trkpt lat="48.42399" lon="2.71955">
        <ele>160</ele>
        <time>2019-03-10T13:14:48Z</time>
      </trkpt>
      <trkpt lat="48.42394" lon="2.71945">
        <ele>162</ele>
        <time>2019-03-10T13:14:57Z</time>
      </trkpt>
      <trkpt lat="48.42391" lon="2.71939">
        <ele>161</ele>
        <time>2019-03-10T13:15:01Z</time>
      </trkpt>
      <trkpt lat="48.42383" lon="2.71932">
        <ele>162</ele>
        <time>2019-03-10T13:15:09Z</time>
      </trkpt>
      <trkpt lat="48.42378" lon="2.7193">
        <ele>161</ele>
        <time>2019-03-10T13:15:12Z</time>
      </trkpt>
      <trkpt lat="48.42372" lon="2.7193">
        <ele>161</ele>
        <time>2019-03-10T13:15:16Z</time>
      </trkpt>
      <trkpt lat="48.42367" lon="2.71934">
        <ele>161</ele>
        <time>2019-03-10T13:15:20Z</time>
      </trkpt>
      <trkpt lat="48.42361" lon="2.71937">
        <ele>161</ele>
        <time>2019-03-10T13:15:24Z</time>
      </trkpt>
      <trkpt lat="48.42357" lon="2.71935">
        <ele>161</ele>
        <time>2019-03-10T13:15:28Z</time>
      </trkpt>
      <trkpt lat="48.42351" lon="2.71914">
        <ele>161</ele>
        <time>2019-03-10T13:15:39Z</time>
      </trkpt>
      <trkpt lat="48.42342" lon="2.71905">
        <ele>160</ele>
        <time>2019-03-10T13:15:47Z</time>
      </trkpt>
      <trkpt lat="48.42335" lon="2.71904">
        <ele>160</ele>
        <time>2019-03-10T13:15:54Z</time>
      </trkpt>
      <trkpt lat="48.42331" lon="2.71902">
        <ele>159</ele>
        <time>2019-03-10T13:15:57Z</time>
      </trkpt>
      <trkpt lat="48.42328" lon="2.71896">
        <ele>159</ele>
        <time>2019-03-10T13:16:01Z</time>
      </trkpt>
      <trkpt lat="48.42324" lon="2.71892">
        <ele>159</ele>
        <time>2019-03-10T13:16:05Z</time>
      </trkpt>
      <trkpt lat="48.4232" lon="2.71889">
        <ele>160</ele>
        <time>2019-03-10T13:16:14Z</time>
      </trkpt>
      <trkpt lat="48.42317" lon="2.71883">
        <ele>158</ele>
        <time>2019-03-10T13:16:30Z</time>
      </trkpt>
      <trkpt lat="48.4231" lon="2.71882">
        <ele>158</ele>
        <time>2019-03-10T13:16:38Z</time>
      </trkpt>
      <trkpt lat="48.42305" lon="2.71881">
        <ele>157</ele>
        <time>2019-03-10T13:16:44Z</time>
      </trkpt>
      <trkpt lat="48.42296" lon="2.71879">
        <ele>159</ele>
        <time>2019-03-10T13:16:55Z</time>
      </trkpt>
      <trkpt lat="48.42291" lon="2.71879">
        <ele>159</ele>
        <time>2019-03-10T13:16:59Z</time>
      </trkpt>
      <trkpt lat="48.42286" lon="2.71878">
        <ele>159</ele>
        <time>2019-03-10T13:17:03Z</time>
      </trkpt>
      <trkpt lat="48.4228" lon="2.7188">
        <ele>159</ele>
        <time>2019-03-10T13:17:07Z</time>
      </trkpt>
      <trkpt lat="48.42277" lon="2.71887">
        <ele>159</ele>
        <time>2019-03-10T13:17:12Z</time>
      </trkpt>
      <trkpt lat="48.42274" lon="2.71893">
        <ele>158</ele>
        <time>2019-03-10T13:17:16Z</time>
      </trkpt>
      <trkpt lat="48.42266" lon="2.71902">
        <ele>158</ele>
        <time>2019-03-10T13:17:23Z</time>
      </trkpt>
      <trkpt lat="48.42258" lon="2.71909">
        <ele>157</ele>
        <time>2019-03-10T13:17:30Z</time>
      </trkpt>
      <trkpt lat="48.42254" lon="2.71911">
        <ele>157</ele>
        <time>2019-03-10T13:17:35Z</time>
      </trkpt>
      <trkpt lat="48.42249" lon="2.71912">
        <ele>157</ele>
        <time>2019-03-10T13:17:54Z</time>
      </trkpt>
      <trkpt lat="48.42245" lon="2.71917">
        <ele>155</ele>
        <time>2019-03-10T13:19:15Z</time>
      </trkpt>
      <trkpt lat="48.4224" lon="2.71909">
        <ele>154</ele>
        <time>2019-03-10T13:23:38Z</time>
      </trkpt>
      <trkpt lat="48.42233" lon="2.71897">
        <ele>154</ele>
        <time>2019-03-10T13:23:50Z</time>
      </trkpt>
      <trkpt lat="48.42226" lon="2.71892">
        <ele>154</ele>
        <time>2019-03-10T13:24:02Z</time>
      </trkpt>
      <trkpt lat="48.42219" lon="2.71883">
        <ele>156</ele>
        <time>2019-03-10T13:24:14Z</time>
      </trkpt>
      <trkpt lat="48.42215" lon="2.71879">
        <ele>157</ele>
        <time>2019-03-10T13:24:20Z</time>
      </trkpt>
      <trkpt lat="48.42202" lon="2.71875">
        <ele>159</ele>
        <time>2019-03-10T13:24:35Z</time>
      </trkpt>
      <trkpt lat="48.42198" lon="2.71871">
        <ele>159</ele>
        <time>2019-03-10T13:24:39Z</time>
      </trkpt>
      <trkpt lat="48.42193" lon="2.71868">
        <ele>159</ele>
        <time>2019-03-10T13:24:43Z</time>
      </trkpt>
      <trkpt lat="48.42189" lon="2.71864">
        <ele>159</ele>
        <time>2019-03-10T13:24:47Z</time>
      </trkpt>
      <trkpt lat="48.42185" lon="2.71859">
        <ele>158</ele>
        <time>2019-03-10T13:24:52Z</time>
      </trkpt>
      <trkpt lat="48.42178" lon="2.71846">
        <ele>156</ele>
        <time>2019-03-10T13:25:03Z</time>
      </trkpt>
      <trkpt lat="48.42172" lon="2.71849">
        <ele>156</ele>
        <time>2019-03-10T13:25:06Z</time>
      </trkpt>
      <trkpt lat="48.42166" lon="2.7185">
        <ele>156</ele>
        <time>2019-03-10T13:25:16Z</time>
      </trkpt>
      <trkpt lat="48.42163" lon="2.71842">
        <ele>153</ele>
        <time>2019-03-10T13:25:27Z</time>
      </trkpt>
      <trkpt lat="48.42159" lon="2.7184">
        <ele>153</ele>
        <time>2019-03-10T13:26:07Z</time>
      </trkpt>
      <trkpt lat="48.42157" lon="2.71846">
        <ele>153</ele>
        <time>2019-03-10T13:26:11Z</time>
      </trkpt>
      <trkpt lat="48.42154" lon="2.71857">
        <ele>152</ele>
        <time>2019-03-10T13:26:16Z</time>
      </trkpt>
      <trkpt lat="48.42153" lon="2.71864">
        <ele>152</ele>
        <time>2019-03-10T13:26:20Z</time>
      </trkpt>
      <trkpt lat="48.42153" lon="2.71875">
        <ele>152</ele>
        <time>2019-03-10T13:26:27Z</time>
      </trkpt>
      <trkpt lat="48.42149" lon="2.71899">
        <ele>152</ele>
        <time>2019-03-10T13:26:39Z</time>
      </trkpt>
      <trkpt lat="48.4215" lon="2.71908">
        <ele>153</ele>
        <time>2019-03-10T13:26:46Z</time>
      </trkpt>
      <trkpt lat="48.42148" lon="2.71915">
        <ele>152</ele>
        <time>2019-03-10T13:26:49Z</time>
      </trkpt>
      <trkpt lat="48.42145" lon="2.7192">
        <ele>152</ele>
        <time>2019-03-10T13:26:54Z</time>
      </trkpt>
      <trkpt lat="48.4214" lon="2.71926">
        <ele>152</ele>
        <time>2019-03-10T13:27:02Z</time>
      </trkpt>
      <trkpt lat="48.42137" lon="2.71932">
        <ele>153</ele>
        <time>2019-03-10T13:27:07Z</time>
      </trkpt>
      <trkpt lat="48.42137" lon="2.71941">
        <ele>155</ele>
        <time>2019-03-10T13:27:17Z</time>
      </trkpt>
      <trkpt lat="48.42134" lon="2.71948">
        <ele>153</ele>
        <time>2019-03-10T13:27:24Z</time>
      </trkpt>
      <trkpt lat="48.42129" lon="2.71952">
        <ele>152</ele>
        <time>2019-03-10T13:27:28Z</time>
      </trkpt>
      <trkpt lat="48.42116" lon="2.71962">
        <ele>152</ele>
        <time>2019-03-10T13:27:41Z</time>
      </trkpt>
      <trkpt lat="48.42111" lon="2.71971">
        <ele>152</ele>
        <time>2019-03-10T13:27:51Z</time>
      </trkpt>
      <trkpt lat="48.42108" lon="2.71986">
        <ele>149</ele>
        <time>2019-03-10T13:28:20Z</time>
      </trkpt>
      <trkpt lat="48.42105" lon="2.72002">
        <ele>149</ele>
        <time>2019-03-10T13:28:28Z</time>
      </trkpt>
      <trkpt lat="48.42103" lon="2.72008">
        <ele>149</ele>
        <time>2019-03-10T13:28:31Z</time>
      </trkpt>
      <trkpt lat="48.42094" lon="2.72019">
        <ele>146</ele>
        <time>2019-03-10T13:28:45Z</time>
      </trkpt>
      <trkpt lat="48.42091" lon="2.72026">
        <ele>146</ele>
        <time>2019-03-10T13:28:48Z</time>
      </trkpt>
      <trkpt lat="48.42089" lon="2.72042">
        <ele>146</ele>
        <time>2019-03-10T13:28:54Z</time>
      </trkpt>
      <trkpt lat="48.42089" lon="2.72049">
        <ele>146</ele>
        <time>2019-03-10T13:28:58Z</time>
      </trkpt>
      <trkpt lat="48.42086" lon="2.72055">
        <ele>146</ele>
        <time>2019-03-10T13:29:03Z</time>
      </trkpt>
      <trkpt lat="48.42081" lon="2.72057">
        <ele>146</ele>
        <time>2019-03-10T13:29:07Z</time>
      </trkpt>
      <trkpt lat="48.42076" lon="2.72057">
        <ele>145</ele>
        <time>2019-03-10T13:29:12Z</time>
      </trkpt>
      <trkpt lat="48.42071" lon="2.72057">
        <ele>146</ele>
        <time>2019-03-10T13:29:15Z</time>
      </trkpt>
      <trkpt lat="48.42057" lon="2.72065">
        <ele>148</ele>
        <time>2019-03-10T13:29:24Z</time>
      </trkpt>
      <trkpt lat="48.42053" lon="2.72068">
        <ele>148</ele>
        <time>2019-03-10T13:29:27Z</time>
      </trkpt>
      <trkpt lat="48.4205" lon="2.72073">
        <ele>147</ele>
        <time>2019-03-10T13:29:31Z</time>
      </trkpt>
      <trkpt lat="48.42045" lon="2.72085">
        <ele>148</ele>
        <time>2019-03-10T13:29:44Z</time>
      </trkpt>
      <trkpt lat="48.42043" lon="2.72099">
        <ele>151</ele>
        <time>2019-03-10T13:29:53Z</time>
      </trkpt>
      <trkpt lat="48.4204" lon="2.72106">
        <ele>148</ele>
        <time>2019-03-10T13:29:58Z</time>
      </trkpt>
      <trkpt lat="48.42036" lon="2.72112">
        <ele>149</ele>
        <time>2019-03-10T13:30:03Z</time>
      </trkpt>
      <trkpt lat="48.42027" lon="2.7212">
        <ele>150</ele>
        <time>2019-03-10T13:30:12Z</time>
      </trkpt>
      <trkpt lat="48.42021" lon="2.72133">
        <ele>148</ele>
        <time>2019-03-10T13:30:20Z</time>
      </trkpt>
      <trkpt lat="48.42018" lon="2.72139">
        <ele>148</ele>
        <time>2019-03-10T13:30:24Z</time>
      </trkpt>
      <trkpt lat="48.42011" lon="2.72152">
        <ele>147</ele>
        <time>2019-03-10T13:30:33Z</time>
      </trkpt>
      <trkpt lat="48.42008" lon="2.7216">
        <ele>148</ele>
        <time>2019-03-10T13:30:39Z</time>
      </trkpt>
      <trkpt lat="48.42009" lon="2.72168">
        <ele>148</ele>
        <time>2019-03-10T13:30:44Z</time>
      </trkpt>
      <trkpt lat="48.42011" lon="2.72174">
        <ele>148</ele>
        <time>2019-03-10T13:30:48Z</time>
      </trkpt>
      <trkpt lat="48.42011" lon="2.72182">
        <ele>148</ele>
        <time>2019-03-10T13:30:53Z</time>
      </trkpt>
      <trkpt lat="48.42009" lon="2.72188">
        <ele>149</ele>
        <time>2019-03-10T13:30:57Z</time>
      </trkpt>
      <trkpt lat="48.42002" lon="2.72201">
        <ele>149</ele>
        <time>2019-03-10T13:31:06Z</time>
      </trkpt>
      <trkpt lat="48.41998" lon="2.72206">
        <ele>149</ele>
        <time>2019-03-10T13:31:11Z</time>
      </trkpt>
      <trkpt lat="48.41996" lon="2.72213">
        <ele>149</ele>
        <time>2019-03-10T13:31:16Z</time>
      </trkpt>
      <trkpt lat="48.41997" lon="2.72228">
        <ele>147</ele>
        <time>2019-03-10T13:31:25Z</time>
      </trkpt>
      <trkpt lat="48.41998" lon="2.72237">
        <ele>147</ele>
        <time>2019-03-10T13:31:36Z</time>
      </trkpt>
      <trkpt lat="48.42001" lon="2.72243">
        <ele>147</ele>
        <time>2019-03-10T13:31:49Z</time>
      </trkpt>
      <trkpt lat="48.42001" lon="2.72251">
        <ele>148</ele>
        <time>2019-03-10T13:31:57Z</time>
      </trkpt>
      <trkpt lat="48.42004" lon="2.72257">
        <ele>146</ele>
        <time>2019-03-10T13:32:04Z</time>
      </trkpt>
      <trkpt lat="48.42008" lon="2.72267">
        <ele>144</ele>
        <time>2019-03-10T13:32:15Z</time>
      </trkpt>
      <trkpt lat="48.42005" lon="2.72274">
        <ele>144</ele>
        <time>2019-03-10T13:32:20Z</time>
      </trkpt>
      <trkpt lat="48.42004" lon="2.72284">
        <ele>144</ele>
        <time>2019-03-10T13:32:27Z</time>
      </trkpt>
      <trkpt lat="48.42004" lon="2.72291">
        <ele>143</ele>
        <time>2019-03-10T13:32:31Z</time>
      </trkpt>
      <trkpt lat="48.42003" lon="2.72307">
        <ele>144</ele>
        <time>2019-03-10T13:32:38Z</time>
      </trkpt>
      <trkpt lat="48.42002" lon="2.72314">
        <ele>143</ele>
        <time>2019-03-10T13:32:42Z</time>
      </trkpt>
      <trkpt lat="48.41998" lon="2.72327">
        <ele>143</ele>
        <time>2019-03-10T13:32:50Z</time>
      </trkpt>
      <trkpt lat="48.41995" lon="2.72335">
        <ele>143</ele>
        <time>2019-03-10T13:32:54Z</time>
      </trkpt>
      <trkpt lat="48.41993" lon="2.72356">
        <ele>142</ele>
        <time>2019-03-10T13:33:09Z</time>
      </trkpt>
      <trkpt lat="48.41995" lon="2.72365">
        <ele>142</ele>
        <time>2019-03-10T13:33:14Z</time>
      </trkpt>
      <trkpt lat="48.41993" lon="2.72373">
        <ele>142</ele>
        <time>2019-03-10T13:33:18Z</time>
      </trkpt>
      <trkpt lat="48.41994" lon="2.7238">
        <ele>143</ele>
        <time>2019-03-10T13:33:23Z</time>
      </trkpt>
      <trkpt lat="48.41997" lon="2.72389">
        <ele>142</ele>
        <time>2019-03-10T13:33:30Z</time>
      </trkpt>
      <trkpt lat="48.41999" lon="2.72398">
        <ele>140</ele>
        <time>2019-03-10T13:33:37Z</time>
      </trkpt>
      <trkpt lat="48.41994" lon="2.72407">
        <ele>140</ele>
        <time>2019-03-10T13:33:43Z</time>
      </trkpt>
      <trkpt lat="48.41991" lon="2.72412">
        <ele>140</ele>
        <time>2019-03-10T13:33:46Z</time>
      </trkpt>
      <trkpt lat="48.41984" lon="2.72424">
        <ele>139</ele>
        <time>2019-03-10T13:33:54Z</time>
      </trkpt>
      <trkpt lat="48.41982" lon="2.72431">
        <ele>140</ele>
        <time>2019-03-10T13:33:58Z</time>
      </trkpt>
      <trkpt lat="48.41982" lon="2.72439">
        <ele>141</ele>
        <time>2019-03-10T13:34:03Z</time>
      </trkpt>
      <trkpt lat="48.41983" lon="2.72446">
        <ele>141</ele>
        <time>2019-03-10T13:34:07Z</time>
      </trkpt>
      <trkpt lat="48.41983" lon="2.72454">
        <ele>142</ele>
        <time>2019-03-10T13:34:28Z</time>
      </trkpt>
      <trkpt lat="48.41976" lon="2.72459">
        <ele>140</ele>
        <time>2019-03-10T13:34:39Z</time>
      </trkpt>
      <trkpt lat="48.41972" lon="2.72462">
        <ele>141</ele>
        <time>2019-03-10T13:34:42Z</time>
      </trkpt>
      <trkpt lat="48.41967" lon="2.72466">
        <ele>142</ele>
        <time>2019-03-10T13:34:45Z</time>
      </trkpt>
      <trkpt lat="48.41962" lon="2.72467">
        <ele>141</ele>
        <time>2019-03-10T13:34:48Z</time>
      </trkpt>
      <trkpt lat="48.41957" lon="2.72471">
        <ele>140</ele>
        <time>2019-03-10T13:34:52Z</time>
      </trkpt>
      <trkpt lat="48.41955" lon="2.72479">
        <ele>140</ele>
        <time>2019-03-10T13:34:56Z</time>
      </trkpt>
      <trkpt lat="48.41952" lon="2.72487">
        <ele>139</ele>
        <time>2019-03-10T13:35:00Z</time>
      </trkpt>
      <trkpt lat="48.41951" lon="2.72494">
        <ele>139</ele>
        <time>2019-03-10T13:35:04Z</time>
      </trkpt>
      <trkpt lat="48.41951" lon="2.72501">
        <ele>139</ele>
        <time>2019-03-10T13:35:08Z</time>
      </trkpt>
      <trkpt lat="48.41948" lon="2.72508">
        <ele>138</ele>
        <time>2019-03-10T13:35:13Z</time>
      </trkpt>
      <trkpt lat="48.41944" lon="2.72512">
        <ele>138</ele>
        <time>2019-03-10T13:35:17Z</time>
      </trkpt>
      <trkpt lat="48.41939" lon="2.72516">
        <ele>138</ele>
        <time>2019-03-10T13:35:22Z</time>
      </trkpt>
      <trkpt lat="48.41937" lon="2.72523">
        <ele>136</ele>
        <time>2019-03-10T13:35:26Z</time>
      </trkpt>
      <trkpt lat="48.4193" lon="2.72525">
        <ele>135</ele>
        <time>2019-03-10T13:35:40Z</time>
      </trkpt>
      <trkpt lat="48.41925" lon="2.72525">
        <ele>133</ele>
        <time>2019-03-10T13:35:46Z</time>
      </trkpt>
      <trkpt lat="48.4192" lon="2.72523">
        <ele>131</ele>
        <time>2019-03-10T13:35:51Z</time>
      </trkpt>
      <trkpt lat="48.41913" lon="2.72525">
        <ele>129</ele>
        <time>2019-03-10T13:36:05Z</time>
      </trkpt>
      <trkpt lat="48.41906" lon="2.72516">
        <ele>126</ele>
        <time>2019-03-10T13:36:17Z</time>
      </trkpt>
      <trkpt lat="48.41902" lon="2.72509">
        <ele>125</ele>
        <time>2019-03-10T13:36:29Z</time>
      </trkpt>
      <trkpt lat="48.41897" lon="2.72506">
        <ele>122</ele>
        <time>2019-03-10T13:36:35Z</time>
      </trkpt>
      <trkpt lat="48.41893" lon="2.72498">
        <ele>124</ele>
        <time>2019-03-10T13:36:44Z</time>
      </trkpt>
      <trkpt lat="48.41872" lon="2.72484">
        <ele>115</ele>
        <time>2019-03-10T13:37:09Z</time>
      </trkpt>
      <trkpt lat="48.41857" lon="2.72479">
        <ele>113</ele>
        <time>2019-03-10T13:37:19Z</time>
      </trkpt>
      <trkpt lat="48.41853" lon="2.7248">
        <ele>113</ele>
        <time>2019-03-10T13:37:24Z</time>
      </trkpt>
      <trkpt lat="48.41847" lon="2.72483">
        <ele>113</ele>
        <time>2019-03-10T13:37:28Z</time>
      </trkpt>
      <trkpt lat="48.41817" lon="2.72489">
        <ele>108</ele>
        <time>2019-03-10T13:37:56Z</time>
      </trkpt>
      <trkpt lat="48.41805" lon="2.72487">
        <ele>109</ele>
        <time>2019-03-10T13:38:04Z</time>
      </trkpt>
      <trkpt lat="48.41777" lon="2.72488">
        <ele>104</ele>
        <time>2019-03-10T13:38:29Z</time>
      </trkpt>
      <trkpt lat="48.41761" lon="2.72492">
        <ele>101</ele>
        <time>2019-03-10T13:38:46Z</time>
      </trkpt>
      <trkpt lat="48.41757" lon="2.72496">
        <ele>100</ele>
        <time>2019-03-10T13:38:51Z</time>
      </trkpt>
      <trkpt lat="48.41753" lon="2.72498">
        <ele>99</ele>
        <time>2019-03-10T13:38:56Z</time>
      </trkpt>
      <trkpt lat="48.41743" lon="2.72507">
        <ele>97</ele>
        <time>2019-03-10T13:39:08Z</time>
      </trkpt>
      <trkpt lat="48.41734" lon="2.72517">
        <ele>96</ele>
        <time>2019-03-10T13:39:18Z</time>
      </trkpt>
      <trkpt lat="48.41731" lon="2.72521">
        <ele>95</ele>
        <time>2019-03-10T13:39:23Z</time>
      </trkpt>
      <trkpt lat="48.41722" lon="2.72525">
        <ele>92</ele>
        <time>2019-03-10T13:39:35Z</time>
      </trkpt>
      <trkpt lat="48.41716" lon="2.72527">
        <ele>92</ele>
        <time>2019-03-10T13:39:43Z</time>
      </trkpt>
      <trkpt lat="48.41708" lon="2.72538">
        <ele>89</ele>
        <time>2019-03-10T13:40:10Z</time>
      </trkpt>
      <trkpt lat="48.417" lon="2.72538">
        <ele>89</ele>
        <time>2019-03-10T13:40:23Z</time>
      </trkpt>
      <trkpt lat="48.41696" lon="2.72543">
        <ele>88</ele>
        <time>2019-03-10T13:40:27Z</time>
      </trkpt>
      <trkpt lat="48.41693" lon="2.72546">
        <ele>88</ele>
        <time>2019-03-10T13:40:32Z</time>
      </trkpt>
      <trkpt lat="48.41689" lon="2.72553">
        <ele>89</ele>
        <time>2019-03-10T13:40:40Z</time>
      </trkpt>
      <trkpt lat="48.41688" lon="2.72569">
        <ele>86</ele>
        <time>2019-03-10T13:40:50Z</time>
      </trkpt>
      <trkpt lat="48.41685" lon="2.72577">
        <ele>85</ele>
        <time>2019-03-10T13:40:55Z</time>
      </trkpt>
      <trkpt lat="48.41683" lon="2.72582">
        <ele>84</ele>
        <time>2019-03-10T13:40:59Z</time>
      </trkpt>
      <trkpt lat="48.41681" lon="2.7259">
        <ele>83</ele>
        <time>2019-03-10T13:41:03Z</time>
      </trkpt>
      <trkpt lat="48.41683" lon="2.72597">
        <ele>83</ele>
        <time>2019-03-10T13:41:08Z</time>
      </trkpt>
      <trkpt lat="48.41686" lon="2.72603">
        <ele>83</ele>
        <time>2019-03-10T13:41:12Z</time>
      </trkpt>
      <trkpt lat="48.4169" lon="2.72615">
        <ele>82</ele>
        <time>2019-03-10T13:41:44Z</time>
      </trkpt>
      <trkpt lat="48.41691" lon="2.72623">
        <ele>82</ele>
        <time>2019-03-10T13:41:48Z</time>
      </trkpt>
      <trkpt lat="48.41691" lon="2.72639">
        <ele>81</ele>
        <time>2019-03-10T13:43:14Z</time>
      </trkpt>
    </trkseg>
  </trk>
</gpx>